GEFSSGP_con_cape1000_006.txt.gz
Probability
0 0 0 0 0 0 0 0 0 0 0 0 0 13 29 29 0 0 3 32 81 100 100 100 100 100 100 100 100 100 100 100 100 100 100 100 100 100 100 100 100 100 100 100 100 100 100 100 100
0 0 0 0 0 0 0 0 0 0 0 0 71 97 97 94 90 39 19 55 77 90 100 100 100 100 100 100 100 100 100 100 100 100 100 100 100 100 100 100 100 100 100 100 100 100 100 100 100
0 0 0 0 0 0 0 0 0 0 0 0 0 13 94 100 100 100 32 87 94 100 100 100 100 100 100 100 100 100 100 100 100 100 100 100 100 100 100 100 100 100 100 100 100 100 97 94 94
0 0 0 0 0 0 0 0 0 0 0 0 0 77 97 100 100 87 65 97 100 100 100 100 100 100 100 100 100 100 100 100 100 100 100 100 100 100 100 100 100 100 100 100 100 94 94 84 68
0 0 0 0 0 0 0 0 0 0 0 0 58 90 100 100 97 74 100 100 97 100 100 100 100 100 100 100 100 100 100 100 100 100 100 100 100 100 100 100 100 100 100 97 90 77 55 19 6
0 0 0 0 0 0 0 0 0 0 0 13 81 84 97 100 100 100 100 100 94 100 100 100 100 100 100 100 100 100 100 100 100 100 100 100 100 100 100 100 100 100 94 74 42 16 6 3 3
0 0 0 0 0 0 0 0 0 0 0 0 48 77 90 100 97 97 97 94 90 94 97 100 100 100 100 100 100 100 100 100 97 97 100 97 100 100 100 100 100 100 68 45 13 3 0 0 0
0 0 0 0 0 0 0 0 0 0 0 0 68 77 87 90 94 90 90 87 81 84 87 94 97 100 100 100 100 100 100 100 97 100 97 97 100 97 97 94 100 97 71 39 3 0 0 0 0
0 0 0 0 0 0 0 0 0 0 0 0 3 71 87 90 84 84 81 77 74 71 71 77 94 87 97 100 100 100 100 100 100 100 100 100 84 84 97 87 97 87 48 6 0 0 0 0 0
0 0 0 0 0 0 0 0 0 0 0 6 61 90 90 90 77 81 77 68 58 35 52 68 74 84 94 100 100 100 100 100 97 74 94 58 19 42 94 100 97 55 26 0 0 0 0 0 0
0 0 0 0 0 0 0 0 0 0 0 10 84 90 77 65 52 52 61 58 13 13 32 58 52 42 32 45 55 48 55 84 58 29 23 6 3 13 32 16 26 3 3 0 0 0 0 0 0
0 0 0 0 0 0 0 0 0 0 0 6 61 77 58 26 23 23 42 61 32 6 16 52 19 19 26 23 45 39 35 42 29 6 0 0 3 0 0 3 0 0 0 0 0 0 0 0 0
0 0 0 0 0 0 0 0 0 0 0 19 45 45 29 23 6 3 35 45 42 29 26 23 19 19 6 6 13 19 13 10 10 0 0 0 3 3 3 0 0 0 0 0 0 0 0 0 0
0 0 0 0 0 0 0 0 0 0 3 23 23 16 10 3 0 0 13 26 35 26 26 23 10 3 0 0 0 0 3 3 0 0 0 0 0 0 0 0 0 0 0 0 0 0 0 0 0
0 0 0 0 0 0 0 0 0 0 0 0 6 0 0 0 0 6 13 26 26 23 19 6 6 0 0 0 0 0 0 0 0 0 0 0 0 0 0 0 0 0 0 0 0 0 0 0 0
0 0 0 0 0 0 0 0 0 0 0 0 0 0 0 0 0 3 13 13 10 10 16 19 19 0 0 0 0 0 0 0 0 0 0 0 0 0 0 0 0 0 0 0 0 0 0 0 0
0 0 0 0 0 0 0 0 0 0 0 0 0 0 0 0 0 0 3 6 3 6 6 3 3 0 0 0 0 0 0 0 0 0 0 0 0 0 0 0 0 0 0 0 0 0 0 0 0
0 0 0 0 0 0 0 0 0 0 0 0 0 0 0 0 0 0 0 0 0 0 0 0 0 0 0 0 0 0 0 0 0 0 0 0 0 0 0 0 0 0 0 0 0 0 0 0 0
0 0 0 0 0 0 0 0 0 0 0 0 0 0 3 3 0 0 0 0 0 0 0 0 0 0 0 0 0 0 0 0 0 0 0 0 0 0 0 0 0 0 0 0 0 0 0 0 0
0 0 0 0 0 0 0 0 0 0 0 0 3 16 16 16 6 3 0 0 0 0 0 0 0 0 0 0 0 0 0 0 0 0 0 0 0 0 0 0 0 0 0 0 0 0 0 0 0
0 0 0 0 0 0 0 0 0 0 0 0 6 16 10 16 13 3 3 0 0 0 0 0 0 0 0 0 0 0 0 0 0 0 0 0 0 0 0 0 0 0 0 0 0 0 0 0 0
0 0 0 0 0 0 0 0 0 0 0 0 3 16 13 10 3 0 3 0 0 0 0 0 0 0 0 0 0 0 0 0 0 0 0 0 0 0 0 0 0 0 0 0 0 0 0 0 0
0 0 0 0 0 0 0 0 0 0 0 0 0 0 0 0 0 0 0 0 0 0 0 0 0 0 0 0 0 0 0 0 0 0 0 0 0 0 0 0 0 0 0 0 0 0 0 0 0
0 0 0 0 0 0 0 0 0 0 0 0 0 0 0 0 0 0 0 0 0 0 0 0 0 0 0 0 0 0 0 0 0 0 0 0 0 0 0 0 0 0 0 0 0 0 0 0 0
0 0 0 0 0 0 0 0 0 0 0 0 0 0 0 0 0 0 0 0 0 0 0 0 0 0 0 0 0 0 0 0 0 0 0 0 0 0 0 0 0 0 0 0 0 0 0 0 0
0 0 0 0 0 0 0 0 0 0 0 0 0 0 0 0 0 0 0 0 0 0 0 0 0 0 0 0 0 0 0 0 0 0 0 0 0 0 0 0 0 0 0 0 0 0 0 0 0
0 0 0 0 0 0 0 0 0 0 0 0 0 0 0 0 0 0 0 0 0 0 0 0 0 0 0 0 0 0 0 0 0 0 0 0 0 0 0 0 0 0 0 0 0 0 0 0 0
0 0 0 0 0 0 0 0 0 0 0 0 0 0 0 0 0 0 0 0 0 0 0 0 0 0 0 0 0 0 0 0 0 0 0 0 0 0 0 0 0 0 0 0 0 0 0 0 0
0 0 0 0 0 0 0 0 0 0 0 0 0 0 0 0 0 0 0 0 0 0 0 0 0 0 0 0 0 0 0 0 0 0 0 0 0 0 0 0 0 0 0 0 0 0 0 0 0
0 0 0 0 0 0 0 0 0 0 0 0 0 0 0 0 0 0 0 0 0 0 0 0 0 0 0 0 0 0 0 0 0 0 0 0 0 0 0 0 0 0 0 0 0 0 0 0 0

GEFSSGP_con_cape1000_012.txt.gz
Probability
0 0 0 0 0 0 0 0 0 0 0 0 0 0 0 0 0 0 0 42 90 90 100 100 100 100 100 100 100 100 100 100 100 100 100 100 100 100 100 100 100 100 100 100 100 100 100 100 100
0 0 0 0 0 0 0 0 0 0 0 0 19 71 81 94 39 23 35 90 90 94 100 100 100 100 100 100 100 100 100 100 100 100 100 100 100 100 100 100 100 100 100 100 100 100 100 100 100
0 0 0 0 0 0 0 0 0 0 3 0 52 100 100 100 61 32 39 81 84 100 100 100 100 100 100 100 100 100 100 100 100 100 100 100 100 100 100 100 100 100 100 100 100 100 100 94 90
0 0 0 0 0 0 0 0 0 0 0 0 71 100 100 100 84 45 48 81 87 100 100 100 100 100 100 100 100 100 100 100 100 100 100 100 100 100 100 100 100 100 100 100 100 94 90 81 45
0 0 0 0 0 0 0 0 0 0 0 29 100 100 100 97 55 42 71 90 94 100 100 100 100 100 100 100 100 100 100 100 100 100 100 100 100 100 100 100 100 100 100 94 90 90 58 26 16
0 0 0 0 0 0 0 0 0 0 3 74 100 100 100 58 42 74 81 84 100 100 100 100 100 100 100 100 100 100 100 100 100 100 100 100 100 100 100 100 100 100 97 81 61 32 10 3 3
0 0 0 0 0 0 0 0 0 0 6 74 97 100 97 68 71 87 71 77 97 97 97 100 100 100 100 100 100 100 100 100 100 100 100 100 100 100 100 100 94 97 77 55 35 13 3 0 0
0 0 0 0 0 0 0 0 0 0 0 52 94 100 97 84 94 94 81 84 94 94 94 97 100 100 100 100 100 100 100 100 100 97 97 97 100 97 94 68 84 97 71 45 29 6 3 0 0
0 0 0 0 0 0 0 0 0 0 6 61 81 90 100 97 97 94 90 90 90 94 94 94 94 97 100 100 100 97 94 97 97 97 97 97 61 39 39 52 81 81 77 32 6 0 0 0 0
0 0 0 0 0 0 0 0 0 0 3 39 94 100 97 97 97 90 87 81 90 90 90 87 81 71 71 97 100 94 94 94 74 74 77 39 3 0 32 26 97 84 42 13 3 0 0 0 0
0 0 0 0 0 0 0 0 0 0 0 29 97 100 97 97 97 81 65 71 68 71 74 68 45 42 42 32 29 19 19 19 13 13 6 3 0 0 0 0 0 6 3 3 0 0 0 0 0
0 0 0 0 0 0 0 0 0 0 0 13 94 100 97 97 97 84 74 74 61 58 71 48 26 10 6 6 10 0 0 0 3 0 0 0 0 0 0 0 0 0 0 0 0 0 0 0 0
0 0 0 0 0 0 0 0 0 0 3 42 97 100 97 97 97 90 77 68 48 42 39 32 10 3 0 0 3 0 0 0 0 0 0 0 0 0 0 0 0 0 0 0 0 0 0 0 0
0 0 0 0 0 0 0 0 0 3 19 81 100 100 97 97 97 90 77 71 35 16 13 16 0 3 0 0 0 0 0 0 0 0 0 0 0 0 0 0 0 0 0 0 0 0 0 0 0
0 0 0 0 0 0 0 0 0 3 52 84 100 100 100 97 94 87 77 68 19 3 3 10 0 0 0 0 0 0 0 0 0 0 0 0 0 0 0 0 0 0 0 0 0 0 0 0 0
0 0 0 0 0 0 0 0 0 10 55 74 81 90 94 81 84 77 61 32 13 3 0 6 3 0 0 0 0 0 0 0 0 0 0 0 0 0 0 0 0 0 0 0 0 0 0 0 0
0 0 0 0 0 0 0 0 0 0 26 61 71 77 77 42 39 23 23 10 0 0 0 0 0 0 0 0 0 0 0 0 0 0 0 0 0 0 0 0 0 0 0 0 0 0 0 0 0
0 0 0 0 0 0 0 0 0 0 6 23 32 52 39 26 6 0 0 0 0 0 0 0 0 0 0 0 0 0 0 0 0 0 0 0 0 0 0 0 0 0 0 0 0 0 0 0 0
0 0 0 0 0 0 0 0 0 0 0 0 3 3 10 3 0 0 0 0 0 0 0 0 0 0 0 0 0 0 0 0 0 0 0 0 0 0 0 0 0 0 0 0 0 0 0 0 0
0 0 0 0 0 0 0 0 0 0 0 0 0 0 0 3 0 0 0 0 0 0 0 0 0 0 0 0 0 0 0 0 0 0 0 0 0 0 0 0 0 0 0 0 0 0 0 0 0
0 0 0 0 0 0 0 0 0 0 0 0 0 0 0 0 0 0 0 0 0 0 0 0 0 0 0 0 0 0 0 0 0 0 0 0 0 0 0 0 0 0 0 0 0 0 0 0 0
0 0 0 0 0 0 0 0 0 0 0 0 0 0 0 0 0 0 0 0 0 0 0 0 0 0 0 0 0 0 0 0 0 0 0 0 0 0 0 0 0 0 0 0 0 0 0 0 0
0 0 0 0 0 0 0 0 0 0 0 0 0 0 0 3 0 0 0 0 0 0 0 0 0 0 0 0 0 0 0 0 0 0 0 0 0 0 0 0 0 0 0 0 0 0 0 0 0
0 0 0 0 0 0 0 0 0 0 0 0 0 0 0 0 0 0 0 0 0 0 0 0 0 0 0 0 0 0 0 0 0 0 0 0 0 0 0 0 0 0 0 0 0 0 0 0 0
0 0 0 0 0 0 0 0 0 0 0 0 0 0 0 0 0 0 0 0 0 0 0 0 0 0 0 0 0 0 0 0 0 0 0 0 0 0 0 0 0 0 0 0 0 0 0 0 0
0 0 0 0 0 0 0 0 0 0 0 0 0 3 0 0 0 0 0 0 0 0 0 0 0 0 0 0 0 0 0 0 0 0 0 0 0 0 0 0 0 0 0 0 0 0 0 0 0
0 0 0 0 0 0 0 0 0 0 0 0 0 0 0 0 0 0 0 0 0 0 0 0 0 0 0 0 0 0 0 0 0 0 0 0 0 0 0 0 0 0 0 0 0 0 0 0 0
0 0 0 0 0 0 0 0 0 0 0 0 0 0 0 0 0 0 0 0 0 0 0 0 0 0 0 0 0 0 0 0 0 0 0 0 0 0 0 0 0 0 0 0 0 0 0 0 0
0 0 0 0 0 0 0 0 0 0 0 0 0 0 0 0 0 0 0 0 0 0 0 0 0 0 0 0 0 0 0 0 0 0 0 0 0 0 0 0 0 0 0 0 0 0 0 0 0
0 0 0 0 0 0 0 0 0 0 0 0 0 0 0 0 0 0 0 0 0 0 0 0 0 0 0 0 0 0 0 0 0 0 0 0 0 0 0 0 0 0 0 0 0 0 0 0 0

GEFSSGP_con_cape1000_018.txt.gz
Probability
0 0 0 0 0 0 0 0 0 0 0 3 0 0 0 0 0 71 100 61 23 6 58 100 100 100 100 100 100 100 100 100 100 100 100 100 100 100 100 100 100 100 100 100 100 100 100 100 100
0 0 0 0 0 0 0 0 0 0 0 10 3 6 3 23 100 100 100 94 71 65 94 97 100 100 100 100 100 100 100 100 100 100 100 100 100 100 100 100 97 100 100 100 100 100 100 97 87
0 0 0 0 0 0 0 0 0 3 13 3 6 6 10 68 100 100 100 100 97 97 100 100 100 100 100 100 100 100 100 100 100 100 100 100 100 100 100 94 94 94 94 90 97 100 90 81 58
0 0 0 0 0 0 0 0 0 3 10 6 0 6 42 100 100 100 97 97 100 100 97 100 100 100 100 100 100 100 100 100 100 100 100 100 100 100 90 84 87 58 61 71 94 84 71 39 13
0 0 0 0 0 0 0 0 3 0 3 10 3 0 52 100 100 100 87 77 90 81 74 100 100 100 100 100 100 100 100 100 100 100 100 100 100 100 100 81 58 58 61 71 81 52 32 13 3
0 0 0 0 0 0 0 0 3 0 3 0 3 0 48 100 100 87 52 55 77 77 74 100 100 100 100 100 100 100 100 100 100 100 100 100 100 100 97 94 81 61 65 65 52 29 6 3 3
0 0 0 0 0 0 0 0 3 3 10 3 0 0 42 100 97 74 55 65 81 81 77 97 100 100 100 100 100 100 100 100 100 100 100 100 100 100 100 84 84 68 52 39 32 16 3 0 0
0 0 0 0 0 0 0 0 0 6 13 23 3 0 6 100 100 71 74 87 94 94 90 100 100 100 100 100 100 100 100 100 100 100 100 100 97 90 74 94 90 68 42 32 19 3 0 0 0
0 0 0 0 0 0 0 0 0 23 58 68 13 0 10 100 100 87 90 90 100 100 100 100 100 100 100 100 100 100 100 100 100 100 100 100 87 84 81 94 84 52 42 16 6 0 0 0 0
0 0 0 0 0 0 0 0 0 42 65 74 35 26 52 100 100 94 84 97 100 100 100 100 100 100 90 81 100 100 94 100 100 100 100 97 100 94 65 39 84 55 29 10 3 0 0 0 0
0 0 0 0 0 0 0 0 3 26 32 39 45 39 68 100 100 90 84 97 100 100 100 100 97 84 65 77 90 87 68 100 97 94 97 100 94 77 55 32 32 26 6 0 0 0 0 0 0
0 0 0 0 0 0 0 0 3 3 0 3 13 42 84 100 100 97 74 84 97 97 100 97 94 84 74 61 65 68 58 87 68 90 94 81 77 77 45 29 13 3 3 3 0 0 0 0 0
0 0 0 0 0 0 0 0 0 0 0 3 23 68 81 100 94 97 81 90 97 97 100 94 90 97 100 100 87 45 58 52 81 94 90 94 65 61 42 42 68 16 3 0 0 0 0 0 0
0 0 0 0 0 0 0 0 0 0 3 10 48 87 77 74 81 97 94 97 97 97 100 94 87 100 100 100 100 94 68 100 61 74 87 84 61 65 58 68 58 19 10 10 10 0 6 3 0
0 0 0 0 0 0 0 0 0 3 6 19 61 84 74 71 87 97 97 97 97 97 94 100 100 100 100 100 100 90 87 94 81 84 84 74 48 42 32 10 13 0 3 6 3 3 3 3 0
0 0 0 0 0 0 0 0 0 6 13 16 39 58 84 90 84 100 97 97 97 97 97 97 94 100 100 100 100 90 81 87 87 74 61 32 23 16 10 0 0 0 0 0 0 0 0 3 0
0 0 0 0 0 0 0 0 0 3 6 10 26 35 77 94 90 97 97 97 97 97 97 97 97 97 100 97 87 81 81 74 61 35 23 6 0 0 0 0 0 0 0 0 0 0 0 0 3
0 0 0 0 0 0 0 0 0 0 3 3 13 32 68 84 97 97 97 97 97 97 97 97 97 97 90 81 77 68 39 16 10 10 3 0 0 0 0 0 0 0 0 0 0 0 0 0 0
0 0 0 0 0 0 0 0 0 0 0 0 10 29 61 84 97 94 94 94 94 94 94 94 94 90 81 77 68 45 10 10 3 3 0 0 0 0 0 0 0 0 0 0 0 0 0 0 0
0 0 0 0 0 0 0 0 0 0 0 0 0 26 58 84 94 90 90 90 94 94 94 84 81 77 71 71 52 10 6 3 3 0 0 0 0 0 0 0 0 0 0 0 0 0 0 0 0
0 0 0 0 0 0 0 0 0 0 0 0 3 19 52 90 97 87 81 77 71 77 71 42 61 61 55 23 3 0 0 0 0 0 0 0 0 0 0 0 0 0 0 0 0 0 0 0 0
0 0 0 0 0 0 0 0 0 0 0 0 6 23 52 87 100 87 68 48 48 39 16 16 23 19 13 0 0 0 0 0 0 0 0 0 0 0 0 0 0 0 0 0 0 0 0 0 0
0 0 0 0 0 0 0 0 0 0 0 0 0 35 58 90 97 81 61 32 13 13 10 6 3 0 0 0 0 0 0 0 0 0 0 0 0 0 0 0 0 0 0 0 0 0 0 0 0
0 0 0 0 0 0 0 0 0 0 0 0 0 55 84 87 81 52 19 6 3 3 3 0 0 0 0 0 0 0 0 0 0 0 0 0 0 0 0 0 0 0 0 0 0 0 0 0 0
0 0 0 0 0 0 0 0 0 0 0 0 0 65 94 84 48 10 0 0 0 0 0 0 0 0 0 0 0 0 0 0 0 0 0 0 0 0 0 0 0 0 0 0 0 0 0 0 0
0 0 0 0 0 0 0 0 0 0 0 0 0 68 97 68 29 0 0 0 0 0 0 0 0 0 0 0 0 0 0 0 0 0 0 0 0 0 0 0 0 0 0 0 0 0 0 0 0
0 0 0 0 0 0 0 0 0 0 0 0 0 74 97 65 6 0 0 0 0 0 0 0 0 0 0 0 0 0 0 0 0 0 0 0 0 0 0 0 0 0 0 0 0 0 0 0 0
0 0 0 0 0 0 0 0 0 0 0 0 6 71 84 39 3 0 0 0 0 0 0 0 0 0 0 0 0 0 0 0 0 0 0 0 0 0 0 0 0 0 0 0 0 0 0 0 0
0 0 0 0 0 0 0 0 0 0 0 3 23 74 81 19 0 0 0 0 0 0 0 0 0 0 0 0 0 0 0 0 0 0 0 0 0 0 0 0 0 0 0 0 0 0 0 0 0
0 0 0 0 0 0 0 0 0 0 0 3 23 84 65 16 0 0 0 0 0 0 0 0 0 0 0 0 0 0 0 0 0 0 0 0 0 0 0 0 0 0 0 0 0 0 0 0 0

GEFSSGP_con_cape1000_024.txt.gz
Probability
0 0 0 0 0 0 0 0 0 0 0 0 0 0 3 29 90 94 29 48 97 94 100 100 100 100 100 100 100 100 100 100 100 100 100 100 100 100 100 100 100 100 100 100 100 100 97 94 77
0 0 0 0 0 0 0 0 0 0 0 0 0 0 6 16 74 71 48 77 97 100 100 100 100 100 100 100 100 100 100 100 100 100 100 100 100 100 100 100 94 94 97 97 100 97 90 77 52
0 0 0 0 0 0 0 0 0 0 0 0 0 0 3 10 71 97 90 84 97 100 100 100 100 100 100 100 100 100 100 100 100 100 100 100 100 100 97 97 90 90 94 94 94 87 77 48 19
0 0 0 0 0 0 0 0 0 0 0 0 0 0 3 3 84 97 87 84 100 100 100 100 100 100 100 100 100 100 100 100 100 100 100 100 100 97 97 97 90 84 84 84 77 61 45 19 6
0 0 0 0 0 0 0 0 0 0 0 0 0 10 13 58 100 94 94 90 100 100 100 100 100 100 100 100 100 100 100 100 100 100 100 100 100 97 94 84 74 71 74 81 55 45 19 3 0
0 0 0 0 0 0 0 0 0 0 0 0 0 6 35 71 97 94 97 97 100 100 100 100 100 100 100 100 100 100 100 100 100 100 100 100 100 100 97 94 74 68 74 55 42 16 6 3 0
0 0 0 0 0 0 0 0 0 0 0 0 0 0 39 55 87 87 87 97 100 100 100 100 100 100 100 100 100 100 100 100 100 100 100 100 100 100 97 90 74 61 48 32 23 16 6 3 0
0 0 0 0 0 0 0 0 0 0 0 0 0 0 45 58 71 55 71 87 100 100 100 100 100 100 100 100 100 100 100 100 100 100 100 100 100 100 100 100 87 65 42 29 23 6 0 0 0
0 0 0 0 0 0 0 0 0 0 0 0 0 3 52 55 48 58 61 87 97 100 100 100 100 100 100 100 100 100 100 100 100 100 100 100 97 97 100 97 90 77 48 19 16 6 3 3 3
0 0 0 0 0 0 0 0 0 0 0 0 10 32 42 42 45 55 61 84 100 100 100 100 100 100 100 100 100 100 100 100 100 100 100 100 100 100 100 94 94 68 45 26 13 16 13 3 0
0 0 0 0 0 0 0 0 0 0 0 0 3 29 39 42 48 39 58 94 100 100 100 97 94 100 100 100 100 100 100 100 100 100 100 100 100 100 87 71 81 71 45 19 10 10 0 0 0
0 0 0 0 0 0 0 0 0 0 0 0 0 19 35 39 35 35 45 74 100 100 100 81 87 100 100 100 100 100 100 100 100 100 100 100 100 100 97 94 61 74 52 45 10 42 0 0 0
0 0 0 0 0 0 0 0 0 0 0 0 0 13 19 29 19 35 45 81 100 100 100 94 97 100 100 100 100 100 100 100 100 100 100 100 100 100 97 97 97 84 48 52 68 42 23 10 3
0 0 0 0 0 0 0 0 0 0 0 0 0 6 13 19 16 26 52 90 100 100 100 100 100 100 100 100 100 100 100 100 100 100 100 94 100 100 100 100 94 87 71 52 55 35 29 32 35
0 0 0 0 0 0 0 0 0 0 0 0 0 3 16 26 19 32 55 97 97 100 100 100 100 100 100 100 100 100 100 100 100 100 100 97 100 97 87 94 77 58 52 35 39 26 29 26 13
0 0 0 0 0 0 0 0 0 0 0 0 0 3 6 42 26 26 61 97 97 100 100 100 100 100 100 100 100 100 100 100 100 100 100 94 84 61 71 74 45 32 19 19 26 23 10 10 0
0 0 0 0 0 0 0 0 0 0 0 0 0 3 3 23 16 23 65 97 97 100 100 100 100 100 100 100 100 100 100 100 97 94 94 74 48 23 48 42 32 19 19 10 0 10 0 0 0
0 0 0 0 0 0 0 0 0 0 0 0 0 0 0 6 29 39 81 97 97 97 100 100 100 100 100 100 100 97 94 90 87 74 74 52 26 6 23 19 10 3 3 3 0 0 0 0 0
0 0 0 0 0 0 0 0 0 0 0 0 0 0 0 3 19 48 87 94 94 97 97 100 100 100 100 100 97 90 87 74 61 39 26 16 6 6 3 3 0 0 0 0 0 0 0 0 0
0 0 0 0 0 0 0 0 0 0 0 0 0 0 0 6 35 84 97 94 90 90 97 100 100 100 100 100 94 90 77 39 16 10 6 0 0 0 0 0 0 0 0 0 0 0 0 0 0
0 0 0 0 0 0 0 0 0 0 0 0 0 0 0 3 29 77 94 94 97 100 100 100 100 100 97 90 74 35 16 0 0 0 0 0 0 0 0 0 0 0 0 0 0 0 0 0 0
0 0 0 0 0 0 0 0 0 0 0 0 0 0 0 6 26 55 90 100 100 100 100 97 94 87 81 65 39 16 0 0 0 0 0 0 0 0 0 0 0 0 0 0 0 0 0 0 0
0 0 0 0 0 0 0 0 0 0 0 0 0 0 0 10 29 71 90 100 94 87 81 68 61 48 39 35 29 13 3 0 0 0 0 0 0 0 0 0 0 0 0 0 0 0 0 0 0
0 0 0 0 0 0 0 0 0 0 0 0 0 0 6 26 52 87 97 87 77 58 45 42 26 19 13 10 10 3 0 0 0 0 0 0 0 0 0 0 0 0 0 0 0 0 0 0 0
0 0 0 0 0 0 0 0 0 0 0 0 0 10 23 52 74 87 81 68 45 35 26 16 10 3 3 3 3 0 0 0 0 0 0 0 0 0 0 0 0 0 0 0 0 0 0 0 0
0 0 0 0 0 0 0 0 0 0 0 0 0 13 29 68 77 77 68 42 32 23 13 3 3 3 3 0 0 0 0 0 0 0 0 0 0 0 0 0 0 0 0 0 0 0 0 0 0
0 0 0 0 0 0 0 0 0 0 0 0 0 10 26 68 81 68 42 19 16 10 3 3 3 0 0 0 0 0 0 0 0 0 0 0 0 0 0 0 0 0 0 0 0 0 0 0 0
0 0 0 0 0 0 0 0 0 0 0 0 0 10 55 77 77 48 19 13 10 3 3 0 0 0 0 0 0 0 0 0 0 0 0 0 0 0 0 0 0 0 0 0 0 0 0 0 0
0 0 0 0 0 0 0 0 0 0 0 0 0 10 74 87 52 29 13 6 3 0 0 0 0 0 0 0 0 0 0 0 0 0 0 0 0 0 0 0 0 0 0 0 0 0 0 0 0
0 0 0 0 0 0 0 0 0 0 0 0 6 55 87 77 39 16 3 3 0 0 0 0 0 0 0 0 0 0 0 0 0 0 0 0 0 0 0 0 0 0 0 0 0 0 0 0 0

GEFSSGP_con_cape1000_030.txt.gz
Probability
0 0 0 0 0 0 0 0 0 0 0 0 23 42 35 32 0 6 3 3 19 90 100 100 100 100 100 100 100 100 100 100 100 100 100 100 100 100 100 100 100 100 100 100 100 90 81 71 45
0 0 0 0 0 0 0 0 0 0 3 16 29 58 61 58 71 42 16 10 45 90 100 100 100 100 100 100 100 100 100 100 100 100 100 100 100 100 100 100 100 100 100 100 97 81 71 45 23
0 0 0 0 0 0 0 0 0 0 0 3 3 26 74 74 87 68 39 23 35 74 94 100 100 100 100 100 100 100 100 100 100 100 100 100 100 100 100 100 100 100 100 97 94 74 58 39 13
0 0 0 0 0 0 0 0 0 0 0 3 6 58 87 87 97 90 32 16 23 68 97 100 100 100 100 100 100 100 100 100 100 100 100 100 100 100 100 100 100 100 100 94 87 65 42 26 13
0 0 0 0 0 0 0 0 0 0 0 6 71 90 90 100 94 61 32 32 26 71 100 100 100 100 100 100 100 100 100 100 100 100 100 100 100 100 100 100 100 100 97 90 71 58 29 16 13
0 0 0 0 0 0 0 0 0 0 10 26 84 94 84 94 100 87 77 68 55 90 100 100 100 100 100 100 100 100 100 100 100 100 100 100 100 100 100 100 100 100 97 81 65 42 23 23 6
0 0 0 0 0 0 0 0 0 0 3 3 39 77 81 77 100 100 100 100 71 94 100 100 100 100 100 100 100 100 100 100 100 100 100 100 100 100 100 100 97 97 97 81 65 39 26 19 13
0 0 0 0 0 0 0 0 0 0 0 10 29 77 81 71 81 97 100 100 100 97 100 100 100 100 100 100 100 100 100 100 100 100 100 100 100 100 100 100 100 97 90 81 58 39 39 23 16
0 0 0 0 0 0 0 0 0 0 0 0 10 35 74 61 71 100 100 97 100 100 100 100 100 100 100 100 100 100 100 100 100 100 100 100 100 97 100 100 94 94 87 74 58 45 29 23 13
0 0 0 0 0 0 0 0 0 0 6 10 23 52 74 71 77 97 100 97 97 97 100 100 100 100 100 100 100 100 100 100 100 100 100 87 16 19 68 97 97 94 90 81 68 42 23 16 0
0 0 0 0 0 0 0 0 0 0 6 16 39 61 68 65 74 90 100 100 90 90 100 100 100 100 100 100 100 100 94 97 84 84 87 39 6 13 42 55 87 87 71 32 13 13 10 3 0
0 0 0 0 0 0 0 0 0 0 0 13 32 42 42 52 58 81 90 97 100 97 100 100 100 100 100 100 94 84 74 74 71 58 35 3 3 10 16 3 6 3 6 6 0 0 0 0 0
0 0 0 0 0 0 0 0 0 0 0 23 29 32 32 42 39 61 81 94 97 97 100 100 100 100 100 90 87 87 71 52 23 68 52 10 10 0 3 0 0 0 0 0 0 0 0 0 0
0 0 0 0 0 0 0 0 0 0 3 16 26 19 16 26 35 26 68 90 94 94 100 97 100 100 100 94 74 90 81 61 29 61 61 26 10 3 3 0 0 0 0 0 0 0 0 0 0
0 0 0 0 0 0 0 0 0 0 6 13 13 6 10 19 13 26 52 84 87 94 90 97 90 100 97 74 71 97 90 68 48 39 32 19 3 3 0 0 0 0 0 0 0 0 0 0 0
0 0 0 0 0 0 0 0 0 0 3 10 10 6 10 13 16 23 48 87 84 84 81 87 94 94 77 65 39 68 65 45 39 23 13 6 0 0 0 0 0 0 0 0 0 0 0 0 0
0 0 0 0 0 0 0 0 0 0 3 0 3 6 10 13 16 23 39 77 74 77 68 81 87 65 52 19 16 29 26 26 16 3 0 0 0 0 0 0 0 0 0 0 0 0 0 0 0
0 0 0 0 0 0 0 0 0 0 0 0 0 3 6 10 13 23 32 68 71 61 68 77 65 45 19 29 23 16 13 3 0 0 0 0 0 0 0 0 0 0 0 0 0 0 0 0 0
0 0 0 0 0 0 0 0 0 0 0 0 0 0 0 3 6 16 35 65 74 61 68 58 71 39 39 39 29 13 10 0 0 0 0 0 0 0 0 0 0 0 0 0 0 0 0 0 0
0 0 0 0 0 0 0 0 0 0 0 0 0 0 0 0 0 23 42 65 77 61 71 65 61 61 48 32 23 10 0 0 0 0 0 0 0 0 0 0 0 0 0 0 0 0 0 0 0
0 0 0 0 0 0 0 0 0 0 0 0 0 3 0 0 6 29 42 52 68 71 74 71 65 65 55 29 10 0 0 0 0 0 0 0 0 0 0 0 0 0 0 0 0 0 0 0 0
0 0 0 0 0 0 0 0 0 0 0 0 0 0 3 6 23 42 61 61 68 68 68 61 52 48 35 13 6 0 0 0 0 0 0 0 0 0 0 0 0 0 0 0 0 0 0 0 0
0 0 0 0 0 0 0 0 0 0 0 0 0 3 3 13 29 52 55 68 61 61 48 45 26 16 10 6 3 0 0 0 0 0 0 0 0 0 0 0 0 0 0 0 0 0 0 0 0
0 0 0 0 0 0 0 0 0 0 0 0 10 23 23 32 58 68 65 65 68 48 35 26 13 6 3 0 0 0 0 0 0 0 0 0 0 0 0 0 0 0 0 0 0 0 0 0 0
0 0 0 0 0 0 0 0 0 0 3 10 26 45 55 84 84 87 84 74 55 35 13 6 3 3 0 0 0 0 0 0 0 0 0 0 0 0 0 0 0 0 0 0 0 0 0 0 0
0 0 0 0 0 0 0 0 0 3 29 42 58 74 87 77 77 68 55 42 19 13 6 0 0 0 0 0 0 0 0 0 0 0 0 0 0 0 0 0 0 0 0 0 0 0 0 0 0
0 0 0 0 0 0 0 0 0 13 39 68 81 71 68 58 32 26 19 10 6 0 0 0 0 0 0 0 0 0 0 0 0 0 0 0 0 0 0 0 0 0 0 0 0 0 0 0 0
0 0 0 0 0 0 0 0 0 13 58 71 71 65 32 23 10 3 0 0 0 0 0 0 0 0 0 0 0 0 0 0 0 0 0 0 0 0 0 0 0 0 0 0 0 0 0 0 0
0 0 0 0 0 0 0 0 0 26 65 61 58 29 10 0 0 0 0 0 0 0 0 0 0 0 0 0 0 0 0 0 0 0 0 0 0 0 0 0 0 0 0 0 0 0 0 0 0
0 0 0 0 0 0 0 0 0 16 29 48 39 10 0 0 0 0 0 0 0 0 0 0 0 0 0 0 0 0 0 0 0 0 0 0 0 0 0 0 0 0 0 0 0 0 0 0 0

GEFSSGP_con_cape1000_036.txt.gz
Probability
0 0 0 0 0 0 0 0 0 0 0 3 0 0 0 0 0 0 0 0 3 84 100 100 100 100 100 100 100 100 100 100 100 100 100 100 100 100 100 100 100 100 100 100 97 97 94 87 74
0 0 0 0 0 0 0 0 0 0 3 13 26 26 23 52 32 0 0 10 71 100 100 100 100 100 100 100 100 100 100 100 100 100 100 100 100 100 100 100 100 100 100 100 97 81 61 58 35
0 0 0 0 0 0 0 0 0 3 3 3 16 45 48 58 26 6 0 42 94 100 100 100 100 100 100 100 100 100 100 100 100 100 100 100 100 100 100 100 100 100 100 97 87 68 55 32 16
0 0 0 0 0 0 0 0 0 3 3 6 32 61 68 77 39 19 32 74 97 100 100 100 100 100 100 100 100 100 100 100 100 100 100 100 100 100 100 100 100 100 100 90 74 55 39 26 13
0 0 0 0 0 0 0 0 0 0 0 19 68 84 84 90 45 32 42 61 87 97 100 100 100 100 100 100 100 100 100 100 100 100 100 100 100 100 100 100 100 100 97 84 68 48 26 16 13
0 0 0 0 0 0 0 0 0 0 0 42 74 81 84 77 35 35 32 23 71 94 100 100 100 100 100 100 100 100 100 100 100 100 100 100 100 100 100 100 100 100 97 84 74 48 19 23 10
0 0 0 0 0 0 0 0 0 0 10 35 68 81 87 55 19 13 3 23 68 97 100 100 100 100 100 100 100 100 100 100 100 100 100 100 100 100 100 100 100 100 97 87 65 48 23 19 13
0 0 0 0 0 0 0 0 0 0 3 6 71 77 84 65 10 0 0 26 61 94 100 100 100 100 100 100 100 100 100 100 100 100 100 100 100 100 100 100 100 100 97 81 61 45 29 16 16
0 0 0 0 0 0 0 0 0 0 3 13 35 61 74 68 19 19 13 35 68 94 97 100 100 100 100 100 100 100 100 100 100 100 100 100 100 100 100 100 100 94 94 71 65 48 35 23 16
0 0 0 0 0 0 0 0 0 0 3 6 26 58 94 65 48 48 23 13 32 55 94 97 97 100 100 100 100 100 100 100 100 100 100 100 42 35 87 90 100 94 84 74 61 48 26 16 3
0 0 0 0 0 0 0 0 0 0 0 3 29 81 100 90 81 71 55 16 13 26 55 87 94 100 100 100 97 100 94 97 94 87 77 39 3 6 45 13 52 74 81 55 26 19 6 6 3
0 0 0 0 0 0 0 0 0 0 0 0 19 87 97 97 97 94 84 65 23 16 23 58 90 97 100 87 84 87 77 71 65 26 16 10 3 0 0 0 0 13 10 10 3 0 0 0 0
0 0 0 0 0 0 0 0 0 0 0 6 26 84 97 97 100 100 97 84 58 16 13 42 84 90 94 71 81 84 68 48 23 13 13 3 0 0 0 0 0 0 0 0 0 0 0 0 0
0 0 0 0 0 0 0 0 0 0 0 6 29 77 90 94 100 100 100 100 84 48 10 23 71 77 81 77 74 65 42 19 13 6 3 3 0 0 0 0 0 0 0 0 0 0 0 0 0
0 0 0 0 0 0 0 0 0 0 0 6 23 55 81 81 90 100 100 100 94 71 26 13 48 58 65 55 52 39 13 10 3 3 0 3 0 0 0 0 0 0 0 0 0 0 0 0 0
0 0 0 0 0 0 0 0 0 0 0 3 6 29 48 52 68 77 97 97 100 81 35 23 45 42 48 39 19 13 3 3 3 0 0 3 3 0 0 0 0 0 0 0 0 0 0 0 0
0 0 0 0 0 0 0 0 0 0 0 0 3 13 19 35 39 45 71 94 100 90 65 32 39 39 35 35 13 6 0 0 0 0 0 0 0 0 0 0 0 0 0 0 0 0 0 0 0
0 0 0 0 0 0 0 0 0 0 0 0 0 0 6 19 39 35 42 52 87 90 87 90 65 71 45 29 10 0 0 0 0 0 0 0 0 0 0 0 0 0 0 0 0 0 0 0 0
0 0 0 0 0 0 0 0 0 0 0 0 0 0 3 6 10 16 29 32 58 84 87 94 90 84 71 39 19 3 0 0 0 0 0 0 0 0 0 0 0 0 0 0 0 0 0 0 0
0 0 0 0 0 0 0 0 0 0 0 0 0 0 0 0 3 0 3 19 32 74 77 87 77 68 65 13 3 0 0 0 0 0 0 0 0 0 0 0 0 0 0 0 0 0 0 0 0
0 0 0 0 0 0 0 0 0 0 0 0 0 0 0 0 0 0 3 6 10 23 48 48 39 39 13 3 0 0 0 0 0 0 0 0 0 0 0 0 0 0 0 0 0 0 0 0 0
0 0 0 0 0 0 0 0 0 0 0 0 0 6 3 0 0 0 3 0 3 13 16 13 13 6 3 0 0 0 0 0 0 0 0 0 0 0 0 0 0 0 0 0 0 0 0 0 0
0 0 0 0 0 0 0 0 0 0 0 3 16 16 16 3 0 0 0 6 10 6 13 10 0 0 0 0 0 0 0 0 0 0 0 0 0 0 0 0 0 0 0 0 0 0 0 0 0
0 0 0 0 0 0 0 0 0 3 3 19 19 52 52 35 35 32 26 26 19 13 6 3 0 0 0 0 0 0 0 0 0 0 0 0 0 0 0 0 0 0 0 0 0 0 0 0 0
0 0 0 0 0 0 0 0 0 10 42 45 55 58 48 39 26 23 19 19 16 13 6 3 0 0 0 0 0 0 0 0 0 0 0 0 0 0 0 0 0 0 0 0 0 0 0 0 0
0 0 0 0 0 0 0 0 6 48 65 61 45 35 26 16 10 6 10 3 3 3 3 3 0 0 0 0 0 0 0 0 0 0 0 0 0 0 0 0 0 0 0 0 0 0 0 0 0
0 0 0 0 0 0 0 0 6 26 58 55 45 19 6 0 0 0 0 0 0 0 0 0 0 0 0 0 0 0 0 0 0 0 0 0 0 0 0 0 0 0 0 0 0 0 0 0 0
0 0 0 0 0 0 0 0 0 6 32 32 19 6 0 0 0 0 0 0 0 0 0 0 0 0 0 0 0 0 0 0 0 0 0 0 0 0 0 0 0 0 0 0 0 0 0 0 0
0 0 0 0 0 0 0 0 0 3 32 16 10 0 0 0 0 0 0 0 0 0 0 0 0 0 0 0 0 0 0 0 0 0 0 0 0 0 0 0 0 0 0 0 0 0 0 0 0
0 0 0 0 0 0 0 0 0 23 19 13 6 0 0 0 0 0 0 0 0 0 0 0 0 0 0 0 0 0 0 0 0 0 0 0 0 0 0 0 0 0 0 0 0 0 0 0 0

GEFSSGP_con_cape1000_042.txt.gz
Probability
0 0 0 0 0 0 0 0 0 0 0 6 0 0 0 0 0 32 90 3 13 81 100 100 100 100 100 100 100 100 100 100 100 100 100 100 100 100 100 100 100 100 100 100 100 97 97 97 94
0 0 0 0 0 0 0 0 0 0 0 6 10 10 3 13 77 87 48 3 39 94 100 94 100 100 100 100 100 100 100 100 100 100 100 100 100 100 100 100 100 100 100 100 97 97 97 94 81
0 0 0 0 0 0 0 0 0 6 3 6 16 16 10 39 77 84 55 16 74 100 100 100 100 100 100 100 100 100 100 100 100 100 100 100 100 100 100 100 100 100 100 97 97 84 61 52 39
0 0 0 0 0 0 0 0 0 0 0 3 10 23 32 71 81 81 52 39 84 97 100 100 100 100 100 100 100 100 100 100 100 100 100 100 100 100 100 100 100 100 97 97 84 58 42 23 19
0 0 0 0 0 0 0 0 0 0 0 3 3 10 29 87 84 74 58 58 84 84 94 100 100 100 100 100 100 100 100 100 100 100 100 100 100 100 100 100 100 100 97 87 81 52 23 16 10
0 0 0 0 0 0 0 0 0 0 0 3 3 10 45 97 94 74 71 68 58 68 74 100 100 100 100 100 100 100 100 100 100 100 100 100 100 100 100 100 100 100 97 87 68 35 26 16 10
0 0 0 0 0 0 0 0 0 0 0 3 6 3 45 97 94 84 77 58 23 32 74 100 100 100 100 100 100 100 100 100 100 100 100 100 100 100 100 100 100 100 97 90 68 35 23 13 3
0 0 0 0 0 0 0 0 0 0 0 3 13 6 32 94 97 90 84 65 32 48 74 100 100 100 100 100 100 100 100 100 100 100 100 100 100 100 100 100 100 97 97 90 65 45 29 13 6
0 0 0 0 0 0 0 0 0 0 0 6 23 16 35 94 100 94 90 81 65 71 84 97 97 100 100 100 100 100 100 100 100 100 100 100 100 100 100 100 100 94 94 90 65 42 26 13 10
0 0 0 0 0 0 0 0 0 0 0 10 23 32 90 100 100 100 94 90 81 94 97 100 97 100 100 100 100 100 100 100 100 100 100 100 100 100 97 100 100 94 87 71 61 32 19 6 3
0 0 0 0 0 0 0 0 0 0 0 0 13 48 87 100 100 100 97 94 87 97 97 90 97 100 100 100 100 100 100 100 100 100 100 100 100 100 97 100 100 100 77 68 55 19 3 0 0
0 0 0 0 0 0 0 0 0 0 0 0 3 29 90 100 100 100 100 87 74 84 97 94 97 100 100 100 100 100 100 100 100 100 100 100 100 100 97 97 81 77 71 58 26 10 0 0 0
0 0 0 0 0 0 0 0 0 0 0 0 0 19 87 97 97 100 100 90 84 84 97 97 100 100 100 100 100 100 100 100 100 100 100 100 100 100 90 90 84 71 61 35 26 13 6 0 0
0 0 0 0 0 0 0 0 0 0 0 0 6 32 65 94 90 100 100 100 97 94 100 100 100 100 100 100 100 100 100 100 97 97 97 97 97 100 97 94 94 74 58 26 23 13 19 6 0
0 0 0 0 0 0 0 0 0 0 0 0 0 26 48 68 90 97 100 100 100 100 100 100 100 100 100 100 100 100 100 100 97 97 97 97 100 100 100 90 97 87 71 65 45 39 19 10 0
0 0 0 0 0 0 0 0 0 0 0 0 0 3 45 68 87 97 100 100 100 100 100 100 100 100 100 100 100 100 100 100 97 97 97 94 94 100 100 100 74 74 58 48 39 26 16 3 6
0 0 0 0 0 0 0 0 0 0 0 0 0 0 19 61 74 90 100 100 100 100 100 100 100 100 100 100 100 97 94 90 84 81 74 68 65 65 71 68 65 55 39 29 13 10 6 0 3
0 0 0 0 0 0 0 0 0 0 0 0 0 0 3 26 52 68 97 100 100 100 100 100 100 100 100 100 97 84 71 61 52 45 39 32 35 29 39 32 32 26 16 6 0 0 0 0 0
0 0 0 0 0 0 0 0 0 0 0 0 0 0 0 6 19 39 61 90 100 100 100 100 100 100 100 90 84 61 42 35 23 16 13 13 10 19 19 16 16 10 6 0 0 0 0 0 0
0 0 0 0 0 0 0 0 0 0 0 0 3 6 13 13 16 35 45 55 90 100 100 100 100 97 97 87 87 52 35 19 13 10 3 3 3 3 6 6 3 0 0 0 0 0 0 0 0
0 0 0 0 0 0 0 0 0 0 0 10 16 19 29 45 58 55 45 68 74 97 100 100 97 94 94 87 52 26 19 3 0 0 0 0 0 0 0 0 0 0 0 0 0 0 0 0 0
0 0 0 0 0 0 0 0 0 0 3 16 32 39 52 58 74 74 77 84 94 94 97 97 97 90 84 65 52 35 19 13 3 3 0 0 0 0 0 0 0 0 0 0 0 0 0 0 0
0 0 0 0 0 0 0 0 0 0 0 13 39 48 55 65 68 68 77 81 81 87 81 90 81 77 68 58 48 35 26 3 0 0 0 0 0 0 0 0 0 0 0 0 0 0 0 0 0
0 0 0 0 0 0 0 0 0 3 19 39 39 45 42 35 42 48 48 55 58 65 65 65 58 52 48 39 29 19 6 3 3 0 0 0 0 0 0 0 0 0 0 0 0 0 0 0 0
0 0 0 0 0 0 0 0 0 35 48 52 42 39 19 13 13 13 23 23 16 26 39 35 23 13 13 10 13 10 3 3 3 0 0 0 0 0 0 0 0 0 0 0 0 0 0 0 0
0 0 0 0 0 0 0 0 10 52 65 48 32 16 6 0 0 0 0 0 3 3 3 3 3 3 3 3 3 3 0 0 0 0 0 0 0 0 0 0 0 0 0 0 0 0 0 0 0
0 0 0 0 0 0 0 0 29 61 71 42 23 3 3 0 0 0 0 0 0 0 0 0 3 0 0 0 0 0 0 0 0 0 0 0 0 0 0 0 0 0 0 0 0 0 0 0 0
0 0 0 0 0 0 0 0 3 74 58 39 13 0 0 0 0 0 0 0 0 0 0 0 0 0 0 0 0 0 0 0 0 0 0 0 0 0 0 0 0 0 0 0 0 0 0 0 0
0 0 0 0 0 0 0 0 0 74 65 39 3 0 0 0 0 0 0 0 0 0 0 0 0 0 0 0 0 0 0 0 0 0 0 0 0 0 0 0 0 0 0 0 0 0 0 0 0
0 0 0 0 0 0 0 0 19 71 61 6 0 0 0 0 0 0 0 0 0 0 0 0 0 0 0 0 0 0 0 0 0 0 0 0 0 0 0 0 0 0 0 0 0 0 0 0 0

GEFSSGP_con_cape1000_048.txt.gz
Probability
0 0 0 0 0 0 0 0 0 0 0 0 0 0 0 0 13 90 74 32 81 52 90 100 100 100 100 100 100 100 100 100 100 100 100 100 100 100 100 100 100 100 100 100 100 97 97 94 94
0 0 0 0 0 0 0 0 0 0 0 0 0 0 0 10 13 45 39 77 94 74 84 100 100 100 100 100 100 100 100 100 100 100 100 100 100 100 100 100 100 100 100 100 97 97 90 81 74
0 0 0 0 0 0 0 0 0 0 0 0 0 0 0 10 13 26 68 94 94 87 97 100 100 100 100 100 100 100 100 100 100 100 100 100 100 100 100 100 100 100 100 94 90 71 58 39 52
0 0 0 0 0 0 0 0 0 0 0 0 0 0 13 10 10 45 65 94 97 100 100 100 100 100 100 100 100 100 100 100 100 100 100 100 100 100 100 100 100 100 97 94 68 42 23 19 16
0 0 0 0 0 0 0 0 0 0 0 0 0 0 42 29 42 52 68 100 100 100 100 100 100 100 100 100 100 100 100 100 100 100 100 100 100 100 100 100 100 97 90 90 61 23 13 13 10
0 0 0 0 0 0 0 0 0 0 0 0 0 6 55 48 52 48 65 90 97 100 100 100 100 100 100 100 100 100 100 100 100 100 100 100 100 100 100 100 100 97 87 77 48 19 10 10 10
0 0 0 0 0 0 0 0 0 0 0 0 0 13 55 58 45 45 61 84 87 100 100 97 100 100 100 100 100 100 100 100 100 100 100 100 100 100 100 100 100 97 87 77 48 19 16 6 6
0 0 0 0 0 0 0 0 0 0 0 0 0 16 55 71 52 45 48 65 81 97 100 100 100 100 100 100 100 100 100 100 100 100 100 100 100 100 100 100 100 97 90 87 58 39 19 16 13
0 0 0 0 0 0 0 0 0 0 0 0 0 19 61 61 55 45 29 39 58 97 100 100 100 100 100 100 100 100 100 100 100 100 100 100 100 100 100 97 100 97 97 84 74 55 42 35 32
0 0 0 0 0 0 0 0 0 0 0 0 6 45 71 65 61 39 32 35 48 94 100 100 100 100 100 100 100 100 100 100 100 100 100 100 100 100 100 100 100 97 97 94 90 77 55 35 10
0 0 0 0 0 0 0 0 0 0 0 0 16 42 71 77 71 58 42 42 45 77 100 100 100 100 100 100 100 100 100 100 100 100 100 100 100 100 100 100 100 100 97 90 87 77 29 16 13
0 0 0 0 0 0 0 0 0 0 0 0 3 32 65 84 74 65 48 48 68 81 87 94 100 100 100 100 100 100 100 100 100 100 100 100 100 100 100 100 100 100 100 97 87 74 45 23 6
0 0 0 0 0 0 0 0 0 0 0 0 3 16 52 65 77 74 61 61 77 90 94 94 100 100 100 100 100 100 100 100 100 100 100 100 100 100 100 100 100 100 100 97 94 77 55 10 6
0 0 0 0 0 0 0 0 0 0 0 0 3 6 32 48 61 68 81 84 94 100 97 100 100 100 100 100 100 100 100 100 100 100 100 97 97 100 100 100 100 100 97 94 77 71 55 19 19
0 0 0 0 0 0 0 0 0 0 0 0 0 0 6 42 52 61 71 87 100 100 100 100 100 100 100 100 100 100 100 97 97 97 97 97 97 100 100 100 100 97 97 84 71 45 35 16 10
0 0 0 0 0 0 0 0 0 0 0 0 0 0 0 23 45 55 74 94 100 100 100 100 100 100 100 100 100 100 97 97 97 97 97 97 94 100 100 97 90 90 77 71 48 42 29 10 3
0 0 0 0 0 0 0 0 0 0 0 0 0 0 0 3 16 48 68 94 97 100 100 100 100 100 100 100 100 100 97 97 97 97 94 87 81 84 90 84 77 65 58 32 13 16 19 3 0
0 0 0 0 0 0 0 0 0 0 0 0 3 0 3 10 29 48 65 97 97 100 100 100 100 100 100 100 100 100 97 94 94 84 74 65 65 58 55 58 55 48 35 26 16 6 3 0 0
0 0 0 0 0 0 0 0 0 0 0 3 10 13 13 23 35 61 74 90 100 100 100 100 100 100 100 100 100 97 94 87 74 58 45 42 35 35 42 45 39 32 23 13 10 3 0 0 0
0 0 0 0 0 0 0 0 0 0 3 10 13 16 26 48 58 68 81 94 97 100 100 100 100 100 100 100 97 94 84 84 68 48 39 29 29 26 23 29 32 26 10 6 3 0 0 0 0
0 0 0 0 0 0 0 0 0 3 6 13 16 45 65 65 81 77 87 90 97 97 100 100 100 100 100 94 87 74 61 58 48 39 32 16 13 13 10 13 10 10 3 0 0 0 0 0 0
0 0 0 0 0 0 0 0 0 3 13 19 32 68 68 68 68 68 68 77 87 87 94 94 87 87 87 90 81 74 61 58 42 32 13 6 3 0 3 3 3 3 0 0 0 0 0 0 0
0 0 0 0 0 0 0 0 0 3 19 26 48 65 58 48 48 52 52 58 61 68 71 74 74 74 74 77 71 65 48 29 16 10 6 3 0 0 0 0 0 0 0 0 0 0 0 0 0
0 0 0 0 0 0 0 0 0 10 13 55 58 39 42 29 29 19 13 23 23 32 35 45 45 39 42 39 29 29 23 13 10 6 0 0 0 0 0 0 0 0 0 0 0 0 0 0 0
0 0 0 0 0 0 0 0 13 55 71 65 42 32 29 16 3 3 3 3 0 0 3 3 3 3 3 6 10 10 6 3 0 0 0 0 0 0 0 0 0 0 0 0 0 0 0 0 0
0 0 0 0 0 0 0 3 45 77 65 55 29 23 3 0 0 0 0 0 0 0 0 0 0 3 3 3 3 3 3 0 0 0 0 0 0 0 0 0 0 0 0 0 0 0 0 0 0
0 0 0 0 0 0 0 39 81 74 65 42 26 10 0 0 0 0 0 0 0 0 0 0 0 0 0 0 0 0 0 0 0 0 0 0 0 0 0 0 0 0 0 0 0 0 0 0 0
0 0 0 0 0 0 0 6 65 81 65 32 16 3 0 0 0 0 0 0 0 0 0 0 0 0 0 0 0 0 0 0 0 0 0 0 0 0 0 0 0 0 0 0 0 0 0 0 0
0 0 0 0 0 0 0 0 48 81 58 29 3 3 0 0 0 0 0 0 0 0 0 0 0 0 0 0 0 0 0 0 0 0 0 0 0 0 0 0 0 0 0 0 0 0 0 0 0
0 0 0 0 0 0 0 19 71 74 52 6 3 0 0 0 0 0 0 0 0 0 0 0 0 0 0 0 0 0 0 0 0 0 0 0 0 0 0 0 0 0 0 0 0 0 0 0 0

GEFSSGP_con_cape1000_054.txt.gz
Probability
0 0 0 0 0 0 0 0 0 0 0 0 0 0 16 26 10 3 0 0 39 90 100 100 100 100 100 100 100 100 100 100 100 100 100 100 100 100 100 100 100 100 100 100 100 100 90 90 90
0 0 0 0 0 0 0 0 0 0 0 0 0 13 26 58 48 6 3 10 65 100 100 100 100 100 100 100 100 100 100 100 100 100 100 100 100 100 100 100 100 100 100 97 94 90 81 74 81
0 0 0 0 0 0 0 0 0 0 0 0 3 3 10 45 61 13 6 42 77 100 100 100 100 100 100 100 100 100 100 100 100 100 100 100 100 100 100 100 100 100 97 97 87 58 48 48 52
0 0 0 0 0 0 0 0 0 0 0 0 3 13 10 35 71 16 13 35 74 100 100 100 100 100 100 100 100 100 100 100 100 100 100 100 100 100 100 100 100 97 94 90 68 39 32 29 29
0 0 0 0 0 0 0 0 0 0 0 0 13 19 23 71 45 19 19 19 81 100 100 100 100 100 100 100 100 100 100 100 100 100 100 100 100 100 100 100 100 97 94 90 52 32 29 16 16
0 0 0 0 0 0 0 0 0 0 0 3 16 16 26 65 39 26 16 16 77 100 100 100 100 100 100 100 100 100 100 100 100 100 100 100 100 100 100 100 100 97 94 81 58 19 19 19 16
0 0 0 0 0 0 0 0 0 0 0 3 23 19 29 68 45 29 29 32 65 100 100 100 100 100 100 100 100 100 100 100 100 100 100 100 100 100 100 100 100 97 90 81 58 39 23 26 23
0 0 0 0 0 0 0 0 0 0 3 10 23 16 26 45 68 48 39 35 55 87 100 100 100 100 100 100 100 100 100 100 100 100 100 100 100 100 100 100 100 97 90 87 74 65 39 35 26
0 0 0 0 0 0 0 0 0 0 3 6 19 23 26 45 65 74 55 45 39 61 100 100 100 100 100 100 100 100 100 100 100 100 100 100 100 100 100 100 100 97 90 90 81 77 68 61 48
0 0 0 0 0 0 0 0 0 0 3 13 19 23 39 58 58 71 77 77 55 45 61 90 97 100 100 100 100 100 100 100 100 100 100 100 81 84 97 100 100 100 97 94 94 87 84 61 19
0 0 0 0 0 0 0 0 0 0 0 10 13 26 32 48 48 65 77 81 68 39 45 68 84 90 94 94 100 100 100 100 94 90 97 77 35 45 90 74 97 100 97 94 90 87 68 29 10
0 0 0 0 0 0 0 0 0 0 0 6 13 23 26 32 39 52 68 84 87 55 42 48 52 65 55 84 87 90 84 77 65 81 74 52 16 16 35 45 87 77 55 42 10 6 10 3 0
0 0 0 0 0 0 0 0 0 0 3 10 13 23 23 19 19 26 35 71 87 77 61 58 55 42 48 74 61 74 77 45 39 52 68 35 16 26 32 42 39 39 19 10 3 3 0 0 0
0 0 0 0 0 0 0 0 0 0 3 19 16 13 19 16 13 6 16 45 87 81 81 71 71 61 65 81 81 74 74 65 39 48 68 45 23 29 32 26 23 16 3 3 3 3 3 0 0
0 0 0 0 0 0 0 0 0 0 6 10 16 16 16 16 16 10 16 29 74 84 74 94 84 84 87 100 90 94 94 87 48 52 68 55 29 26 29 16 16 6 3 3 0 0 0 0 0
0 0 0 0 0 0 0 0 0 0 3 10 10 13 19 13 16 29 26 23 39 61 65 77 100 100 100 100 97 97 94 84 68 58 65 65 39 32 16 13 10 0 0 0 0 0 0 0 0
0 0 0 0 0 0 0 0 0 0 0 3 6 13 16 13 16 19 32 35 29 55 48 74 97 100 97 97 97 84 77 71 68 58 58 58 58 35 23 10 3 0 0 0 0 0 0 0 0
0 0 0 0 0 0 0 0 0 3 6 6 6 23 19 16 16 19 26 26 35 42 52 71 94 94 97 90 87 74 68 55 52 48 42 42 35 29 16 0 3 3 0 0 0 0 0 0 0
0 0 0 0 0 0 0 0 0 3 6 10 19 26 23 35 42 39 39 35 39 45 58 65 87 94 90 87 81 68 58 42 35 29 29 26 19 13 10 10 0 0 0 0 0 0 0 0 0
0 0 0 0 0 0 0 3 10 16 13 13 19 26 35 39 52 52 45 61 58 55 52 77 84 84 90 87 68 58 39 26 16 13 10 13 13 6 6 0 0 0 0 0 0 0 0 0 0
0 0 0 0 0 0 0 0 13 6 23 35 29 26 26 35 32 35 45 48 61 58 68 81 81 81 81 68 58 39 29 16 10 6 3 3 3 3 0 0 0 0 0 0 0 0 0 0 0
0 0 0 0 0 0 0 0 0 13 26 29 19 26 23 26 29 35 35 35 42 45 52 68 74 71 68 61 52 45 29 19 13 3 0 0 0 0 0 0 0 0 0 0 0 0 0 0 0
0 0 0 0 0 0 0 0 3 16 16 16 23 10 6 13 16 23 26 29 23 32 35 58 52 48 39 42 35 23 19 13 0 0 0 0 0 0 0 0 0 0 0 0 0 0 0 0 0
0 0 0 0 0 0 0 0 0 6 0 10 13 6 6 6 10 6 3 6 3 6 10 13 16 13 16 13 16 16 10 3 0 0 0 0 0 0 0 0 0 0 0 0 0 0 0 0 0
0 0 0 0 0 0 0 0 10 26 10 6 10 6 0 0 0 0 0 0 0 0 0 0 3 6 6 6 3 3 3 3 0 0 0 0 0 0 0 0 0 0 0 0 0 0 0 0 0
0 0 0 0 0 0 0 0 55 23 6 0 0 0 0 0 0 0 0 0 0 0 0 0 0 0 0 0 0 0 0 0 0 0 0 0 0 0 0 0 0 0 0 0 0 0 0 0 0
0 0 0 0 0 0 0 13 52 23 6 0 0 0 0 0 0 0 0 0 0 0 0 0 0 0 0 0 0 0 0 0 0 0 0 0 0 0 0 0 0 0 0 0 0 0 0 0 0
0 0 0 0 0 0 0 0 13 19 3 3 0 0 0 0 0 0 0 0 0 0 0 0 0 0 0 0 0 0 0 0 0 0 0 0 0 0 0 0 0 0 0 0 0 0 0 0 0
0 0 0 0 0 0 0 0 0 6 0 0 0 0 0 0 0 0 0 0 0 0 0 0 0 0 0 0 0 0 0 0 0 0 0 0 0 0 0 0 0 0 0 0 0 0 0 0 0
0 0 0 0 0 0 0 0 0 0 0 0 0 0 0 0 0 0 0 0 0 0 0 0 0 0 0 0 0 0 0 0 0 0 0 0 0 0 0 0 0 0 0 0 0 0 0 0 0

GEFSSGP_con_cape1000_060.txt.gz
Probability
0 0 0 0 0 0 0 0 0 0 0 0 0 0 0 0 0 0 0 6 48 97 100 100 100 100 100 100 100 100 100 100 100 100 100 100 100 100 100 100 100 100 100 100 100 100 100 100 100
0 0 0 0 0 0 0 0 0 0 0 0 0 6 3 23 0 0 0 42 90 100 100 100 100 100 100 100 100 100 100 100 100 100 100 100 100 100 100 100 100 100 100 100 100 100 100 100 100
0 0 0 0 0 0 0 0 0 0 0 0 0 3 16 29 13 0 6 71 97 100 100 100 100 100 100 100 100 100 100 100 100 100 100 100 100 100 100 100 100 100 100 100 100 94 94 90 90
0 0 0 0 0 0 0 0 0 0 0 0 0 3 16 45 13 6 48 84 97 100 100 100 100 100 100 100 100 100 100 100 100 100 100 100 100 100 100 100 100 100 100 90 77 81 81 81 74
0 0 0 0 0 0 0 0 0 0 0 0 0 6 32 58 26 39 71 84 94 100 100 100 100 100 100 100 100 100 100 100 100 100 100 100 100 100 100 100 97 97 94 84 71 55 55 58 52
0 0 0 0 0 0 0 0 0 0 0 3 0 13 48 32 42 58 74 77 94 100 100 100 100 100 100 100 100 100 100 100 100 100 100 100 100 100 100 100 97 97 97 84 68 39 29 29 39
0 0 0 0 0 0 0 0 0 0 0 0 3 32 39 23 32 39 61 81 97 97 100 100 100 100 100 100 100 100 100 100 100 100 100 100 100 100 100 97 97 97 94 84 58 39 35 29 26
0 0 0 0 0 0 0 0 0 0 0 0 6 35 35 23 16 29 77 87 97 97 100 100 100 100 100 100 100 100 100 100 100 100 100 100 100 100 100 97 97 97 87 81 68 61 39 39 35
0 0 0 0 0 0 0 0 0 0 0 3 0 16 45 29 19 45 74 90 97 97 100 100 100 100 100 100 100 100 100 100 100 100 100 100 100 100 100 100 97 97 94 90 81 77 74 68 48
0 0 0 0 0 0 0 0 0 0 0 3 13 42 48 29 26 35 45 77 94 97 97 100 100 100 100 100 100 100 100 100 100 100 100 94 87 87 100 100 97 97 94 97 94 87 74 52 29
0 0 0 0 0 0 0 0 0 0 0 0 19 48 55 35 29 19 19 23 58 84 97 94 94 100 100 100 100 100 100 100 97 94 87 81 58 65 81 71 81 90 94 87 55 48 42 23 19
0 0 0 0 0 0 0 0 0 0 0 0 13 45 65 58 29 16 10 10 19 48 87 94 90 94 90 74 97 90 87 90 87 77 74 48 26 16 23 16 23 68 55 45 26 13 10 13 13
0 0 0 0 0 0 0 0 0 0 0 0 16 55 71 65 48 26 19 13 6 16 48 65 84 87 81 52 71 87 68 77 68 58 58 42 26 10 3 3 10 10 16 10 10 6 6 3 0
0 0 0 0 0 0 0 0 0 0 3 13 42 65 68 68 58 58 39 26 13 10 19 39 61 61 58 39 55 55 55 42 42 42 45 39 13 3 0 0 0 3 0 3 3 3 0 0 0
0 0 0 0 0 0 0 0 0 0 13 13 39 48 68 68 68 68 74 61 26 19 10 16 35 42 39 32 35 35 32 35 29 23 23 32 13 3 0 0 0 0 0 0 0 0 0 0 0
0 0 0 0 0 0 0 0 0 0 10 13 23 29 42 42 45 52 61 68 61 35 23 19 35 35 26 29 23 16 13 10 6 3 3 10 6 0 0 0 0 0 0 0 0 0 0 0 0
0 0 0 0 0 0 0 0 3 3 6 10 19 19 23 19 29 29 39 61 74 61 48 32 26 23 19 13 10 6 6 6 3 3 0 6 10 3 3 0 0 0 0 0 0 0 0 0 0
0 0 0 0 0 0 0 0 3 3 6 6 13 13 16 16 16 16 26 29 55 65 58 45 26 23 16 10 13 13 16 6 3 3 0 0 0 0 0 0 0 0 0 0 0 0 0 0 0
0 0 0 0 0 0 0 3 6 10 10 6 10 6 16 29 23 29 32 26 39 55 55 48 45 35 19 23 23 29 19 10 10 0 0 0 0 0 3 0 0 0 0 0 0 0 0 0 0
0 0 0 0 0 0 0 3 10 3 3 10 13 13 16 23 26 29 19 29 26 29 42 39 45 52 35 39 35 26 19 13 6 3 0 0 0 0 0 0 0 0 0 0 0 0 0 0 0
0 0 0 0 0 0 0 3 3 0 6 10 6 6 13 16 16 13 16 16 19 13 23 32 26 42 42 32 35 26 6 0 0 0 0 0 0 0 0 0 0 0 0 0 0 0 0 0 0
0 0 0 0 0 0 0 0 3 6 13 10 6 3 3 3 6 19 16 16 13 19 23 29 26 35 35 35 39 32 29 13 6 3 0 0 0 0 0 0 0 0 0 0 0 0 0 0 0
0 0 0 0 0 0 0 0 3 0 6 10 6 3 3 3 6 3 3 6 10 13 16 13 16 10 23 23 29 19 13 3 3 0 0 0 0 0 0 0 0 0 0 0 0 0 0 0 0
0 0 0 0 0 0 0 0 3 3 6 6 3 3 3 3 3 3 3 3 3 3 3 6 10 6 6 3 3 6 3 3 3 0 0 0 0 0 0 0 0 0 0 0 0 0 0 0 0
0 0 0 0 0 0 0 0 0 10 3 3 3 3 3 3 3 3 0 0 0 0 0 0 0 0 0 0 0 0 0 3 3 0 0 0 0 0 0 0 0 0 0 0 0 0 0 0 0
0 0 0 0 0 0 0 0 13 3 3 3 3 3 0 0 0 0 0 0 0 0 0 0 0 0 0 0 0 0 0 0 0 0 0 0 0 0 0 0 0 0 0 0 0 0 0 0 0
0 0 0 0 0 0 0 6 10 3 3 3 3 3 0 0 0 0 0 0 0 0 0 0 0 0 0 0 0 0 0 0 0 0 0 0 0 0 0 0 0 0 0 0 0 0 0 0 0
0 0 0 0 0 0 0 0 0 0 3 3 3 0 0 0 0 0 0 0 0 0 0 0 0 0 0 0 0 0 0 0 0 0 0 0 0 0 0 0 0 0 0 0 0 0 0 0 0
0 0 0 0 0 0 0 0 0 0 0 3 0 0 0 0 0 0 0 0 0 0 0 0 0 0 0 0 0 0 0 0 0 0 0 0 0 0 0 0 0 0 0 0 0 0 0 0 0
0 0 0 0 0 0 0 0 0 0 0 0 0 0 0 0 0 0 0 0 0 0 0 0 0 0 0 0 0 0 0 0 0 0 0 0 0 0 0 0 0 0 0 0 0 0 0 0 0

GEFSSGP_con_cape1000_066.txt.gz
Probability
0 0 0 0 0 0 0 0 0 0 0 0 0 0 0 0 0 48 94 90 97 100 100 100 100 100 100 100 100 100 100 100 100 100 100 100 100 100 100 100 100 100 100 100 100 100 100 100 100
0 0 0 0 0 0 0 0 0 0 0 0 0 3 0 10 48 84 94 97 100 100 100 97 100 100 100 100 100 100 100 100 100 100 100 100 100 100 100 100 100 100 100 100 100 100 100 100 100
0 0 0 0 0 0 0 0 0 0 0 0 0 3 6 42 74 90 97 97 100 100 100 100 100 100 100 100 100 100 100 100 100 100 100 100 100 100 100 100 100 100 100 97 97 97 94 94 94
0 0 0 0 0 0 0 0 0 0 0 0 0 3 48 84 87 94 97 100 100 100 100 100 100 100 100 100 100 100 100 100 100 100 100 100 100 100 100 100 100 100 97 97 94 90 90 90 87
0 0 0 0 0 0 0 0 0 0 0 0 0 3 55 100 87 94 97 100 100 100 100 100 100 100 100 100 100 100 100 100 100 100 100 100 100 100 100 100 100 100 97 94 84 77 81 77 77
0 0 0 0 0 0 0 0 0 0 0 0 0 0 65 100 100 97 97 97 97 97 100 100 100 100 100 100 100 100 100 100 100 100 100 100 100 100 100 100 97 97 97 87 65 55 48 52 48
0 0 0 0 0 0 0 0 0 0 0 0 0 3 74 97 100 94 94 94 90 97 100 100 100 100 100 100 100 100 100 100 100 100 100 100 100 100 100 97 97 97 87 81 61 42 39 29 32
0 0 0 0 0 0 0 0 0 0 0 3 10 13 65 97 100 97 94 84 87 94 100 100 100 100 100 100 100 100 100 100 100 100 100 100 100 97 97 97 97 90 84 84 68 52 48 39 29
0 0 0 0 0 0 0 0 0 0 0 0 16 16 65 97 100 97 97 90 97 97 100 100 100 100 100 100 100 100 100 100 100 100 100 100 97 87 97 97 97 94 84 77 74 71 58 45 35
0 0 0 0 0 0 0 0 0 0 0 0 3 35 84 97 100 100 97 97 97 100 100 100 100 100 100 100 100 100 100 100 100 100 97 94 90 90 65 94 97 97 97 94 87 77 77 42 35
0 0 0 0 0 0 0 0 0 0 0 0 0 32 84 90 97 100 97 94 94 100 100 100 100 100 100 100 100 100 100 100 100 100 100 100 94 90 74 97 100 100 94 87 90 71 58 35 32
0 0 0 0 0 0 0 0 0 0 0 0 0 13 65 84 90 94 97 84 87 97 100 100 100 100 100 100 100 100 100 100 100 100 97 90 84 84 68 90 77 97 87 94 74 71 39 32 26
0 0 0 0 0 0 0 0 0 0 0 0 3 19 48 84 94 94 94 84 84 97 97 100 100 100 100 100 100 100 100 100 97 100 94 97 84 81 52 87 100 97 90 90 94 58 45 35 23
0 0 0 0 0 0 0 0 0 0 0 0 13 26 48 81 94 94 97 94 84 97 100 100 100 100 100 100 100 100 100 100 90 97 94 100 87 81 87 94 100 100 97 87 90 74 74 58 29
0 0 0 0 0 0 0 0 0 0 0 10 23 48 71 87 94 94 97 97 97 100 100 100 100 100 100 100 100 100 100 100 100 97 100 100 97 97 97 90 100 100 100 94 87 81 74 71 55
0 0 0 0 0 0 0 0 0 0 3 19 48 61 77 94 90 97 97 100 100 100 100 100 100 100 100 100 100 100 100 100 100 100 100 100 100 97 100 100 100 100 94 87 84 84 77 58 52
0 0 0 0 0 0 0 0 3 3 10 29 55 65 74 90 90 97 97 97 100 100 100 100 100 100 100 100 100 100 100 100 97 97 94 97 97 94 97 97 94 84 81 84 74 65 58 48 52
0 0 0 0 0 0 3 6 10 13 23 35 58 65 71 77 94 94 97 97 97 97 97 100 100 100 100 100 97 97 94 90 90 90 90 84 87 81 84 77 71 74 74 61 58 55 52 45 42
0 0 0 0 0 0 3 13 19 26 29 42 61 52 65 77 84 77 84 94 94 94 94 97 100 100 100 100 97 94 94 90 87 71 71 68 71 71 68 55 58 48 52 35 35 29 23 26 19
0 0 0 0 0 3 16 23 29 35 42 45 61 61 71 84 77 71 65 68 81 84 87 97 97 97 97 97 94 94 84 81 61 58 58 55 55 45 42 39 32 29 29 23 26 16 10 10 6
0 0 0 0 0 3 10 19 26 26 29 42 32 42 58 52 58 58 68 68 68 65 71 77 94 94 90 90 90 81 71 58 52 48 39 29 32 29 29 16 16 16 13 16 6 6 6 10 3
0 0 0 0 0 0 0 3 19 26 23 26 23 23 26 26 26 39 39 42 48 52 58 68 68 71 81 84 81 74 65 61 42 32 16 10 6 10 6 6 6 6 6 6 6 6 6 6 3
0 0 0 0 0 0 0 0 23 26 23 19 19 13 13 16 16 16 19 19 19 23 39 42 45 48 61 65 65 68 52 35 19 16 13 6 3 3 3 3 3 3 3 3 3 6 3 0 0
0 0 0 0 0 0 0 3 16 29 23 13 6 3 6 6 6 3 3 3 6 10 16 19 26 23 23 23 29 32 19 16 16 10 3 3 3 3 3 3 3 3 3 3 3 0 0 0 0
0 0 0 0 0 0 0 0 32 39 23 13 3 3 3 3 3 3 0 0 0 0 0 0 3 6 6 13 10 10 10 10 10 0 0 3 3 3 3 0 0 0 0 0 0 0 0 0 0
0 0 0 0 0 0 0 3 45 23 23 13 6 3 0 0 0 0 0 0 0 0 0 0 0 0 0 0 0 0 0 3 0 0 0 0 0 0 0 0 0 0 0 0 0 0 0 0 0
0 0 0 0 0 0 6 16 29 26 16 10 6 3 0 0 0 0 0 0 0 0 0 0 0 0 0 0 0 0 0 0 0 0 0 0 0 0 0 0 0 0 0 0 0 0 0 0 0
0 0 0 0 0 0 0 3 16 26 10 10 6 3 3 0 0 0 0 0 0 0 0 0 0 0 0 0 0 0 0 0 0 0 0 0 0 0 0 0 0 0 0 0 0 0 0 0 0
0 0 0 0 0 0 0 3 16 32 23 13 3 3 3 0 0 0 0 0 0 0 0 0 0 0 0 0 0 0 0 0 0 0 0 0 0 0 0 0 0 0 0 0 0 0 0 0 0
0 0 0 0 0 0 0 10 19 42 23 6 3 0 0 0 0 0 0 0 0 0 0 0 0 0 0 0 0 0 0 0 0 0 0 0 0 0 0 0 0 0 0 0 0 0 0 0 0

GEFSSGP_con_cape1000_072.txt.gz
Probability
0 0 0 0 0 0 0 0 0 0 0 0 0 0 3 13 32 65 84 87 100 100 100 100 100 100 100 100 100 100 100 100 100 100 100 100 100 100 100 100 100 100 100 100 100 100 100 100 100
0 0 0 0 0 0 0 0 0 0 0 0 0 0 6 26 45 55 84 97 100 100 100 100 100 100 100 100 100 100 100 100 100 100 100 100 100 100 100 100 100 100 100 100 100 100 100 100 100
0 0 0 0 0 0 0 0 0 0 0 0 0 0 10 42 58 84 97 100 100 100 100 100 100 100 100 100 100 100 100 100 100 100 100 100 100 100 100 100 100 100 97 97 97 97 97 100 100
0 0 0 0 0 0 0 0 0 0 0 0 0 0 39 52 68 84 100 100 100 100 100 100 100 100 100 100 100 100 100 100 100 100 100 100 100 100 100 100 97 97 97 97 94 94 94 94 94
0 0 0 0 0 0 0 0 0 0 0 0 0 6 68 68 84 97 100 100 100 100 100 100 100 100 100 100 100 100 100 100 100 100 100 100 100 100 100 100 97 97 97 87 81 84 81 77 77
0 0 0 0 0 0 0 0 0 0 0 0 0 29 74 74 90 97 100 100 100 100 100 100 100 100 100 100 100 100 100 100 100 100 100 100 100 100 100 100 97 94 84 65 61 58 58 55 58
0 0 0 0 0 0 0 0 0 0 0 0 0 29 65 68 90 97 97 100 100 100 100 100 100 100 100 100 100 100 100 100 100 100 100 100 100 100 97 97 97 87 74 58 45 45 42 39 39
0 0 0 0 0 0 0 0 0 0 0 0 0 16 61 71 90 97 97 100 100 100 100 100 100 100 100 100 100 100 100 100 100 100 100 100 100 97 97 97 94 87 74 61 48 35 32 32 35
0 0 0 0 0 0 0 0 0 0 0 0 3 35 55 58 81 94 87 90 100 97 97 100 100 100 97 100 100 100 100 100 100 100 100 100 97 97 97 97 94 84 81 68 65 52 52 58 52
0 0 0 0 0 0 0 0 0 0 0 0 6 39 68 68 77 77 84 84 100 100 97 90 97 100 97 97 100 100 100 100 100 100 100 100 100 100 97 97 100 90 87 87 77 77 77 58 39
0 0 0 0 0 0 0 0 0 0 0 0 6 42 48 71 71 74 77 84 100 100 97 90 97 100 100 100 94 100 100 100 100 100 100 100 100 100 97 94 100 97 97 90 94 84 65 48 39
0 0 0 0 0 0 0 0 0 0 0 0 6 29 45 65 71 68 77 84 90 100 100 100 100 100 100 100 100 100 100 100 100 100 100 100 100 100 97 100 94 100 100 100 100 94 81 71 55
0 0 0 0 0 0 0 0 0 0 0 0 6 19 35 48 65 77 74 81 84 90 97 100 100 100 100 100 100 100 100 100 100 100 100 100 100 100 97 100 100 100 100 100 97 94 97 81 61
0 0 0 0 0 0 0 0 0 0 0 3 10 16 26 35 61 74 77 81 94 97 97 100 100 100 100 100 100 100 100 97 97 100 100 97 100 100 100 100 100 100 97 100 94 87 87 81 81
0 0 0 0 0 0 0 0 0 0 3 3 13 23 23 45 52 71 84 90 97 100 100 100 100 100 100 100 100 100 100 100 100 100 100 100 100 100 100 100 100 100 100 100 90 84 84 77 71
0 0 0 0 0 0 0 0 3 6 6 6 16 23 35 52 55 65 77 90 97 100 100 100 100 100 100 100 100 100 97 100 100 100 100 97 100 100 100 97 97 94 90 90 90 81 81 77 74
0 0 0 0 0 0 0 6 10 10 10 10 26 32 39 52 52 68 71 90 94 97 100 100 100 100 100 100 100 97 97 94 87 87 90 90 94 94 94 94 94 90 87 81 81 81 81 77 65
0 0 0 0 0 0 3 10 10 13 19 26 26 19 19 29 32 55 65 77 90 94 97 97 97 97 100 100 94 90 90 84 84 84 81 81 84 84 84 87 84 87 77 71 71 68 58 55 32
0 0 0 0 3 3 10 16 26 35 42 45 19 23 26 45 48 52 61 68 71 77 87 94 97 97 97 100 94 90 90 77 74 77 74 65 71 71 71 71 65 55 61 58 42 39 32 26 19
0 0 0 0 3 6 23 26 42 45 42 32 29 39 42 35 45 42 45 58 65 61 68 71 77 81 94 87 87 87 81 68 61 58 52 48 48 45 45 42 32 32 32 29 23 23 23 16 10
0 0 0 0 3 10 16 23 32 29 42 39 42 32 29 32 39 42 39 35 35 45 52 55 55 55 68 77 77 77 71 58 58 45 32 26 23 16 19 16 19 19 23 16 13 10 10 6 6
0 0 0 0 3 6 0 3 23 32 23 32 19 10 16 23 19 16 19 16 19 23 29 26 29 39 45 52 61 65 61 55 39 26 16 13 3 3 6 6 6 6 3 6 10 6 10 3 3
0 0 0 0 0 0 0 0 19 23 26 16 13 16 23 16 13 13 13 13 13 13 13 13 13 13 16 26 42 42 35 26 13 10 3 3 3 3 3 3 0 0 0 0 0 0 0 0 3
0 0 0 0 0 0 0 0 10 23 10 16 16 13 10 10 6 6 6 6 6 6 6 6 6 6 6 10 13 10 13 13 10 6 3 3 3 3 0 0 0 0 0 0 0 0 3 0 0
0 0 0 0 0 0 0 0 16 26 16 16 16 10 3 3 0 0 0 3 0 0 0 0 3 0 3 3 3 3 0 0 0 3 3 0 0 0 0 0 0 0 0 0 0 0 0 0 0
0 0 0 0 0 0 0 6 32 26 16 16 10 3 3 0 0 0 0 0 0 0 0 0 0 0 0 0 0 0 0 0 0 0 0 0 0 0 0 0 0 0 0 0 0 0 0 0 0
0 0 0 0 0 0 0 29 23 23 13 6 6 3 0 0 0 0 0 0 0 0 0 0 0 0 0 0 0 0 0 0 0 0 0 0 0 0 0 0 0 0 0 0 0 0 0 0 0
0 0 0 0 0 0 0 6 19 19 6 3 0 0 0 0 0 0 0 0 0 0 0 0 0 0 0 0 0 0 0 0 0 0 0 0 0 0 0 0 0 0 0 0 0 0 0 0 0
0 0 0 0 0 0 0 0 10 13 3 0 3 3 0 0 0 0 0 0 0 0 0 0 0 0 0 0 0 0 0 0 0 0 0 0 0 0 0 0 0 0 0 0 0 0 0 0 0
0 0 0 0 0 0 0 0 6 10 3 0 0 0 0 0 0 0 0 0 0 0 0 0 0 0 0 0 0 0 0 0 0 0 0 0 0 0 0 0 0 0 0 0 0 0 0 0 0

GEFSSGP_con_cape1000_078.txt.gz
Probability
0 0 0 0 0 0 0 0 0 0 0 0 0 3 0 3 10 6 26 71 84 97 100 100 100 100 100 100 100 100 100 100 100 100 100 100 100 100 100 100 100 100 100 100 100 100 100 100 100
0 0 0 0 0 0 0 0 0 0 0 0 0 6 23 26 39 65 81 84 87 97 100 100 100 100 100 100 100 100 100 100 100 100 100 100 100 100 100 100 100 100 100 100 100 100 100 100 100
0 0 0 0 0 0 0 0 0 0 0 0 0 6 19 39 55 87 87 90 90 97 100 100 100 100 100 100 100 100 100 100 100 100 100 100 100 100 100 100 100 100 100 100 100 100 97 97 97
0 0 0 0 0 0 0 0 0 0 0 0 0 16 32 45 77 94 94 90 94 97 97 100 100 100 100 100 100 100 100 100 100 100 100 100 100 100 100 100 100 100 97 97 97 94 94 94 94
0 0 0 0 0 0 0 0 0 0 0 0 3 26 42 65 94 100 97 94 87 97 100 100 100 100 100 100 100 100 100 100 100 100 100 100 100 100 100 97 97 97 97 94 94 87 87 84 84
0 0 0 0 0 0 0 0 0 0 0 3 3 19 35 71 94 100 100 90 94 97 100 100 100 100 100 100 100 100 100 100 100 100 100 100 100 100 100 97 97 97 97 87 77 77 71 55 58
0 0 0 0 0 0 0 0 0 0 0 0 6 23 39 74 84 94 100 97 97 100 100 100 100 100 100 100 100 100 100 100 100 100 100 100 100 100 100 97 94 94 81 65 58 58 55 52 55
0 0 0 0 0 0 0 0 0 0 0 0 13 23 39 71 81 87 100 100 100 100 100 100 100 100 100 100 100 100 100 100 100 100 100 100 100 100 100 97 97 87 77 61 55 58 52 52 45
0 0 0 0 0 0 0 0 0 0 0 0 3 16 29 58 74 90 90 100 100 100 100 100 100 100 100 100 100 100 100 100 100 100 100 100 97 97 97 97 97 90 84 71 65 65 65 68 55
0 0 0 0 0 0 0 0 0 0 0 3 6 19 35 52 71 81 90 94 97 100 100 100 100 100 100 100 100 100 100 100 100 100 100 97 87 77 90 94 97 94 90 90 87 81 68 61 19
0 0 0 0 0 0 0 0 0 0 0 3 16 32 45 55 71 68 84 84 90 94 97 100 100 100 97 100 97 97 94 90 87 94 97 58 32 52 65 68 87 90 90 77 74 68 68 29 10
0 0 0 0 0 0 0 0 0 3 0 3 19 29 52 58 65 65 65 71 77 84 87 90 90 90 84 94 90 87 74 65 45 55 55 16 6 19 26 45 55 58 45 29 23 23 23 13 6
0 0 0 0 0 0 0 0 0 3 3 6 16 29 45 48 48 55 65 68 61 68 74 77 81 77 74 68 65 61 52 48 32 32 23 13 6 10 26 32 29 32 19 16 10 6 6 10 6
0 0 0 0 0 0 3 3 6 3 0 13 23 16 19 29 39 42 48 52 52 45 55 68 71 68 58 61 52 45 39 29 19 32 35 26 19 16 32 39 23 19 16 13 3 6 10 6 3
0 0 0 0 0 0 3 3 10 3 3 13 16 23 29 32 29 42 39 35 39 42 52 61 65 58 55 39 32 42 42 39 26 48 55 48 32 23 23 26 19 10 10 13 3 3 0 3 0
0 0 0 0 0 0 3 6 6 6 6 16 13 16 23 23 26 29 35 29 39 42 35 42 61 48 55 42 48 71 71 48 39 65 65 58 45 32 32 10 13 6 3 6 3 0 0 3 3
0 0 0 0 0 0 3 10 10 6 3 10 10 13 13 23 16 19 29 26 29 39 35 45 48 58 52 52 61 65 61 42 42 42 45 35 42 39 29 16 6 0 0 0 10 0 0 0 0
0 0 0 0 3 3 3 16 13 10 6 3 3 10 10 10 13 13 19 23 23 26 29 45 48 48 61 61 55 55 45 39 26 26 26 19 29 29 23 13 10 3 3 0 0 0 0 0 0
0 0 3 3 3 3 6 13 16 10 3 10 6 6 10 13 13 10 10 16 16 23 29 32 39 39 45 52 55 52 39 23 19 16 19 16 13 10 13 13 10 10 6 3 3 0 0 0 0
0 0 3 3 13 3 3 16 26 13 16 16 13 13 10 6 6 6 10 10 13 10 23 19 19 23 32 35 39 39 29 13 16 13 6 6 6 3 0 0 0 0 3 3 6 3 0 0 0
0 0 0 3 10 3 3 19 26 16 16 13 10 6 6 6 3 0 3 3 3 6 13 13 16 13 10 6 19 32 23 13 6 0 3 3 3 3 0 0 0 0 0 0 0 0 0 0 0
0 0 0 0 0 0 0 0 26 13 13 13 6 6 3 3 0 0 3 3 3 3 3 6 10 10 10 3 10 16 16 6 0 0 3 3 3 0 0 0 0 0 0 0 0 0 0 0 0
0 0 0 0 0 0 0 0 16 13 10 13 10 6 0 0 0 0 0 3 3 3 3 3 3 6 6 3 3 6 3 0 0 0 0 0 0 0 0 0 0 0 0 0 0 0 0 0 0
0 0 0 0 0 0 0 0 3 13 10 6 6 3 0 0 0 0 0 0 3 3 3 3 3 3 3 3 3 0 0 0 0 0 0 0 0 0 0 0 0 0 0 0 0 0 0 0 0
0 0 0 0 0 0 0 0 3 10 10 3 0 0 0 0 0 0 0 0 0 3 3 3 3 0 0 0 0 0 0 0 0 0 0 0 0 0 0 0 0 0 0 0 0 0 0 0 0
0 0 0 0 0 0 0 3 13 6 0 0 0 0 0 0 0 0 0 0 0 0 0 0 0 0 0 0 0 0 0 0 0 0 0 0 0 0 0 0 0 0 0 0 0 0 0 0 0
0 0 0 0 0 0 0 3 6 0 0 0 0 0 0 0 0 0 0 0 0 0 0 0 0 0 0 0 0 0 0 0 0 0 0 0 0 0 0 0 0 0 0 0 0 0 0 0 0
0 0 0 0 0 0 0 3 3 0 0 0 0 0 0 0 0 0 0 0 0 0 0 0 0 0 0 0 0 0 0 0 0 0 0 0 0 0 0 0 0 0 0 0 0 0 0 0 0
0 0 0 0 0 0 0 0 0 0 0 0 0 0 0 0 0 0 0 0 0 0 0 0 0 0 0 0 0 0 0 0 0 0 0 0 0 0 0 0 0 0 0 0 0 0 0 0 0
0 0 0 0 0 0 0 0 0 0 0 0 0 0 0 0 0 0 0 0 0 0 0 0 0 0 0 0 0 0 0 0 0 0 0 0 0 0 0 0 0 0 0 0 0 0 0 0 0

GEFSSGP_con_cape1000_084.txt.gz
Probability
0 0 0 0 0 0 0 0 0 0 0 0 0 0 0 0 0 3 10 52 77 97 100 100 100 100 100 100 100 100 100 100 100 100 100 100 100 100 100 100 100 100 100 100 100 100 100 100 100
0 0 0 0 0 0 0 0 0 0 0 0 0 0 10 16 26 55 71 71 87 97 100 100 100 100 100 100 100 100 100 100 100 100 100 100 100 100 100 100 100 100 100 100 100 100 100 100 100
0 0 0 0 0 0 0 0 0 0 0 0 0 16 19 19 39 71 84 84 87 97 100 100 100 100 100 100 100 100 100 100 100 100 100 100 100 100 100 100 100 100 100 100 100 100 100 100 100
0 0 0 0 0 0 0 0 0 0 0 0 13 19 19 29 55 77 87 87 87 100 100 100 100 100 100 100 100 100 100 100 100 100 100 100 100 100 100 100 100 100 100 97 97 97 97 94 94
0 0 0 0 0 0 0 0 0 0 0 0 13 19 23 61 65 77 90 90 84 100 100 100 100 100 100 100 100 100 100 100 100 100 100 100 100 100 100 100 100 97 97 97 97 94 94 94 94
0 0 0 0 0 0 0 0 0 0 0 6 10 19 45 65 77 84 84 87 90 100 100 100 100 100 100 100 100 100 100 100 100 100 100 100 100 100 100 97 97 97 97 90 90 84 81 81 81
0 0 0 0 0 0 0 0 0 0 0 0 6 16 55 74 81 90 84 90 94 100 100 100 100 100 100 100 100 100 100 100 100 100 100 100 100 97 97 97 97 97 87 81 74 77 71 65 61
0 0 0 0 0 0 0 0 0 0 0 3 10 19 48 74 84 90 87 94 97 100 100 100 100 100 100 100 100 100 100 100 100 100 100 100 100 97 97 97 97 87 77 77 68 65 61 58 58
0 0 0 0 0 0 0 0 0 0 0 3 10 23 42 84 87 84 87 90 94 94 94 97 97 100 100 100 100 100 100 100 100 100 100 100 97 94 94 90 87 81 74 65 58 58 68 68 61
0 0 0 0 0 0 0 0 0 0 0 3 10 23 65 77 84 84 87 90 90 90 87 90 94 97 97 97 100 100 100 100 100 100 97 94 81 81 84 84 90 84 77 71 74 74 81 61 29
0 0 0 0 0 0 0 0 0 0 0 6 10 26 61 84 77 84 90 90 87 84 84 87 87 87 87 90 97 100 100 97 97 94 94 71 65 65 74 55 74 81 84 71 65 58 48 39 32
0 0 0 0 0 0 0 0 3 0 0 3 10 29 55 74 77 74 71 81 84 84 84 84 87 87 84 87 94 94 94 97 90 87 77 61 45 39 39 39 48 61 58 48 42 26 26 19 16
0 0 0 3 3 3 3 0 0 0 3 10 29 39 52 68 71 65 71 74 77 77 77 81 81 77 77 81 81 87 87 84 71 77 61 45 29 26 23 19 29 35 35 29 23 16 13 13 13
0 0 0 3 3 3 3 0 0 0 3 16 29 39 45 48 58 58 65 68 71 71 68 71 71 74 71 77 74 74 68 55 55 48 52 35 19 10 6 3 13 19 19 23 19 10 6 6 3
0 0 0 3 3 3 0 0 0 0 6 16 23 26 35 35 45 48 55 55 55 61 55 61 65 65 68 58 52 42 39 32 32 29 26 32 13 0 0 0 0 13 6 6 10 6 0 0 0
0 0 0 0 0 0 0 3 6 0 3 6 16 26 26 29 42 39 48 42 35 39 39 48 58 48 45 42 32 26 23 16 13 6 13 13 10 3 0 0 0 6 3 3 3 0 0 0 0
0 0 0 0 0 3 0 3 6 0 6 10 16 13 29 29 26 35 32 26 29 32 35 35 39 39 35 32 26 13 6 6 3 3 6 10 13 6 3 3 3 0 0 0 0 0 0 0 0
0 0 0 3 0 0 0 0 0 0 3 13 16 19 16 16 19 23 19 16 16 19 23 29 23 16 16 16 10 3 0 0 0 3 0 0 0 10 0 0 0 0 0 0 0 0 0 0 0
0 0 3 3 0 0 0 0 10 0 3 6 13 13 13 10 6 6 16 13 10 13 13 19 10 13 13 6 10 6 3 0 0 0 0 3 0 3 3 0 0 0 0 0 0 0 0 0 0
0 0 3 3 0 0 0 6 10 6 6 6 6 10 10 6 6 6 10 6 13 16 10 6 6 6 6 3 0 3 3 3 0 0 0 0 3 0 0 0 0 0 0 0 0 0 0 0 0
0 0 0 0 3 0 0 3 3 6 6 6 3 3 6 3 6 6 6 6 10 10 6 10 6 6 3 0 0 0 3 3 0 0 0 0 0 0 0 0 0 0 0 0 0 0 0 0 0
0 0 3 3 0 0 0 0 0 6 0 3 0 0 3 3 3 3 3 3 3 6 6 6 6 6 0 0 0 0 0 0 0 0 0 0 0 0 0 0 0 0 0 0 0 0 0 0 0
0 0 0 0 0 0 0 0 0 3 0 3 3 3 3 3 3 0 0 0 3 3 3 3 3 6 0 0 0 0 0 0 0 0 0 0 0 0 0 0 0 0 0 0 0 0 0 0 0
0 0 0 0 0 0 0 0 0 0 0 0 3 0 0 0 0 0 0 0 3 3 3 3 3 0 0 0 0 0 0 0 0 0 0 0 0 0 0 0 0 0 0 0 0 0 0 0 0
0 0 0 0 0 0 0 0 0 6 0 0 0 0 0 0 0 0 0 0 0 3 3 3 3 0 0 0 0 0 0 0 0 0 0 0 0 0 0 0 0 0 0 0 0 0 0 0 0
0 0 0 0 0 0 0 0 3 0 0 0 0 0 0 0 0 0 0 0 0 0 3 3 3 0 0 0 0 0 0 0 0 0 0 0 0 0 0 0 0 0 0 0 0 0 0 0 0
0 0 0 0 0 0 0 3 6 3 0 0 0 0 0 0 0 0 0 0 0 0 3 0 0 0 0 0 0 0 0 0 0 0 0 0 0 0 0 0 0 0 0 0 0 0 0 0 0
0 0 0 0 0 0 0 0 0 3 0 0 0 0 0 0 0 0 0 0 0 0 0 0 0 0 0 0 0 0 0 0 0 0 0 0 0 0 0 0 0 0 0 0 0 0 0 0 0
0 0 0 0 0 0 0 0 0 0 0 0 0 0 0 0 0 0 0 0 0 0 0 0 0 0 0 0 0 0 0 0 0 0 0 0 0 0 0 0 0 0 0 0 0 0 0 0 0
0 0 0 0 0 0 0 0 0 0 0 0 0 0 0 0 0 0 0 0 0 0 0 0 0 0 0 0 0 0 0 0 0 0 0 0 0 0 0 0 0 0 0 0 0 0 0 0 0

GEFSSGP_con_cape1000_090.txt.gz
Probability
0 0 0 0 0 0 0 0 0 0 0 0 0 3 3 6 3 32 81 90 90 90 97 100 100 100 100 100 100 100 100 100 100 100 100 100 100 100 100 100 100 100 100 100 100 97 100 100 100
0 0 0 0 0 0 0 0 0 0 0 0 0 10 13 13 23 55 84 97 94 94 97 94 100 100 100 100 100 100 100 100 100 100 100 100 100 100 100 100 100 100 100 100 97 97 100 100 100
0 0 0 0 0 0 0 0 0 0 0 0 0 6 10 16 45 74 90 100 100 97 97 100 100 100 100 100 100 100 100 100 100 100 100 100 100 100 100 100 100 100 100 100 100 100 100 100 100
0 0 0 0 0 0 0 0 0 0 0 0 0 10 16 35 65 84 94 97 100 97 97 100 100 100 100 100 100 100 100 100 100 100 100 100 100 100 100 100 100 100 100 100 100 100 100 97 94
0 0 0 0 0 0 0 0 0 0 0 0 0 0 26 48 71 90 100 97 100 97 97 100 100 100 100 100 100 100 100 100 100 100 100 100 100 100 100 100 100 100 97 97 97 97 94 94 94
0 0 0 0 0 0 0 0 0 0 0 0 0 0 16 65 77 87 90 100 100 97 90 100 100 100 100 100 100 100 100 100 100 100 100 100 100 100 100 100 97 97 97 94 94 97 90 94 90
0 0 0 0 0 0 0 0 0 0 0 0 3 6 19 71 81 94 97 97 97 94 94 100 100 100 100 100 100 100 100 100 100 100 100 100 100 100 100 97 97 97 100 90 87 77 68 65 68
0 0 0 0 0 0 0 0 0 0 0 3 6 10 26 74 90 97 97 100 100 94 100 100 100 97 97 97 100 100 100 100 100 100 100 100 100 97 97 97 97 97 90 81 68 61 55 55 52
0 0 0 0 0 0 0 0 0 0 3 6 13 16 45 81 94 100 97 97 97 100 100 100 90 94 94 94 97 100 100 100 100 100 100 100 97 90 94 94 94 81 71 61 61 58 61 55 52
0 0 0 0 0 0 0 0 0 3 3 0 13 26 61 84 97 100 97 97 97 97 97 94 90 94 94 97 97 100 100 100 100 100 100 100 100 97 58 68 81 81 71 65 61 71 65 45 52
0 0 0 0 0 0 0 0 0 3 0 0 10 26 45 61 87 97 90 94 97 94 94 87 87 94 94 94 97 97 97 100 100 94 94 94 97 94 71 77 81 90 77 61 74 65 45 26 42
0 0 0 0 0 0 0 0 0 3 6 10 10 26 42 61 71 87 87 90 94 87 84 84 84 81 84 94 90 90 94 90 90 94 90 94 94 90 81 94 68 81 74 71 61 65 42 35 26
0 0 0 0 0 0 0 0 3 3 10 13 26 32 39 52 71 84 87 90 87 84 84 81 81 87 87 84 87 77 90 87 87 94 90 90 87 90 84 81 84 68 71 84 81 52 52 45 26
0 0 0 0 0 0 0 0 3 6 10 13 26 32 35 39 61 77 90 87 87 84 84 77 74 81 84 81 84 84 81 81 77 81 84 81 84 84 87 81 87 74 74 74 81 61 71 61 52
0 0 0 0 0 0 0 0 3 10 13 16 29 35 32 39 55 58 71 81 77 81 77 77 77 81 81 77 81 74 77 74 68 71 84 77 81 77 84 84 87 90 94 90 77 81 81 71 65
0 0 0 0 3 3 0 0 3 16 16 23 29 35 39 39 42 48 55 68 71 74 68 71 71 74 77 77 74 61 65 61 61 68 74 68 71 74 81 84 77 84 84 84 77 61 65 58 39
0 0 0 0 3 3 0 3 6 19 23 26 32 32 29 26 39 45 45 48 65 65 68 65 77 74 68 58 52 39 45 48 55 58 58 58 65 74 71 68 71 74 74 68 55 58 52 45 35
0 0 0 0 3 3 3 6 6 10 26 29 23 23 23 19 29 32 39 42 42 45 58 58 61 65 52 52 48 42 35 32 29 35 29 32 45 48 58 55 55 58 55 55 52 48 42 35 35
0 0 0 0 3 3 10 6 19 13 19 23 26 23 13 13 23 26 23 29 32 32 29 39 52 52 42 52 45 39 32 26 19 19 23 23 19 19 32 32 45 42 45 48 39 35 29 26 26
0 0 0 3 3 6 10 10 10 13 19 16 16 16 10 13 16 19 19 19 19 23 26 26 26 35 39 45 45 39 23 13 10 13 16 13 16 23 23 26 16 16 26 23 19 23 23 16 10
0 0 0 3 3 3 13 13 13 13 10 13 16 13 13 13 16 16 19 19 16 23 23 26 19 26 29 29 23 16 13 3 6 6 10 6 10 13 13 13 13 10 10 10 6 6 10 6 0
0 0 0 3 0 0 0 0 16 16 6 10 10 10 10 16 13 16 16 16 13 16 16 19 19 13 16 16 23 16 13 3 3 3 0 0 3 6 6 6 3 6 6 6 3 0 0 0 0
0 0 0 0 0 0 0 0 6 23 13 10 16 13 3 6 6 13 16 19 13 13 10 13 16 10 10 10 16 23 10 3 0 0 0 0 0 0 3 3 3 3 3 0 0 0 0 0 0
0 0 3 0 0 0 0 0 3 26 10 16 13 6 6 10 10 13 13 16 13 10 16 16 10 10 10 10 6 10 6 0 0 0 0 0 0 0 0 0 0 0 0 0 0 0 0 0 0
0 0 0 0 0 0 0 0 10 32 29 26 10 6 3 3 3 0 0 3 6 6 10 6 10 10 6 6 6 6 3 0 0 0 0 0 0 0 0 0 0 0 0 0 0 0 0 0 0
0 0 0 0 0 0 0 0 35 45 26 16 10 6 0 0 0 0 0 0 3 6 3 6 6 6 6 6 6 3 0 0 0 0 0 0 0 0 0 0 0 0 0 0 0 0 0 0 0
0 0 0 0 0 0 0 10 29 26 16 10 3 0 0 0 0 0 0 0 0 0 3 3 3 6 6 3 0 0 0 0 0 0 0 0 0 0 0 0 0 0 0 0 0 0 0 0 0
0 0 0 0 0 0 0 0 13 23 16 6 3 0 0 0 0 0 0 0 0 0 0 0 0 3 3 0 0 0 0 0 0 0 0 0 0 0 0 0 0 0 0 0 0 0 0 0 0
0 0 0 0 0 0 0 0 3 29 23 6 6 0 0 0 0 0 0 0 0 0 0 0 0 0 0 0 0 0 0 0 0 0 0 0 0 0 0 0 0 0 0 0 0 0 0 0 0
0 0 0 0 0 0 0 3 19 23 16 10 6 0 0 0 0 0 0 0 0 0 0 0 0 0 0 0 0 0 0 0 0 0 0 0 0 0 0 0 0 0 0 0 0 0 0 0 0

GEFSSGP_con_cape1000_096.txt.gz
Probability
0 0 0 0 0 0 0 0 0 0 0 0 0 3 10 10 19 55 74 65 100 100 100 100 100 100 100 100 100 100 100 100 100 100 100 100 100 100 100 100 100 100 100 100 100 100 100 100 100
0 0 0 0 0 0 0 0 0 0 0 0 0 3 6 13 39 71 90 90 100 100 100 100 100 100 100 100 100 100 100 100 100 100 100 100 100 100 100 100 100 100 100 97 97 97 100 100 100
0 0 0 0 0 0 0 0 0 0 0 0 0 0 3 16 39 74 97 97 100 100 100 100 100 100 100 100 100 100 100 100 100 100 100 100 100 100 100 100 100 100 100 97 97 100 100 100 100
0 0 0 0 0 0 0 0 0 0 0 0 0 3 16 19 39 84 100 100 100 100 100 100 100 100 100 100 100 100 100 100 100 100 100 100 100 100 100 100 100 100 100 100 100 100 100 97 97
0 0 0 0 0 0 0 0 0 0 0 0 0 3 26 26 65 90 100 100 100 100 100 100 100 100 100 100 100 100 100 100 100 100 100 100 100 100 100 100 100 100 100 100 100 97 97 94 94
0 0 0 0 0 0 0 0 0 0 0 0 0 3 29 42 77 90 97 100 100 100 100 100 100 100 100 100 100 100 100 100 100 100 100 100 100 100 100 100 100 100 100 97 100 97 94 90 90
0 0 0 0 0 0 0 0 0 0 0 0 0 3 29 48 74 87 94 97 97 100 100 100 100 100 100 100 100 100 100 100 100 100 100 100 100 100 100 100 100 100 100 97 87 90 84 84 81
0 0 0 0 0 0 0 0 0 0 0 0 0 6 42 65 68 81 94 94 97 100 100 100 100 100 100 100 100 100 100 100 100 100 100 100 100 100 100 100 100 100 97 90 87 84 74 74 74
0 0 0 0 0 0 0 0 0 0 0 0 6 19 58 61 61 74 87 90 97 97 100 94 94 100 100 100 97 97 100 100 100 100 100 100 100 97 94 97 97 94 97 84 84 81 77 74 71
0 0 0 0 0 0 0 0 0 0 0 3 13 13 52 61 65 77 84 90 94 87 87 90 94 94 94 90 97 97 97 97 97 100 100 97 94 94 90 94 94 94 90 90 77 87 81 65 52
0 0 0 0 0 0 0 0 0 0 0 10 19 19 32 45 58 71 87 87 90 90 90 90 87 90 90 94 90 94 94 97 97 94 94 97 94 90 90 84 87 87 87 77 84 77 55 48 48
0 0 0 0 0 0 0 0 3 3 10 16 13 16 26 32 45 68 77 90 90 90 87 87 87 84 84 87 94 81 81 84 87 90 90 90 87 84 84 84 68 74 61 81 81 74 55 48 45
0 0 0 0 0 0 0 0 3 6 6 13 13 26 32 39 48 61 71 81 77 81 87 84 81 84 84 87 87 84 84 84 84 81 81 81 81 84 77 71 61 68 68 68 74 77 61 48 48
0 0 0 0 0 0 0 0 3 6 6 13 19 26 29 35 52 65 71 77 77 74 74 81 74 74 84 81 84 87 87 84 71 68 71 65 68 68 81 71 74 71 68 55 61 74 74 65 68
0 0 0 0 0 0 0 0 3 10 13 13 13 26 39 32 35 45 55 68 65 68 77 74 74 74 77 77 74 74 81 68 55 55 52 52 45 55 55 65 74 71 74 74 74 71 71 61 68
0 0 0 0 0 0 0 0 10 6 13 13 26 39 32 32 35 35 55 55 61 65 74 71 74 77 74 77 74 71 65 58 48 48 39 29 39 45 55 52 55 65 68 71 77 71 61 61 55
0 0 0 0 0 0 0 0 6 10 6 16 35 35 32 35 35 39 52 55 58 55 61 61 74 74 68 58 55 55 52 39 42 42 29 29 32 32 45 45 42 48 55 61 48 61 55 45 35
0 0 0 0 0 0 0 3 6 10 10 19 42 32 32 32 26 29 42 42 45 55 55 55 58 61 48 45 48 39 39 32 32 29 23 23 23 23 29 35 35 39 35 39 42 45 45 35 26
0 0 0 0 0 0 0 3 10 10 13 29 39 29 29 23 23 32 35 39 45 52 52 48 45 39 39 52 48 35 26 26 23 26 19 19 16 13 16 23 29 29 26 23 26 29 16 26 13
0 0 0 0 0 0 0 3 6 13 19 23 39 29 26 23 23 29 32 32 35 35 35 39 42 39 35 39 39 39 26 26 19 16 16 16 13 13 16 16 19 19 19 19 16 16 16 6 6
0 0 0 0 0 0 0 3 6 10 13 26 29 23 26 23 23 23 29 29 26 26 23 29 29 29 32 35 35 32 26 16 13 6 6 6 6 6 10 6 6 13 10 10 3 0 3 3 0
0 0 0 0 0 0 0 0 10 6 6 23 19 19 16 19 26 16 19 19 19 26 26 29 26 26 26 32 35 29 26 10 6 3 3 3 3 6 6 6 6 6 6 3 3 0 0 0 0
0 0 0 0 0 0 0 0 6 6 6 16 23 19 23 13 16 16 16 19 19 19 19 19 19 19 19 19 23 23 10 10 3 3 3 0 0 0 0 6 3 3 3 3 0 0 0 0 0
0 0 0 0 0 0 0 0 0 3 3 16 23 23 13 10 13 10 10 10 16 16 16 13 13 16 16 16 10 6 6 6 3 3 0 0 0 0 0 0 0 0 0 0 0 0 0 0 0
0 0 0 0 0 0 0 0 0 10 16 19 16 16 10 3 3 6 6 3 3 6 10 6 6 13 10 6 6 6 6 3 3 0 0 0 0 0 0 0 0 0 0 0 0 0 0 0 0
0 0 0 0 0 0 0 0 16 29 29 26 13 6 3 3 3 3 3 3 3 3 6 3 3 6 3 3 6 3 3 3 0 0 0 0 0 0 0 0 0 0 0 0 0 0 0 0 0
0 0 0 0 0 0 0 0 13 10 10 10 6 3 3 3 0 0 0 0 0 0 0 3 3 3 3 3 3 3 3 0 0 0 0 0 0 0 0 0 0 0 0 0 0 0 0 0 0
0 0 0 0 0 0 0 0 6 13 0 0 3 6 0 0 0 0 0 0 0 0 0 0 0 3 3 3 3 0 0 0 0 0 0 0 0 0 0 0 0 0 0 0 0 0 0 0 0
0 0 0 0 0 0 0 0 0 6 6 0 0 0 0 0 0 0 0 0 0 0 0 0 0 0 0 0 0 0 0 0 0 0 0 0 0 0 0 0 0 0 0 0 0 0 0 0 0
0 0 0 0 0 0 0 0 0 10 3 0 0 0 0 0 0 0 0 0 0 0 0 0 0 0 0 0 0 0 0 0 0 0 0 0 0 0 0 0 0 0 0 0 0 0 0 0 0

GEFSSGP_con_cape1000_102.txt.gz
Probability
0 0 0 0 0 0 0 0 0 0 0 0 0 3 6 10 13 16 23 58 84 97 100 100 100 100 100 100 100 100 100 100 100 100 100 100 100 100 100 100 100 100 100 100 100 100 100 100 100
0 0 0 0 0 0 0 0 0 0 0 0 10 16 39 52 45 48 55 68 87 94 100 100 100 100 100 100 100 100 100 100 100 100 100 100 100 100 100 100 100 100 100 100 100 100 100 100 100
0 0 0 0 0 0 0 0 0 0 0 0 3 23 39 74 58 58 65 74 87 94 100 100 100 100 100 100 100 100 100 100 100 100 100 100 100 100 100 100 100 100 100 100 100 100 97 97 100
0 0 0 0 0 0 0 0 0 0 0 0 10 16 32 61 68 74 81 90 94 97 100 100 100 100 100 100 100 100 100 100 100 100 100 100 100 100 100 100 100 100 97 100 100 100 97 94 97
0 0 0 0 0 0 0 0 0 0 0 3 10 19 26 61 77 90 87 90 94 100 100 100 100 100 100 100 100 100 100 100 100 100 100 100 100 100 100 100 100 100 100 100 100 100 97 97 94
0 0 0 0 0 0 0 0 0 0 0 0 13 19 32 61 90 87 94 94 97 97 100 100 100 100 100 100 100 100 100 100 100 100 100 100 100 100 100 100 100 100 100 100 100 100 100 97 90
0 0 0 0 0 0 0 0 0 0 3 6 13 19 48 65 84 87 90 94 97 97 97 94 97 100 100 100 100 100 100 100 100 100 100 100 100 100 100 100 100 100 100 100 100 100 97 94 94
0 0 0 0 0 0 0 0 0 0 10 10 19 35 48 68 68 84 81 84 87 90 94 94 90 90 97 97 100 100 100 100 100 100 100 100 100 100 100 100 100 100 100 100 100 100 94 87 81
0 0 0 0 0 0 0 0 3 10 13 13 26 35 45 68 81 84 81 81 87 87 87 87 87 87 90 94 97 97 97 100 100 100 100 100 97 97 97 97 97 97 97 94 94 94 90 84 74
0 0 0 0 0 0 0 0 3 13 19 23 35 42 55 71 81 77 81 84 84 84 84 84 87 87 90 90 87 90 94 94 94 94 97 94 94 87 90 97 97 97 94 94 87 84 84 81 45
0 0 0 0 0 0 0 3 6 13 29 35 35 45 48 61 68 68 65 65 68 71 71 71 77 84 84 84 87 87 84 84 84 84 84 81 77 81 81 81 90 87 84 77 74 74 68 52 35
0 0 0 0 0 0 0 6 6 19 29 26 35 45 39 42 42 52 52 55 55 58 45 58 68 68 74 77 81 81 77 77 74 71 77 71 45 42 39 52 65 58 45 45 35 35 32 29 10
0 0 0 0 0 0 0 3 10 16 29 29 29 45 39 39 35 42 45 48 48 42 39 42 45 45 52 55 71 74 65 68 65 65 58 42 32 26 23 26 16 29 23 16 16 16 19 6 3
0 0 0 0 0 0 0 3 3 13 23 26 29 39 39 35 35 42 39 29 29 32 26 29 35 35 45 45 48 35 45 35 32 32 39 32 26 19 16 13 3 3 3 6 6 10 10 3 3
0 0 0 0 0 0 0 0 6 13 23 26 35 35 35 29 29 29 35 39 26 26 32 32 32 29 29 32 26 26 19 19 13 23 23 16 10 10 10 10 3 3 3 3 3 3 3 3 3
0 0 0 0 0 0 0 0 6 16 26 29 29 35 35 29 26 26 35 42 29 23 26 23 32 26 23 13 13 16 13 10 3 10 13 13 10 10 6 6 6 3 3 3 0 0 0 0 0
0 0 0 0 0 0 0 0 6 16 26 32 35 35 32 19 16 19 26 26 35 29 19 19 19 16 19 10 10 13 13 13 6 3 10 10 10 6 6 6 6 6 3 3 3 0 0 0 0
0 0 0 0 0 0 0 3 13 23 29 29 29 32 29 16 19 23 16 16 16 16 10 6 16 10 10 6 6 6 6 6 6 3 10 10 10 6 6 6 3 3 3 0 0 0 0 0 0
0 0 0 0 0 0 0 3 10 19 29 26 26 23 26 26 23 23 16 23 19 19 16 10 6 6 3 0 0 6 6 6 6 0 3 3 6 6 6 6 3 3 0 0 0 0 0 0 0
0 0 0 0 0 0 0 3 6 23 26 19 23 26 23 26 23 16 16 16 26 23 13 13 6 6 0 0 0 3 6 6 3 0 3 3 3 6 6 3 3 3 3 0 0 0 0 0 0
0 0 0 0 0 0 0 3 6 10 23 23 19 19 19 16 19 10 10 10 13 13 10 13 6 6 6 3 3 3 6 6 3 3 3 3 3 3 3 3 3 3 3 3 0 0 0 0 0
0 0 0 0 0 0 0 0 3 13 26 19 10 10 6 6 3 6 6 10 10 10 10 3 3 3 6 6 3 6 6 6 3 3 3 3 3 0 0 0 0 3 0 0 0 0 0 0 0
0 0 0 0 0 0 0 0 0 6 3 13 3 6 3 3 3 3 6 6 6 6 3 0 3 3 3 6 3 3 3 3 3 3 3 3 0 0 0 0 0 0 0 0 0 0 0 0 0
0 0 0 0 0 0 0 0 0 3 3 0 6 3 3 3 3 3 3 3 6 3 3 0 3 3 3 3 0 3 3 3 0 0 0 0 0 0 0 0 0 0 0 0 0 0 0 0 0
0 0 0 0 0 0 0 0 0 0 0 3 3 3 3 3 3 3 3 3 3 3 0 0 3 3 3 3 0 3 3 3 3 0 0 0 0 0 0 0 0 0 0 0 0 0 0 0 0
0 0 0 0 0 0 0 0 3 0 0 0 0 0 0 0 0 0 0 3 0 0 0 0 0 3 3 0 0 0 3 3 0 0 0 0 0 0 0 0 0 0 0 0 0 0 0 0 0
0 0 0 0 0 0 0 0 0 0 0 0 0 0 0 0 0 0 0 0 0 0 0 0 0 0 0 0 0 0 3 0 0 0 0 0 0 0 0 0 0 0 0 0 0 0 0 0 0
0 0 0 0 0 0 0 0 0 0 0 0 0 0 0 0 0 0 0 0 0 0 0 0 0 0 0 0 0 0 0 0 0 0 0 0 0 0 0 0 0 0 0 0 0 0 0 0 0
0 0 0 0 0 0 0 0 0 0 0 0 0 0 0 0 0 0 0 0 0 0 0 0 0 0 0 0 0 0 0 0 0 0 0 0 0 0 0 0 0 0 0 0 0 0 0 0 0
0 0 0 0 0 0 0 0 0 0 0 0 0 0 0 0 0 0 0 0 0 0 0 0 0 0 0 0 0 0 0 0 0 0 0 0 0 0 0 0 0 0 0 0 0 0 0 0 0

GEFSSGP_con_cape1000_108.txt.gz
Probability
0 0 0 0 0 0 0 0 0 0 0 3 6 3 13 6 6 3 6 52 68 94 100 100 100 100 100 100 100 100 100 100 100 100 100 100 100 100 100 100 100 100 100 100 100 100 100 100 100
0 0 0 0 0 0 0 0 0 0 0 3 6 6 13 19 13 16 45 65 81 97 100 100 100 100 100 100 100 100 100 100 100 100 100 100 100 100 100 100 100 100 100 100 100 100 100 100 100
0 0 0 0 0 0 0 0 0 0 0 3 6 16 26 29 48 45 55 77 84 100 100 100 100 100 100 100 100 100 100 100 100 100 100 100 100 100 100 100 100 100 100 100 100 100 100 100 100
0 0 0 0 0 0 0 0 0 0 0 3 16 29 39 71 58 58 81 81 90 97 100 100 100 100 100 100 100 100 100 100 100 100 100 100 100 100 100 100 100 100 100 100 100 100 100 100 100
0 0 0 0 0 0 0 0 0 0 0 3 19 35 48 81 84 81 81 74 90 97 97 97 100 100 100 100 100 100 100 100 100 100 100 100 100 100 100 100 100 100 100 100 100 100 100 100 100
0 0 0 0 0 0 0 0 0 0 3 3 26 39 52 87 87 84 77 71 90 94 90 94 97 97 100 100 100 100 100 100 100 100 100 100 100 100 100 100 100 100 100 100 100 100 100 100 100
0 0 0 0 0 0 0 0 0 3 6 13 32 45 65 90 87 84 84 77 87 90 90 90 90 90 94 100 100 100 100 100 100 100 100 100 100 100 100 100 100 100 100 100 100 100 100 100 97
0 0 0 0 0 0 0 0 6 3 10 13 42 61 68 87 94 84 84 87 87 87 87 84 84 84 87 94 94 97 100 100 100 100 100 100 100 100 100 100 100 100 100 100 100 100 100 97 87
0 0 0 0 0 0 0 0 10 10 19 32 35 45 58 87 90 87 87 87 87 87 87 87 84 84 84 81 84 90 94 97 100 100 100 97 97 97 97 100 100 100 100 100 100 97 94 87 84
0 0 0 0 0 0 0 0 10 19 23 35 55 58 81 77 84 87 87 87 87 87 84 77 77 77 77 74 77 77 77 87 90 90 94 97 97 97 97 97 97 97 97 94 90 90 87 71 61
0 0 0 0 0 0 0 3 10 16 32 32 52 61 77 77 77 81 81 81 84 74 71 74 77 71 71 77 77 81 81 81 81 84 84 81 77 77 84 77 90 94 90 81 84 84 77 58 42
0 0 0 0 0 0 0 3 10 19 32 39 42 68 77 74 71 71 71 74 71 71 71 68 65 71 71 68 68 71 77 74 71 71 71 61 61 58 55 61 68 61 65 65 61 58 45 39 26
0 0 0 0 0 3 3 10 16 32 26 32 39 58 65 65 65 68 68 68 65 61 55 48 52 61 61 65 65 65 58 55 58 58 65 55 55 55 42 45 42 39 39 35 29 29 23 23 19
0 0 0 0 0 3 3 10 23 29 26 32 42 48 55 48 55 58 61 45 42 45 45 48 52 48 48 52 48 45 42 35 39 35 39 45 32 32 23 19 29 26 13 13 13 13 16 6 13
0 0 0 0 0 0 0 6 23 23 29 39 42 39 35 35 42 45 42 39 42 42 39 42 39 45 39 32 32 29 23 23 23 29 32 26 23 19 16 10 10 16 10 3 3 3 3 3 3
0 0 0 0 0 0 0 0 19 19 32 39 32 32 35 32 32 35 39 39 35 35 32 26 32 32 29 23 23 16 16 16 13 10 10 13 16 16 13 10 6 6 3 3 3 3 3 3 3
0 0 0 0 0 0 0 0 19 23 29 32 32 29 29 29 23 16 26 23 29 29 26 16 16 19 19 16 13 6 10 6 6 10 10 10 10 10 10 10 10 3 3 3 3 3 3 3 3
0 0 0 0 0 0 0 3 19 29 29 29 29 29 26 19 16 16 16 16 26 26 13 10 10 16 10 10 10 10 6 3 3 3 6 10 10 10 10 6 6 0 3 3 3 3 0 0 0
0 0 0 0 0 0 3 6 23 29 23 32 32 26 16 16 13 6 16 13 16 10 13 6 6 6 10 10 10 6 6 3 3 3 0 3 6 10 10 6 6 0 0 3 3 3 0 0 0
0 0 0 0 0 0 6 6 26 29 23 23 26 19 13 16 16 10 6 13 6 0 3 10 6 3 3 3 3 3 3 3 3 3 0 0 3 3 3 3 3 0 0 0 0 0 0 0 0
0 0 0 0 0 0 0 0 16 16 19 19 13 13 13 13 10 3 3 10 3 0 3 3 3 3 3 0 0 0 0 0 3 3 0 0 0 0 6 0 0 0 0 0 0 0 0 0 0
0 0 0 0 0 0 0 0 3 13 16 16 13 13 10 6 3 3 3 3 6 6 3 0 0 3 3 0 0 0 0 0 3 3 3 0 0 0 0 0 0 0 0 0 0 0 0 0 0
0 0 0 0 0 0 0 0 0 10 6 16 10 10 6 3 3 3 3 3 3 3 0 0 0 3 3 0 0 0 3 3 3 0 3 0 0 0 0 0 0 0 0 0 0 0 0 0 0
0 0 0 0 0 0 0 0 0 3 3 6 10 0 0 3 3 3 3 3 3 0 0 0 0 0 3 3 3 0 0 0 3 3 0 0 0 0 0 0 0 0 0 0 0 0 0 0 0
0 0 0 0 0 0 0 0 0 0 0 3 3 0 0 0 0 3 3 3 0 0 0 0 0 0 0 3 3 3 0 0 0 3 0 0 0 0 0 0 0 0 0 0 0 0 0 0 0
0 0 0 0 0 0 0 0 0 0 0 0 0 0 0 0 0 0 0 0 0 0 0 0 0 0 0 3 0 0 0 0 0 0 0 0 0 0 0 0 0 0 0 0 0 0 0 0 0
0 0 0 0 0 0 0 0 0 0 0 0 0 0 0 0 0 0 0 0 0 0 0 0 0 0 0 0 0 0 0 0 0 0 0 0 0 0 0 0 0 0 0 0 0 0 0 0 0
0 0 0 0 0 0 0 0 0 0 0 0 0 0 0 0 0 0 0 0 0 0 0 0 0 0 0 0 0 0 0 0 0 0 0 0 0 0 0 0 0 0 0 0 0 0 0 0 0
0 0 0 0 0 0 0 0 0 0 0 0 0 0 0 0 0 0 0 0 0 0 0 0 0 0 0 0 0 0 0 0 0 0 0 0 0 0 0 0 0 0 0 0 0 0 0 0 0
0 0 0 0 0 0 0 0 0 0 0 0 0 0 0 0 0 0 0 0 0 0 0 0 0 0 0 0 0 0 0 0 0 0 0 0 0 0 0 0 0 0 0 0 0 0 0 0 0

GEFSSGP_con_cape1000_114.txt.gz
Probability
0 0 0 0 0 0 0 0 0 0 0 6 6 0 6 13 10 42 87 90 87 90 97 97 100 100 100 100 100 100 100 100 100 100 100 100 100 100 100 100 100 100 100 100 100 100 100 100 100
0 0 0 0 0 0 0 0 0 0 0 10 6 13 16 32 45 71 90 90 87 87 97 87 100 100 100 100 100 100 100 100 100 100 100 100 100 100 100 100 100 100 100 100 100 100 100 100 100
0 0 0 0 0 0 0 0 0 0 0 3 6 16 42 55 65 87 97 90 87 90 94 100 100 100 100 100 100 100 100 100 100 100 100 100 100 100 100 100 100 100 100 100 100 100 100 100 100
0 0 0 0 0 0 0 0 0 0 0 0 13 32 55 77 84 87 97 90 90 90 90 100 100 100 100 100 100 100 100 100 100 100 100 100 100 100 100 100 100 100 100 100 100 100 100 100 100
0 0 0 0 0 0 0 0 0 0 3 6 10 32 61 90 90 97 97 90 94 90 87 97 97 97 100 100 100 100 100 100 100 100 100 100 100 100 100 100 100 100 100 100 100 100 100 100 100
0 0 0 0 0 0 0 0 0 6 6 6 16 35 77 94 94 97 97 94 87 94 94 94 97 97 97 97 100 100 100 100 100 100 100 100 100 100 100 100 100 100 100 100 100 100 100 100 100
0 0 0 0 0 0 0 0 6 6 10 16 29 52 81 94 90 94 90 87 81 84 90 90 90 94 94 94 97 100 100 100 100 100 100 100 100 100 100 100 100 100 100 100 100 100 97 97 97
0 0 0 0 0 0 0 0 6 13 19 26 35 52 81 94 90 94 90 84 77 81 87 87 87 90 90 87 94 94 94 97 100 100 100 100 100 100 100 100 100 100 100 100 97 97 94 94 90
0 0 0 0 0 0 0 0 16 19 35 55 61 65 81 90 90 90 87 87 87 81 87 87 87 87 90 90 87 94 94 97 97 100 100 100 97 87 100 84 100 100 100 100 97 97 97 90 81
0 0 0 0 0 0 0 0 16 23 39 61 68 77 84 90 90 90 90 90 90 87 90 87 87 87 84 81 84 90 90 94 90 97 97 94 90 90 81 90 94 94 94 94 94 94 87 74 77
0 0 0 0 0 0 3 6 10 13 32 58 68 68 81 84 84 84 84 87 84 84 87 90 87 84 84 84 84 81 84 90 84 81 90 94 90 84 81 90 87 94 94 81 87 87 74 55 55
0 0 0 0 0 0 3 6 13 19 42 48 55 65 77 77 77 81 74 74 81 81 81 84 84 90 84 81 74 71 71 71 68 71 74 84 81 77 77 84 84 81 84 81 81 84 77 74 55
0 0 0 0 0 3 3 13 16 29 48 48 52 68 74 71 74 71 71 74 77 74 74 84 87 87 87 77 74 68 68 58 61 68 68 68 68 65 68 84 81 77 81 74 81 77 74 65 45
0 0 0 0 3 3 6 10 13 39 48 52 45 61 71 65 65 65 65 65 68 68 68 77 84 87 84 81 77 68 61 58 52 61 71 71 68 65 61 68 77 81 81 71 74 68 68 61 61
0 0 0 0 0 3 3 6 13 42 42 45 45 55 58 65 61 61 61 65 61 61 61 71 68 74 68 68 68 55 52 48 52 52 55 58 61 58 55 55 65 71 71 77 68 48 61 61 52
0 0 0 0 0 0 0 6 19 35 39 39 39 58 58 58 55 55 52 55 55 55 61 61 58 68 68 61 55 52 55 52 48 45 42 48 45 48 58 58 52 45 45 52 71 65 58 48 52
0 0 0 0 0 0 0 6 23 29 39 35 45 58 55 58 52 42 48 48 52 48 55 55 52 58 55 58 52 52 52 48 39 35 32 39 39 35 35 39 42 42 35 42 26 39 48 45 45
0 0 0 0 0 0 0 10 26 29 35 39 42 48 42 42 45 39 42 42 45 45 48 48 48 45 45 55 58 55 45 42 29 26 39 32 29 23 26 19 19 19 26 26 29 42 39 35 26
0 0 0 0 0 0 3 13 32 35 32 35 39 42 35 32 26 29 29 35 39 42 45 42 42 42 39 45 48 52 48 42 32 23 23 23 23 19 19 16 23 16 23 26 23 19 19 19 13
0 0 0 0 0 3 3 10 16 32 32 35 39 39 32 29 26 32 29 29 23 19 26 29 35 32 35 35 32 39 39 29 23 16 19 10 13 13 16 16 19 19 19 13 13 10 16 6 3
0 0 0 0 0 3 3 10 16 23 29 32 32 39 32 32 29 32 23 13 13 10 6 10 19 19 23 23 23 23 26 19 10 16 13 10 13 10 16 13 13 19 13 10 13 13 10 3 3
0 0 0 0 0 0 0 0 16 32 26 32 39 35 23 23 26 29 23 10 6 3 3 6 6 13 16 16 26 19 19 23 16 16 6 10 10 6 6 10 10 13 19 16 13 10 6 3 0
0 0 0 0 0 0 0 0 6 19 19 32 23 29 23 23 19 16 6 3 3 3 3 3 3 6 6 10 19 16 13 16 16 10 6 3 3 3 3 6 6 13 13 13 6 13 6 6 0
0 0 0 0 0 0 0 0 6 16 16 23 26 26 19 16 13 3 3 3 3 3 3 3 3 6 6 6 6 10 10 6 6 6 6 3 3 3 3 3 3 3 6 6 10 10 3 3 0
0 0 0 0 0 0 0 0 3 13 10 19 26 26 19 13 13 3 3 3 3 3 3 3 3 3 6 6 6 3 3 3 6 3 3 3 3 3 3 3 3 3 3 3 3 3 0 0 0
0 0 0 0 0 0 0 0 10 13 13 26 29 19 13 10 3 3 3 3 0 0 0 0 0 0 3 3 3 3 3 3 3 3 0 0 3 3 3 3 3 3 3 3 3 3 0 0 0
0 0 0 0 0 0 0 3 13 16 10 19 23 16 6 6 0 0 0 0 0 0 0 0 0 0 0 0 0 0 0 0 0 3 0 3 3 3 3 3 3 3 3 3 3 3 0 0 0
0 0 0 0 0 0 0 0 0 10 10 13 19 16 6 0 0 0 0 0 0 0 0 0 0 0 0 0 0 0 0 0 0 0 0 0 0 0 0 0 0 0 3 3 3 0 0 0 0
0 0 0 0 0 0 0 0 0 13 23 19 6 13 3 0 0 0 0 0 0 0 0 0 0 0 0 0 0 0 0 0 0 0 0 0 0 0 0 0 0 0 0 0 0 0 0 0 0
0 0 0 0 0 0 0 0 0 13 19 13 6 6 0 0 0 0 0 0 0 0 0 0 0 0 0 0 0 0 0 0 0 0 0 0 0 0 0 0 0 0 0 0 0 0 0 0 0

GEFSSGP_con_cape1000_120.txt.gz
Probability
0 0 0 0 0 0 0 0 0 0 0 0 3 6 16 26 45 65 68 71 90 97 100 100 100 100 100 100 100 100 100 100 100 100 100 100 100 100 100 100 100 100 100 100 100 100 100 100 100
0 0 0 0 0 0 0 0 0 0 0 0 3 10 19 39 45 65 74 87 90 94 97 100 100 100 100 100 100 100 100 100 100 100 100 100 100 100 100 100 100 100 100 100 100 100 100 100 100
0 0 0 0 0 0 0 0 0 0 0 0 3 23 32 45 61 81 90 90 97 97 100 100 100 100 100 100 100 100 100 100 100 100 100 100 100 100 100 100 100 100 100 100 100 100 100 100 100
0 0 0 0 0 0 0 0 0 0 0 0 10 29 65 68 77 87 90 97 97 97 97 100 100 100 100 100 100 100 100 100 100 100 100 100 100 100 100 100 100 100 100 100 100 100 100 100 100
0 0 0 0 0 0 0 0 0 0 0 6 13 45 74 77 84 84 90 90 94 97 100 97 100 100 100 100 100 100 100 100 100 100 100 100 100 100 100 100 100 100 100 100 100 100 100 100 100
0 0 0 0 0 0 0 0 0 0 0 6 26 45 68 77 81 87 87 84 87 94 90 97 100 100 100 100 100 100 100 100 100 100 100 100 100 100 100 100 100 100 100 100 100 100 100 100 97
0 0 0 0 0 0 0 0 0 0 6 10 26 39 65 77 84 81 77 77 84 90 90 87 94 97 97 97 100 100 100 100 100 100 100 100 100 100 100 100 100 97 100 100 100 100 97 90 87
0 0 0 0 0 0 0 0 3 3 10 16 26 45 71 77 77 84 81 74 81 77 77 84 84 94 97 97 97 100 97 97 97 97 100 100 100 100 100 100 100 100 97 97 97 94 90 90 90
0 0 0 0 0 0 0 0 0 19 23 19 32 48 55 68 77 77 81 77 81 68 68 71 74 81 81 90 97 94 97 97 97 97 97 97 90 90 94 90 97 97 97 87 90 94 94 100 100
0 0 0 0 0 0 0 0 0 13 23 32 45 55 61 68 71 81 84 81 84 77 74 71 74 74 81 87 90 94 87 97 97 97 97 90 84 81 81 87 87 87 94 90 90 87 90 97 77
0 0 0 0 0 0 0 3 10 13 29 42 39 55 58 68 77 77 87 84 81 81 87 81 81 84 84 90 87 87 87 87 84 81 81 81 84 81 77 77 84 84 84 77 87 87 74 71 74
0 0 0 0 0 0 3 6 13 39 32 35 39 45 65 71 77 87 71 68 74 71 74 84 81 81 81 81 84 87 81 77 74 74 74 77 77 81 81 81 77 84 84 81 84 84 77 74 71
0 0 0 0 0 0 6 6 16 29 29 26 35 48 52 58 55 61 61 61 71 65 71 71 84 87 84 87 81 77 81 74 77 74 65 65 71 74 71 77 77 74 74 77 81 74 71 58 52
0 0 0 0 0 3 6 6 6 26 29 23 23 45 55 55 52 55 55 58 61 65 65 77 81 87 87 87 84 84 81 77 68 74 68 68 71 71 74 77 74 71 71 71 68 68 65 58 58
0 0 0 0 0 0 6 10 16 23 16 26 32 39 48 52 58 55 55 61 65 65 65 74 81 81 87 84 84 84 81 68 71 71 71 68 65 61 65 65 71 68 68 71 65 61 61 58 48
0 0 0 0 0 0 6 10 16 16 23 26 29 35 52 55 58 58 61 61 68 68 68 68 71 74 77 77 84 77 81 77 71 68 61 55 55 52 58 58 58 55 48 52 52 52 52 55 39
0 0 0 0 0 0 0 6 16 19 23 29 29 42 48 48 45 45 45 48 55 61 65 65 71 71 71 74 71 71 77 74 65 61 48 48 45 48 45 48 55 45 42 45 39 39 39 23 26
0 0 0 0 0 0 0 19 19 19 19 26 35 45 48 42 45 39 35 35 42 48 52 52 55 58 61 71 68 71 61 58 58 55 55 55 52 45 45 42 48 42 39 32 35 39 32 16 13
0 0 0 0 0 0 3 13 16 23 26 23 39 45 42 42 42 35 35 35 35 35 35 39 39 45 52 55 61 68 55 52 48 45 48 45 39 42 42 35 32 39 32 29 26 23 13 10 6
0 0 0 0 0 0 3 13 19 19 26 32 39 48 42 35 39 35 32 29 32 32 29 29 29 35 42 52 52 58 48 48 39 32 32 29 29 29 23 42 32 32 32 26 23 13 6 3 3
0 0 0 0 0 0 0 3 13 16 23 29 26 42 45 35 35 29 26 29 29 23 26 26 26 29 29 35 45 48 48 45 35 29 26 26 23 16 19 26 23 23 16 19 16 13 6 3 0
0 0 0 0 0 0 0 0 13 26 29 23 26 35 35 39 39 32 26 23 19 16 16 23 23 23 23 26 32 39 45 35 19 23 23 16 16 13 13 10 10 16 16 19 13 10 10 3 0
0 0 0 0 0 0 0 0 3 26 23 19 35 35 35 35 32 29 19 16 13 13 10 13 13 16 19 19 26 29 19 16 16 16 16 16 10 6 6 10 10 10 13 13 6 10 6 3 0
0 0 0 0 0 0 0 0 3 13 19 29 39 26 35 32 29 16 13 10 10 6 10 10 13 6 10 13 19 19 16 16 16 16 13 13 10 10 3 3 3 3 6 6 6 10 6 3 3
0 0 0 0 0 0 0 0 3 13 10 26 32 29 26 26 19 10 10 10 6 6 6 3 6 6 10 10 10 10 13 13 13 13 13 6 3 3 3 3 3 3 3 3 6 6 6 6 6
0 0 0 0 0 0 0 0 10 10 13 29 39 29 23 23 13 6 6 3 0 0 3 0 3 3 3 3 6 3 3 10 10 6 3 3 3 3 3 3 3 3 3 3 3 6 6 6 6
0 0 0 0 0 0 0 6 6 6 19 39 35 23 23 16 6 6 0 0 0 0 0 0 0 0 0 0 0 0 0 0 0 0 3 3 3 0 3 3 3 3 3 3 3 3 3 3 6
0 0 0 0 0 0 0 0 6 13 26 26 23 19 10 3 6 0 0 0 0 0 0 0 0 0 0 0 0 0 0 0 0 0 0 0 0 0 0 3 3 3 0 3 3 3 3 3 3
0 0 0 0 0 0 3 0 0 19 32 26 19 16 16 6 0 0 0 0 0 0 0 0 0 0 0 0 0 0 0 0 0 0 0 0 0 0 0 0 0 0 0 0 0 3 0 0 0
0 0 0 0 0 0 0 0 0 13 26 29 19 10 10 0 0 0 0 0 0 0 0 0 0 0 0 0 0 0 0 0 0 0 0 0 0 0 0 0 0 0 0 0 0 0 0 0 0

GEFSSGP_con_cape1000_126.txt.gz
Probability
0 0 0 0 0 0 0 0 0 0 3 6 10 16 35 32 19 26 35 61 87 100 100 100 100 100 100 100 100 100 100 100 100 100 100 100 100 100 100 100 100 100 100 100 100 100 100 100 100
0 0 0 0 0 0 0 0 0 0 10 10 13 35 52 58 61 65 74 84 97 100 100 100 100 100 100 100 100 100 100 100 100 100 100 100 100 100 100 100 100 100 100 100 100 100 100 100 100
0 0 0 0 0 0 0 0 0 3 10 10 19 29 48 65 74 71 77 87 97 100 100 100 100 100 100 100 100 100 100 100 100 100 100 100 100 100 100 100 100 100 100 100 100 100 100 100 100
0 0 0 0 0 0 0 0 0 6 6 13 35 55 48 55 71 81 77 90 97 100 100 100 100 100 100 100 100 100 100 100 100 100 100 100 100 100 100 100 100 100 100 100 100 100 100 100 100
0 0 0 0 0 0 0 3 3 3 10 32 45 55 55 61 74 84 84 94 97 94 97 100 100 100 100 100 100 100 100 100 100 100 100 100 100 100 100 100 100 100 100 100 100 100 100 100 100
0 0 0 0 0 0 0 3 6 10 16 29 42 48 48 55 68 77 81 84 90 90 94 97 97 97 97 100 100 100 100 100 100 100 100 100 100 100 100 100 100 100 100 100 100 100 100 100 97
0 0 0 0 0 0 3 3 6 16 19 26 42 48 52 52 55 65 71 81 87 90 90 90 90 97 97 97 97 100 100 100 100 100 100 100 100 100 100 100 100 100 100 100 100 100 97 94 97
0 0 0 0 0 0 0 3 13 16 26 29 45 52 52 39 52 55 68 77 87 87 87 87 87 87 87 97 97 97 100 100 100 100 100 100 100 100 100 100 100 100 97 100 100 100 97 94 97
0 0 0 0 0 0 0 10 23 23 23 16 35 52 48 52 42 48 55 61 65 71 71 77 84 87 84 87 90 90 94 97 97 97 100 94 81 84 84 87 97 97 97 94 97 94 97 100 97
0 0 0 0 0 3 6 10 19 19 23 19 35 42 42 35 35 45 52 55 58 61 58 68 71 74 81 81 77 77 77 74 71 68 68 71 65 68 71 81 87 90 87 84 84 94 90 87 65
0 0 0 0 3 10 10 13 19 16 23 19 35 35 29 29 35 32 39 45 45 48 52 65 65 68 68 68 71 65 65 61 61 61 58 61 52 58 55 55 58 55 58 58 65 71 68 61 39
0 0 0 0 6 13 16 26 16 16 23 23 23 26 23 32 26 23 26 23 35 42 48 45 52 55 65 61 65 61 55 55 52 58 58 55 42 32 29 32 39 48 48 42 39 39 42 29 26
0 0 0 6 6 13 16 19 16 19 26 23 19 16 26 26 19 26 23 23 26 35 42 39 39 48 58 48 52 52 52 42 39 39 48 45 39 23 23 16 26 26 23 23 23 19 10 13 13
0 0 3 6 6 16 10 16 19 19 23 13 19 23 13 19 19 23 29 29 32 35 35 42 45 42 39 42 48 48 52 42 39 45 39 35 35 26 23 23 23 23 23 16 13 10 6 3 6
0 0 0 0 6 6 6 16 29 19 23 19 26 23 16 23 19 23 29 29 32 29 29 32 45 35 32 32 42 42 42 39 39 39 39 35 29 23 19 23 10 6 6 3 3 3 3 3 0
0 0 0 0 3 3 3 13 23 26 26 23 26 19 26 23 23 23 19 32 35 29 26 29 35 29 32 32 42 35 39 39 39 35 32 29 23 23 19 13 6 3 3 3 3 0 0 0 0
0 0 0 0 0 0 3 10 23 23 23 26 26 26 26 23 26 23 32 19 19 23 23 26 29 26 32 32 35 32 35 32 32 19 16 16 19 16 16 10 3 3 3 3 3 0 0 0 0
0 0 0 0 3 3 0 10 32 26 19 19 23 19 16 26 23 19 23 23 13 13 16 23 19 23 26 26 32 26 26 23 19 16 19 13 13 13 13 6 6 3 0 0 3 0 0 0 0
0 0 0 0 3 3 10 16 29 16 19 16 19 19 16 26 19 13 13 13 16 23 23 23 19 19 19 26 26 19 16 10 10 10 10 10 10 10 10 6 6 3 3 3 6 3 0 0 0
0 0 0 0 3 6 13 16 13 6 10 16 16 16 23 19 16 13 10 10 10 13 16 16 16 16 19 19 23 13 13 10 10 10 10 10 10 10 10 6 6 3 3 3 3 0 0 0 0
0 0 0 0 3 6 6 6 6 3 6 13 16 13 19 19 16 10 6 10 10 6 10 13 10 10 10 16 19 13 6 6 6 6 6 6 6 6 3 3 3 3 3 3 3 3 0 0 0
0 0 0 0 0 0 0 0 3 6 6 16 13 13 16 16 6 10 6 6 3 6 6 6 6 10 10 10 10 13 6 6 6 6 6 6 3 3 3 3 3 3 3 3 3 3 3 0 0
0 0 0 0 0 0 0 0 0 3 16 13 10 16 13 13 10 6 6 6 6 6 6 6 6 6 6 6 6 6 6 6 6 3 0 0 0 0 0 0 3 3 3 3 3 3 3 3 0
0 0 0 0 0 0 0 0 0 3 6 13 10 16 13 10 6 6 3 0 3 3 3 3 3 3 6 6 6 6 6 3 3 0 0 0 0 0 0 0 0 0 3 3 3 3 3 3 3
0 0 0 0 0 0 0 0 0 0 0 3 3 3 6 6 3 3 3 3 3 3 3 3 3 3 0 0 0 0 3 0 0 0 0 0 0 0 0 0 0 0 0 0 3 3 3 3 3
0 0 0 0 0 0 0 0 0 3 3 3 3 6 6 3 3 3 3 3 3 3 3 3 3 0 0 0 0 0 0 0 0 0 0 0 0 0 0 0 0 0 0 0 0 0 3 3 3
0 0 0 0 0 0 0 0 0 3 6 6 6 6 3 3 0 0 0 0 0 0 0 0 0 0 0 0 0 0 0 0 0 0 0 0 0 0 0 0 0 0 0 0 0 0 0 0 0
0 0 0 0 0 0 0 0 0 3 6 6 6 3 3 0 0 0 0 0 0 0 0 0 0 0 0 0 0 0 0 0 0 0 0 0 0 0 0 0 0 0 0 0 0 0 0 0 0
0 0 0 0 0 0 0 0 0 3 6 6 3 3 0 0 0 0 0 0 0 0 0 0 0 0 0 0 0 0 0 0 0 0 0 0 0 0 0 0 0 0 0 0 0 0 0 0 0
0 0 0 0 0 0 0 0 0 0 3 6 3 0 0 0 0 0 0 0 0 0 0 0 0 0 0 0 0 0 0 0 0 0 0 0 0 0 0 0 0 0 0 0 0 0 0 0 0

GEFSSGP_con_cape1000_132.txt.gz
Probability
0 0 0 0 0 0 0 0 0 0 10 3 6 16 16 19 10 6 29 71 84 100 100 100 100 100 100 100 100 100 100 100 100 100 100 100 100 100 100 100 100 100 100 100 100 100 100 100 100
0 0 0 0 0 0 0 0 3 3 6 10 26 42 52 45 52 65 71 77 90 100 100 100 100 100 100 100 100 100 100 100 100 100 100 100 100 100 100 100 100 100 100 100 100 100 100 100 100
0 0 0 0 0 0 0 0 3 6 6 16 26 45 58 65 71 74 74 90 97 97 97 100 100 100 100 100 100 100 100 100 100 100 100 100 100 100 100 100 100 100 100 100 100 100 100 100 100
0 0 0 0 0 0 0 0 6 3 3 23 35 45 52 61 77 84 87 97 97 97 97 97 97 100 100 100 100 100 100 100 100 100 100 100 100 100 100 100 100 100 100 100 100 100 100 100 100
0 0 0 0 0 0 0 0 0 3 10 35 48 48 55 68 81 84 90 94 90 94 97 97 97 97 97 100 100 100 100 100 100 100 100 100 100 100 100 100 100 100 100 100 100 100 100 100 100
0 0 0 0 0 0 0 0 3 3 19 19 32 45 55 61 77 81 84 87 87 87 87 87 94 94 94 97 100 100 100 100 100 100 100 100 100 100 100 100 100 100 100 100 100 100 100 100 100
0 0 0 0 0 0 0 0 3 10 13 19 32 52 58 65 65 87 87 84 84 84 87 87 87 90 94 94 94 94 94 100 100 100 100 100 100 100 100 100 100 100 100 100 100 100 100 97 100
0 0 0 0 0 0 0 3 6 10 16 26 32 58 65 58 71 58 65 65 65 71 71 81 84 90 90 90 90 90 94 94 97 97 97 100 100 100 100 100 100 100 100 100 100 100 97 97 97
0 0 0 0 0 0 3 3 13 23 29 35 45 45 55 55 55 48 52 55 55 61 65 65 71 74 77 84 87 87 87 87 90 90 94 84 81 84 90 94 100 97 94 97 97 100 100 90 90
0 0 0 0 0 3 3 6 13 19 19 35 42 45 48 48 45 42 45 48 55 48 52 52 55 65 68 71 68 68 71 71 65 65 65 61 65 65 77 81 90 94 90 90 90 94 87 77 68
0 0 0 0 0 0 6 6 10 19 13 35 42 39 42 42 39 35 39 35 35 42 48 48 45 58 61 55 58 55 55 58 61 61 58 55 52 52 61 52 52 52 61 58 58 65 65 58 55
0 0 0 0 3 3 3 6 6 13 13 26 32 32 23 23 26 29 29 29 29 35 42 42 39 35 48 48 48 52 48 48 48 58 55 48 39 29 29 29 32 32 42 42 42 42 42 39 35
0 0 0 0 0 3 3 3 10 6 13 16 19 26 26 23 16 16 19 29 26 32 32 29 32 29 32 39 39 35 42 42 39 42 39 39 32 26 19 23 32 32 29 26 23 23 26 29 26
0 0 3 3 0 3 6 6 6 3 6 19 16 16 16 19 19 19 19 19 23 26 29 23 19 26 19 23 29 32 35 39 35 29 35 42 23 19 6 19 19 19 16 13 13 6 6 3 6
0 0 3 3 0 3 0 3 13 10 10 16 16 16 13 13 16 13 16 16 19 23 26 19 16 16 13 13 16 29 23 23 26 23 23 32 29 23 10 10 13 10 3 6 6 10 3 3 3
0 0 0 3 3 3 0 0 19 13 16 13 16 19 16 13 13 13 10 13 16 19 19 13 13 10 10 10 13 19 16 16 16 19 19 23 26 16 13 13 10 0 3 3 3 3 3 0 0
0 0 0 3 3 3 0 3 19 16 13 10 13 19 16 13 10 10 10 13 16 10 6 10 10 10 10 13 16 16 16 16 10 10 10 13 13 13 13 10 6 3 3 3 3 3 0 0 0
0 0 0 0 6 6 6 10 26 19 23 10 13 16 13 16 10 6 13 10 10 6 6 10 10 10 10 13 13 13 10 6 6 6 10 10 6 10 10 6 0 0 3 3 0 0 0 0 0
0 0 0 0 0 10 6 13 23 19 16 13 13 10 19 10 10 10 6 6 6 6 6 6 6 10 6 10 10 13 13 6 6 6 6 10 10 10 10 10 3 3 0 0 0 0 0 0 0
0 0 0 6 6 3 6 6 19 16 19 19 13 13 13 13 13 10 6 6 6 6 6 6 6 6 3 3 3 6 6 6 6 10 10 10 10 10 6 3 0 0 3 3 0 0 0 0 0
0 0 0 3 3 3 3 3 13 16 16 16 10 13 10 13 13 6 6 6 6 3 3 3 3 6 6 6 6 6 6 6 6 6 3 3 3 3 3 3 3 3 0 3 3 3 3 0 0
0 0 0 0 0 0 0 3 6 10 10 10 3 3 13 16 6 6 6 3 3 3 3 3 3 3 6 6 6 6 6 6 6 6 0 0 0 0 0 0 0 0 3 3 3 3 3 3 3
0 0 0 0 0 0 0 0 0 3 6 6 6 6 13 6 10 10 6 3 3 3 3 3 3 3 3 6 6 6 6 6 3 0 0 0 0 0 0 0 0 0 0 0 0 3 3 3 3
0 0 0 0 0 0 0 0 0 0 6 6 6 10 13 10 10 6 3 3 3 3 3 3 3 3 3 3 6 6 6 3 0 0 0 0 0 0 0 0 0 0 0 0 0 0 0 3 3
0 0 0 0 0 0 0 0 0 0 0 6 6 6 10 10 6 3 3 3 3 3 3 3 3 3 3 3 3 3 6 3 0 0 0 0 0 0 0 0 0 0 0 0 0 0 0 0 3
0 0 0 0 0 0 0 0 0 0 0 3 6 10 10 6 0 0 0 0 0 3 3 3 3 3 3 0 0 0 0 0 0 0 0 0 0 0 0 0 0 0 0 0 0 0 0 0 0
0 0 0 0 0 0 0 0 0 0 3 0 6 6 6 3 0 0 0 0 0 0 0 3 0 0 0 0 0 0 0 0 0 0 0 0 0 0 0 0 0 0 0 0 0 0 0 0 0
0 0 0 0 0 0 0 0 0 0 3 3 6 6 6 0 0 0 0 0 0 0 0 0 0 0 0 0 0 0 0 0 0 0 0 0 0 0 0 0 0 0 0 0 0 0 0 0 0
0 0 0 0 0 0 0 0 0 0 3 3 6 6 0 0 0 0 0 0 0 0 0 0 0 0 0 0 0 0 0 0 0 0 0 0 0 0 0 0 0 0 0 0 0 0 0 0 0
0 0 0 0 0 0 0 0 0 0 3 3 6 3 0 0 0 0 0 0 0 0 0 0 0 0 0 0 0 0 0 0 0 0 0 0 0 0 0 0 0 0 0 0 0 0 0 0 0

GEFSSGP_con_cape1000_138.txt.gz
Probability
0 0 0 0 0 0 0 0 0 0 6 10 13 16 35 58 45 90 90 68 71 74 84 97 100 100 100 100 100 100 100 100 100 100 100 100 100 100 100 100 100 100 100 100 100 100 100 100 100
0 0 0 0 0 0 0 0 0 3 16 32 39 48 61 74 90 90 87 71 77 84 81 84 100 100 100 100 100 100 100 100 100 100 100 100 100 100 100 100 100 100 100 100 100 97 100 100 100
0 0 0 0 0 0 0 0 3 19 23 35 55 65 74 94 87 90 94 81 87 90 90 100 100 100 100 100 100 100 100 100 100 100 100 100 100 100 100 100 100 100 100 100 100 97 97 97 100
0 0 0 0 0 0 0 6 10 23 29 45 58 77 90 87 90 87 94 94 90 90 87 97 97 100 100 100 100 100 100 100 100 100 100 100 100 100 100 100 100 100 100 100 97 97 97 100 97
0 0 0 0 0 0 0 6 6 10 23 45 65 77 94 84 84 87 90 84 81 74 90 90 97 97 97 100 100 100 100 100 100 100 100 100 100 100 100 100 100 100 97 97 97 97 100 100 97
0 0 0 0 0 0 3 6 6 10 32 48 61 74 94 87 87 87 77 77 77 81 81 90 97 97 97 97 97 97 97 100 100 100 100 100 100 100 100 100 100 100 100 97 97 97 97 94 94
0 0 0 0 0 0 6 10 6 19 26 48 58 87 94 87 87 87 77 77 77 81 81 84 84 94 97 97 97 94 94 94 100 100 100 100 100 100 100 100 100 100 100 100 97 94 90 90 90
0 0 0 0 0 3 6 10 19 26 42 52 61 77 94 87 90 87 87 87 81 74 84 87 87 90 90 90 90 90 90 90 94 94 94 97 100 100 94 100 97 100 100 100 97 97 90 87 87
0 0 0 0 0 3 3 16 23 32 55 61 68 81 84 84 84 81 77 74 74 77 74 81 84 84 81 87 87 84 87 87 87 87 84 87 87 87 90 94 94 90 97 97 90 90 84 90 81
0 0 0 0 0 0 10 16 16 45 61 58 77 81 81 77 74 71 71 77 77 77 74 71 77 87 87 84 87 84 81 81 81 81 84 84 90 87 84 84 87 87 90 87 87 84 81 65 52
0 0 0 0 0 0 23 19 23 35 52 55 74 71 74 71 68 61 65 68 61 68 65 68 74 77 81 81 77 77 77 81 77 77 81 81 87 87 87 90 90 94 84 77 74 71 71 55 52
0 3 3 3 0 6 16 16 23 42 48 45 61 65 61 58 58 58 61 68 55 58 61 65 71 77 74 77 74 77 81 71 71 81 74 77 77 87 87 87 77 81 90 90 84 77 61 61 55
3 3 0 0 0 10 10 19 26 35 42 55 65 65 65 68 61 65 61 55 58 55 55 61 65 71 71 74 68 61 71 65 65 68 68 68 68 68 68 74 81 58 68 74 77 68 68 65 58
0 0 0 3 10 10 16 13 26 29 52 58 65 65 61 55 52 52 58 48 55 58 58 58 55 65 65 58 65 55 52 55 58 58 65 68 68 68 71 68 65 52 58 65 71 58 61 61 61
0 0 0 6 10 13 6 13 16 29 42 55 58 61 52 48 42 42 42 45 45 48 42 42 42 48 55 58 58 52 52 52 48 52 48 48 48 58 65 61 65 61 58 58 61 61 65 55 58
0 0 0 3 10 10 3 10 19 26 32 48 52 55 42 32 26 29 35 35 32 42 39 39 26 35 39 48 48 39 39 42 45 45 45 42 42 55 58 61 52 52 55 55 52 55 55 68 58
0 0 0 0 6 6 3 16 19 29 45 52 52 42 39 35 29 29 26 29 29 35 35 32 35 32 29 35 39 39 48 42 39 32 35 35 35 39 42 39 39 45 48 52 45 42 45 55 52
0 0 0 0 3 3 10 16 35 35 42 45 39 32 35 35 29 29 23 23 26 23 29 26 29 26 29 29 35 42 32 35 26 23 23 26 29 26 32 39 35 35 35 39 39 39 52 45 45
0 0 0 0 3 6 10 16 26 32 32 42 48 42 39 29 26 19 26 26 19 19 19 23 23 29 26 32 35 32 29 16 19 19 19 23 23 23 26 26 29 32 35 32 29 23 23 29 19
0 0 0 6 6 6 10 16 23 35 32 39 42 42 39 35 26 19 19 23 19 19 19 13 13 23 26 29 29 29 13 13 16 19 19 19 19 19 13 23 23 26 26 26 26 16 23 19 10
0 0 0 6 3 6 6 19 29 35 35 32 45 45 35 32 23 19 16 10 13 13 13 13 16 16 19 16 23 16 16 16 16 16 19 19 16 16 16 16 16 16 19 16 19 16 10 13 6
0 0 0 3 3 3 3 0 13 35 35 42 35 32 32 26 26 23 16 10 13 13 13 13 16 16 16 16 19 16 16 13 13 13 13 13 13 13 13 13 13 16 13 16 13 10 10 10 3
0 0 0 0 0 0 3 0 3 35 42 39 39 26 26 23 29 23 16 13 6 6 10 13 13 13 13 13 16 16 13 13 13 13 10 10 13 10 10 10 10 10 10 10 6 6 10 10 3
0 0 0 0 0 0 0 0 0 23 29 35 42 29 26 26 26 19 13 6 6 6 10 10 13 13 13 10 10 10 10 10 13 10 10 10 10 10 3 0 6 3 10 6 6 6 6 3 3
0 0 0 0 0 0 0 0 3 13 10 26 45 32 29 29 19 16 13 6 3 3 3 6 6 6 6 6 10 10 10 10 10 10 10 6 3 3 0 0 0 0 0 0 3 6 3 3 3
0 0 0 0 0 0 0 0 13 6 10 19 29 23 26 23 19 13 10 6 3 3 3 3 3 3 3 6 6 6 6 10 6 3 3 3 3 0 0 0 0 0 0 0 3 3 3 3 3
0 0 0 0 0 0 0 6 19 6 13 19 19 19 26 19 13 13 6 3 3 3 3 3 3 3 3 3 3 3 3 3 3 3 3 0 0 0 0 0 0 0 0 0 3 3 3 3 3
0 0 0 0 0 0 0 0 10 13 6 13 29 23 19 16 13 10 3 3 0 0 0 0 3 3 3 3 0 0 0 0 0 0 0 0 0 0 0 0 0 0 0 0 0 3 3 3 0
0 0 0 0 0 0 0 3 3 13 13 16 23 29 13 10 6 3 0 0 0 0 0 0 3 3 0 0 0 0 0 0 0 0 0 0 0 0 0 0 0 0 0 0 0 0 0 0 0
0 3 0 0 0 0 0 3 3 10 10 19 16 19 6 6 6 3 0 0 0 0 0 0 0 0 0 0 0 0 0 0 0 0 0 0 0 0 0 0 0 0 0 0 0 3 0 0 0

GEFSSGP_con_cape1000_144.txt.gz
Probability
0 0 0 0 0 0 0 0 0 3 3 3 10 35 48 68 71 77 65 71 97 90 97 94 100 100 100 100 100 100 100 100 100 100 100 97 100 100 100 100 100 100 100 97 97 97 97 100 100
0 0 0 0 0 0 0 0 0 3 0 0 10 29 61 77 74 68 68 77 97 97 100 100 100 100 100 100 100 100 100 100 100 100 100 100 100 100 100 100 100 100 100 97 94 94 94 94 97
0 0 0 0 0 0 0 0 0 0 3 6 29 61 81 84 87 77 77 77 84 90 97 97 100 100 100 100 100 100 100 100 100 100 100 100 100 100 100 100 100 100 100 100 97 90 94 90 90
0 0 0 0 0 0 0 0 0 0 0 13 29 84 84 84 87 87 81 71 84 90 94 97 97 100 100 100 100 100 100 100 100 100 100 100 100 100 100 100 100 100 100 97 97 90 94 90 87
0 0 0 0 0 0 0 0 3 3 3 19 48 77 84 87 90 81 84 74 74 87 90 94 97 97 100 100 100 100 100 100 100 100 100 100 100 100 100 100 100 100 100 94 90 90 90 84 87
0 0 0 0 0 0 0 0 0 3 6 23 61 77 81 87 87 77 71 74 65 77 81 87 94 97 97 97 97 94 100 100 100 100 100 100 100 100 100 100 97 97 90 90 90 87 87 87 90
0 0 0 0 0 0 3 3 6 13 10 16 61 84 84 87 87 77 77 71 68 77 68 77 87 87 94 94 90 90 90 90 90 100 100 100 100 97 97 97 100 94 90 94 90 81 77 81 84
0 0 0 0 0 0 3 3 13 13 19 32 68 81 90 90 84 77 81 77 74 77 74 81 81 87 87 84 81 81 84 84 84 84 84 87 90 94 94 97 94 90 94 90 87 84 84 87 90
0 0 0 0 0 0 6 10 19 23 39 58 81 87 87 84 84 87 81 74 77 74 74 77 81 81 81 81 77 77 77 74 81 81 81 84 87 87 87 87 84 87 87 84 87 90 100 97 94
0 0 0 0 0 3 6 13 10 23 39 65 74 77 84 84 84 84 77 71 74 74 74 68 74 71 71 58 65 74 74 71 71 71 77 81 90 90 84 77 84 84 84 81 81 90 90 84 65
0 0 0 0 0 3 0 3 13 16 35 61 65 74 77 81 87 81 81 77 77 74 71 65 74 84 74 77 74 77 71 74 68 65 74 77 77 74 81 84 87 87 77 84 84 77 71 68 61
0 0 0 0 0 3 6 13 16 29 42 48 68 71 71 74 77 71 74 74 71 71 68 65 68 81 84 77 77 77 77 71 61 61 61 71 71 68 77 81 84 87 81 77 74 81 77 61 61
0 0 0 0 0 3 6 16 39 45 52 55 65 58 61 68 61 68 71 74 68 71 71 71 68 77 81 77 74 74 74 68 61 58 58 58 58 68 71 81 87 77 74 71 77 71 71 68 61
0 0 0 0 3 3 6 23 35 45 52 55 52 55 58 61 61 68 68 68 65 61 55 61 65 68 74 74 68 71 68 74 65 58 55 65 61 65 65 65 74 81 71 68 71 74 74 74 74
0 0 0 0 3 3 3 10 29 42 39 48 58 58 58 61 61 61 65 65 55 55 48 52 58 68 65 65 61 65 55 58 58 58 58 52 55 58 61 65 74 71 74 68 68 65 74 77 65
0 0 0 0 0 3 3 6 23 39 35 45 58 52 45 52 48 48 55 58 55 52 48 42 39 42 52 58 58 55 55 58 61 58 48 42 45 52 52 52 48 52 58 65 65 68 71 55 55
0 0 0 0 0 3 3 6 23 26 35 45 48 52 48 39 35 35 42 42 48 45 48 42 45 45 48 48 55 58 58 58 48 48 39 35 39 42 48 48 42 45 55 65 48 58 61 48 45
0 0 0 0 0 0 3 13 23 16 26 39 45 39 48 39 35 35 35 39 39 39 42 45 45 42 48 45 55 55 52 39 35 32 32 29 26 26 39 32 32 26 35 39 39 42 42 42 45
0 0 0 0 0 0 3 6 23 26 29 39 35 35 35 39 35 39 32 29 29 29 32 32 32 39 48 42 45 45 42 32 29 29 29 29 26 26 19 19 26 26 23 23 29 23 19 19 26
0 0 0 0 0 0 0 6 10 16 29 35 32 35 35 35 39 35 32 29 29 29 29 32 35 35 42 42 45 39 39 23 19 13 16 19 16 16 16 16 23 23 26 19 23 16 16 13 13
0 0 0 0 0 0 0 3 6 13 19 39 35 35 32 32 39 32 29 26 26 26 26 23 29 29 32 32 29 32 26 26 13 10 10 10 10 13 16 16 16 19 19 26 16 19 13 13 10
0 0 0 0 0 0 0 0 13 16 23 35 35 35 35 35 32 29 23 23 23 23 23 19 26 23 32 29 29 26 19 10 6 10 10 10 10 13 13 16 16 19 23 19 19 13 13 13 10
0 0 0 0 0 0 0 0 0 6 19 39 39 35 39 35 35 32 23 23 23 16 16 13 16 16 23 23 32 19 13 10 6 10 6 10 10 10 13 13 19 19 19 19 16 13 13 13 10
0 0 0 0 0 0 0 0 3 6 19 32 42 32 42 39 32 32 26 23 16 13 13 13 16 16 16 16 16 13 10 6 6 10 10 10 10 10 6 6 13 16 13 13 10 10 10 10 10
0 0 0 0 0 0 0 0 10 13 16 32 32 39 32 29 29 26 23 16 16 13 13 13 13 13 13 13 13 10 6 6 6 6 6 10 10 10 6 3 3 6 6 6 10 10 10 10 10
0 0 0 0 0 0 0 0 16 16 35 32 29 32 32 26 29 23 19 16 13 13 13 13 13 13 13 10 10 10 10 6 6 6 6 6 6 3 3 0 0 0 0 0 3 3 3 3 3
0 0 0 0 0 0 0 0 10 16 23 19 23 39 29 26 23 19 16 13 13 13 10 10 10 6 3 3 3 6 6 6 10 6 3 3 3 3 0 0 0 0 0 0 0 3 3 3 3
0 0 0 0 0 0 0 0 6 10 16 26 29 35 32 23 19 16 13 13 13 6 6 3 3 0 3 3 3 3 3 3 3 3 3 0 0 0 0 0 0 0 0 0 0 0 3 3 3
0 0 0 0 3 3 0 3 3 16 19 26 23 29 26 23 19 13 10 6 3 3 0 0 0 0 0 3 3 3 3 0 0 0 0 0 0 0 0 0 0 0 0 0 0 0 0 0 3
0 0 0 0 0 0 3 0 6 6 19 26 29 26 19 16 16 6 6 0 0 0 0 0 0 0 0 0 3 0 0 0 0 0 0 0 0 0 0 0 0 0 0 0 0 0 0 0 3

GEFSSGP_con_cape1000_150.txt.gz
Probability
0 0 0 0 0 0 0 0 3 6 26 26 32 39 42 35 23 39 45 74 90 94 100 100 100 100 100 100 100 100 100 100 100 100 100 100 100 100 100 100 100 100 100 97 97 97 97 97 97
0 0 0 0 0 0 0 0 6 16 29 42 55 52 42 65 68 65 71 81 90 94 94 100 100 100 100 100 100 100 100 100 100 100 100 100 100 100 100 100 100 100 100 97 97 97 97 97 97
0 0 0 0 0 0 0 3 13 26 52 68 77 71 74 71 74 65 74 90 90 94 97 100 100 100 100 100 100 100 100 100 100 100 100 100 100 100 100 100 100 100 100 97 97 97 97 97 97
0 0 0 0 0 0 0 0 6 29 58 58 68 77 74 74 71 65 77 90 94 94 97 100 100 100 100 100 100 100 100 100 100 100 100 100 100 100 100 100 100 100 100 97 94 97 97 97 94
0 0 0 0 0 0 0 0 10 32 55 68 68 68 71 74 74 77 84 84 90 90 97 97 97 100 100 100 100 100 100 100 100 100 100 100 100 100 100 100 100 97 97 94 90 97 97 97 97
0 0 0 0 0 3 3 0 13 32 42 45 55 65 65 77 77 77 81 81 84 90 90 90 97 97 97 100 100 100 100 100 100 100 100 100 97 97 97 97 97 97 97 94 94 90 94 94 97
0 0 0 0 0 0 3 6 13 23 45 42 39 48 58 68 58 68 81 74 74 84 84 84 87 90 90 94 94 94 97 97 97 97 97 94 97 97 97 97 94 94 87 90 90 87 94 97 94
0 0 0 0 0 0 6 16 23 29 35 26 45 55 65 58 61 55 61 68 71 74 74 74 84 84 84 84 90 87 84 84 90 90 87 87 87 87 90 90 90 87 84 81 84 84 87 90 94
0 0 0 0 0 0 3 16 45 45 42 39 52 65 65 65 65 58 61 65 65 65 65 68 68 74 74 74 77 81 74 74 74 71 74 71 58 55 71 84 90 87 84 84 87 81 84 84 81
0 0 0 0 3 6 13 29 45 48 45 55 71 68 65 55 52 48 55 58 52 52 52 45 55 61 61 65 61 65 61 48 48 52 52 52 45 35 45 65 81 87 87 84 81 81 81 68 39
0 0 0 0 0 3 13 13 32 52 52 55 68 74 61 55 48 42 45 48 48 42 52 42 45 48 48 52 45 45 45 45 42 35 35 32 35 32 35 32 42 52 58 39 48 48 52 52 32
0 0 3 3 6 10 16 26 42 55 52 61 65 61 52 55 52 42 39 35 35 35 35 45 39 39 39 39 39 42 39 32 32 29 29 35 32 26 19 19 23 23 32 32 32 29 32 35 23
0 0 3 0 6 19 26 32 45 48 52 61 61 55 58 55 48 42 35 29 32 29 35 29 29 35 32 32 32 29 29 26 29 23 23 19 23 19 19 13 13 26 26 26 19 16 26 26 13
0 3 3 0 6 19 35 39 45 48 52 55 52 48 55 52 39 39 32 32 32 32 39 39 35 16 26 26 29 26 23 23 16 19 19 19 16 19 10 13 6 3 6 10 16 16 13 6 3
0 3 3 0 0 13 29 35 39 45 45 48 48 48 52 45 35 39 29 23 19 19 26 29 26 23 19 23 19 16 16 19 16 13 16 16 16 13 13 6 6 3 6 6 6 10 3 0 3
0 0 0 0 0 3 13 32 32 39 42 45 48 42 45 32 32 23 26 19 16 16 16 26 26 13 10 13 16 13 16 13 13 16 16 16 13 13 10 10 6 10 10 10 10 6 3 3 3
0 0 0 0 0 0 3 19 39 39 39 42 42 35 29 26 19 19 19 16 16 16 16 16 16 13 13 13 10 10 13 13 16 13 13 13 10 10 6 10 13 10 6 6 6 3 3 3 3
0 0 0 0 0 0 16 23 42 39 39 42 35 26 26 26 19 19 16 16 16 13 10 10 10 6 10 10 10 10 6 6 6 3 0 6 10 6 6 6 10 6 6 6 6 6 6 3 3
0 0 0 0 0 3 16 26 39 42 42 39 35 29 26 23 19 19 19 16 23 16 13 13 10 10 6 10 3 3 10 6 6 3 0 3 3 3 6 6 6 6 6 6 6 6 6 3 0
0 0 0 0 3 3 6 19 23 35 39 35 29 23 23 19 23 16 13 16 16 13 13 13 10 6 6 3 6 3 3 3 3 3 3 3 6 6 6 3 3 3 6 6 3 3 3 0 0
0 0 0 0 0 0 6 13 13 19 23 26 23 23 16 26 19 19 19 16 16 13 13 10 10 6 3 6 3 3 3 3 3 3 3 3 3 3 3 6 3 0 0 0 0 0 3 0 0
0 0 0 0 0 0 0 0 10 16 16 13 19 19 23 19 16 13 16 16 16 13 10 10 10 6 3 3 3 3 3 3 3 3 3 3 3 3 3 3 0 0 0 0 0 0 0 0 0
0 0 0 0 0 0 0 0 0 13 13 13 13 16 19 16 16 13 13 16 13 13 10 6 6 6 6 6 3 3 3 3 3 6 3 3 3 3 3 0 0 0 0 0 0 0 0 0 0
0 0 0 0 0 0 0 0 0 3 10 10 10 10 16 19 16 13 13 13 13 10 10 6 6 6 6 6 6 6 6 6 6 6 3 3 3 0 0 0 0 0 0 0 0 0 0 0 0
0 0 0 0 0 0 0 0 0 0 0 10 3 13 13 16 16 13 13 13 10 10 10 6 6 6 6 6 6 6 6 6 6 6 3 3 3 0 0 0 0 0 0 0 0 0 0 0 0
0 0 0 0 0 0 0 0 0 0 0 0 3 13 10 13 13 13 13 10 6 10 10 6 6 6 3 3 3 3 3 6 6 6 3 3 0 0 0 0 0 0 0 0 0 0 0 0 0
0 0 0 0 0 0 0 0 0 0 3 0 6 13 13 16 10 10 6 6 6 6 6 6 3 3 3 3 3 3 3 3 3 3 3 3 0 0 0 0 0 0 0 0 0 0 0 0 0
0 0 0 0 0 0 0 0 0 0 0 3 3 6 6 10 6 6 6 6 6 3 0 0 0 0 0 0 0 3 3 3 3 3 3 3 0 0 0 0 0 0 0 0 0 0 0 0 0
0 0 0 0 0 0 0 0 0 0 0 3 3 3 3 6 6 6 6 6 0 0 0 0 0 0 0 0 0 0 0 3 3 3 3 0 0 0 0 0 0 0 0 0 0 0 0 0 0
0 0 0 0 0 0 0 0 0 0 3 3 0 0 0 3 6 6 6 0 0 0 0 0 0 0 0 0 0 0 0 0 3 3 0 0 0 0 0 0 0 0 0 0 0 0 0 0 0

GEFSSGP_con_cape1000_156.txt.gz
Probability
0 0 0 0 0 0 0 0 0 6 13 19 10 10 13 10 3 6 23 55 71 77 97 100 100 100 100 100 100 100 100 100 100 100 100 100 100 100 100 100 100 100 100 100 97 97 94 94 94
0 0 0 0 0 0 0 0 6 3 19 35 45 55 58 68 65 65 68 74 77 81 97 100 100 100 100 100 100 100 100 100 100 100 100 100 100 100 100 100 100 100 100 100 94 97 97 97 97
0 0 0 0 0 0 0 0 6 19 55 68 65 74 71 74 74 68 68 77 74 84 94 100 100 100 100 100 100 100 100 100 100 100 100 100 100 100 100 100 100 100 100 100 94 94 97 97 94
0 0 0 0 0 0 0 3 10 35 48 55 68 55 65 74 68 74 71 81 81 87 94 100 100 100 100 100 100 100 100 100 100 100 100 100 100 100 100 100 100 100 100 100 97 90 90 94 90
0 0 0 0 0 0 0 3 6 32 42 52 55 61 61 71 71 77 84 90 90 90 94 94 100 100 100 100 100 100 100 100 100 100 100 100 100 100 100 97 100 100 94 94 90 97 97 94 90
0 0 0 0 3 0 0 3 10 29 39 55 65 65 74 74 74 81 81 84 87 87 90 94 94 97 97 100 97 97 97 97 97 97 100 100 97 97 97 97 94 90 90 90 90 84 87 90 87
0 0 0 0 0 3 0 3 6 23 45 52 52 68 81 71 74 71 74 77 77 81 81 84 84 90 90 90 94 94 94 94 97 97 90 94 94 94 94 94 90 90 87 84 84 84 84 90 94
0 0 0 0 0 0 3 10 19 23 35 42 45 65 68 74 68 77 77 77 77 77 81 81 81 77 81 84 90 87 84 81 81 81 81 77 81 81 90 90 87 87 84 81 87 81 84 84 84
0 0 0 0 0 0 3 19 26 29 32 48 55 58 77 74 71 71 71 71 74 71 58 58 65 65 71 71 74 71 71 71 65 65 71 65 52 52 58 74 87 87 87 90 90 81 74 77 77
0 0 0 0 0 0 16 23 23 32 45 61 65 74 81 74 61 48 52 52 61 68 55 52 55 55 61 68 58 55 55 55 55 55 52 52 48 42 45 58 65 74 77 68 65 65 65 58 52
0 0 0 0 0 3 13 16 23 29 39 61 74 77 71 65 52 45 39 35 42 48 55 45 52 48 45 48 48 48 45 45 45 48 48 39 39 29 29 29 42 42 42 42 45 45 39 48 42
0 0 0 3 0 3 10 26 35 39 48 52 74 71 68 58 42 35 32 26 35 35 39 35 32 35 42 45 45 42 42 45 39 35 39 23 19 13 10 10 16 13 16 16 29 19 16 26 32
0 3 0 3 6 13 13 29 45 61 68 68 68 61 48 45 35 32 35 26 29 29 29 29 29 26 29 35 39 42 39 29 26 19 19 23 19 19 13 10 10 10 10 19 16 10 10 10 13
0 3 0 3 16 16 23 32 45 61 61 61 58 55 48 42 35 32 29 26 23 19 19 23 26 26 26 26 26 23 23 16 16 16 16 16 19 16 16 6 10 10 6 13 10 10 10 10 6
3 3 3 0 16 23 29 29 39 48 58 55 55 52 45 35 32 35 35 26 23 23 23 19 19 16 16 16 10 13 13 13 10 10 10 16 16 10 10 6 6 6 3 3 3 3 6 6 6
3 0 0 0 13 13 6 23 39 45 55 48 45 42 48 35 32 32 26 23 16 16 16 16 16 16 13 10 10 6 6 6 6 6 6 6 13 16 10 6 6 6 6 3 6 3 3 3 0
0 0 0 3 3 6 13 26 42 48 45 45 45 42 35 32 32 26 26 16 10 10 6 10 13 10 13 6 3 6 3 3 3 3 3 6 10 13 6 6 6 6 6 3 6 0 0 0 0
0 0 0 3 0 6 13 23 35 39 42 45 45 42 35 32 32 26 16 13 6 6 6 3 3 3 3 3 3 3 3 3 3 3 6 6 10 6 3 6 3 3 6 6 6 0 0 0 0
0 0 0 0 0 13 16 19 32 32 42 45 42 42 32 29 16 10 3 3 6 6 6 3 0 3 3 3 3 3 3 3 3 3 0 3 3 3 3 6 3 0 6 3 0 0 0 0 0
0 0 0 0 0 10 16 19 29 32 35 45 42 35 29 19 16 13 3 3 6 10 6 3 0 3 3 3 3 3 0 0 3 3 0 0 0 3 3 3 3 0 0 0 0 0 0 0 0
0 0 0 0 0 3 16 16 19 19 26 26 23 23 23 26 19 16 16 10 6 10 6 6 0 3 3 3 3 0 0 0 0 0 0 0 3 3 3 0 3 0 0 0 0 0 0 0 0
0 0 0 0 0 0 0 3 13 19 26 29 23 19 16 26 19 16 13 13 6 10 3 3 3 3 3 3 3 3 0 0 0 0 0 0 0 3 3 3 0 0 0 0 0 0 0 0 0
0 0 0 0 0 0 0 0 6 13 19 23 23 19 16 19 19 23 16 16 13 6 6 3 3 3 3 3 3 3 0 0 0 0 0 0 0 3 3 0 0 0 0 0 0 0 0 0 0
0 0 0 0 0 0 0 0 3 10 16 16 16 16 23 23 23 19 10 10 6 3 6 6 3 3 3 3 3 3 0 0 0 0 0 0 0 0 0 0 0 0 0 0 0 0 0 0 0
0 0 0 0 0 0 0 0 0 0 3 6 16 13 13 19 16 13 6 6 6 3 6 3 3 3 3 3 3 0 0 0 0 0 0 0 0 0 0 0 0 0 0 0 0 0 0 0 0
0 0 0 0 0 0 0 0 0 0 0 3 6 6 10 16 16 10 3 3 3 6 6 3 3 0 0 0 3 3 0 0 0 0 0 0 3 0 0 0 0 0 0 0 0 0 0 0 0
0 0 0 0 0 0 0 0 0 3 6 3 0 3 10 10 6 6 6 3 3 6 6 3 3 0 0 0 0 0 0 0 0 3 0 0 3 0 0 0 0 0 0 0 0 0 0 0 0
0 0 0 0 0 0 0 0 0 0 3 3 6 10 6 3 6 6 6 3 3 6 6 3 3 0 0 0 0 0 0 0 0 0 0 0 0 0 0 0 0 0 0 0 0 0 0 0 0
0 0 0 0 0 0 0 0 0 0 3 3 3 0 3 3 6 6 6 3 3 6 6 3 3 0 0 0 0 0 0 0 0 0 0 0 0 0 0 0 0 0 0 0 0 0 0 0 0
0 0 0 0 0 0 0 0 0 3 3 3 3 0 0 3 3 6 6 3 6 6 6 3 0 0 0 0 0 0 0 0 0 0 0 0 0 0 0 0 0 0 0 0 0 0 0 0 0

GEFSSGP_con_cape1000_162.txt.gz
Probability
0 0 0 0 0 0 0 0 0 6 13 16 10 10 13 13 13 65 71 42 39 58 65 68 100 100 100 100 100 100 100 100 100 100 100 100 100 100 100 100 97 100 97 97 94 90 90 90 90
0 0 0 0 0 0 0 3 6 10 42 32 29 39 35 65 81 65 52 48 58 65 77 68 97 100 100 100 100 100 100 100 100 100 100 97 97 97 100 100 100 97 94 94 90 90 84 90 87
0 0 0 0 0 0 0 6 16 39 42 48 55 61 65 71 74 61 65 55 55 74 81 90 100 100 100 100 100 100 100 100 100 100 100 100 100 100 100 100 100 100 97 90 87 87 84 87 90
0 0 0 0 0 0 6 13 19 39 45 48 58 68 74 77 71 65 65 48 58 68 74 87 100 100 100 100 100 100 100 100 100 100 100 97 97 97 97 97 97 97 94 90 87 84 81 81 84
0 0 0 0 0 3 10 23 26 39 52 55 58 65 77 84 87 74 65 52 52 68 68 77 97 97 97 94 94 94 97 100 97 97 97 97 94 94 94 90 90 94 94 87 81 84 87 84 84
0 0 0 0 0 6 23 23 35 42 48 58 52 61 81 84 84 74 65 65 61 71 74 81 94 94 90 90 90 94 94 94 94 90 90 84 90 94 94 90 90 87 90 87 84 84 87 87 87
0 0 0 0 3 16 23 26 32 35 48 52 58 68 81 87 87 77 71 68 71 71 74 74 81 94 90 94 94 94 94 90 90 87 87 84 84 84 84 84 84 81 84 84 77 77 77 87 87
0 0 0 0 3 13 16 26 29 48 58 61 58 61 84 94 87 74 74 71 61 61 71 84 77 81 87 87 81 81 81 81 81 81 77 74 74 77 81 81 84 77 77 74 71 68 81 84 84
0 0 0 0 3 13 19 32 35 48 68 68 68 68 84 84 84 90 81 74 68 65 68 68 71 77 74 71 74 77 71 71 74 71 68 65 68 52 61 55 61 68 71 68 68 71 71 68 74
0 0 0 3 6 13 23 32 42 52 58 71 74 84 90 84 84 84 74 71 74 74 71 68 74 71 68 58 68 68 68 68 68 68 68 65 65 61 48 55 58 61 68 61 61 65 58 61 61
0 0 0 3 16 19 26 39 52 42 45 58 68 77 84 74 68 71 68 61 68 77 71 65 68 74 71 65 65 68 65 65 68 68 68 68 61 58 55 58 58 58 45 58 48 58 58 42 48
0 0 3 13 19 29 35 42 52 48 45 55 65 81 77 71 71 68 61 55 65 68 68 68 68 71 68 65 65 68 65 65 65 65 61 58 65 65 61 65 52 48 52 48 42 52 42 42 39
0 13 19 26 26 29 39 45 42 45 55 68 77 74 77 77 71 65 61 65 58 58 58 68 71 74 74 71 68 65 65 65 65 65 58 58 58 55 55 58 61 58 48 39 48 39 39 45 23
3 13 19 19 29 29 29 45 52 52 58 68 74 68 71 71 71 71 65 58 58 61 58 65 71 68 68 71 71 65 65 61 52 52 52 45 48 45 48 48 55 52 42 45 52 42 39 32 29
6 10 13 16 19 23 23 39 42 52 61 58 65 65 68 71 74 71 58 55 52 58 61 58 55 61 65 61 58 58 55 52 45 48 39 35 39 42 39 35 45 45 35 39 39 29 35 32 29
6 6 6 10 13 10 19 26 39 45 61 65 68 58 65 71 65 61 61 55 52 52 58 52 42 52 58 58 52 45 35 35 32 29 29 29 32 32 42 42 39 39 39 39 35 32 29 29 35
3 0 0 6 6 10 16 23 45 58 55 55 61 55 65 61 55 48 42 45 42 42 42 45 39 45 48 45 45 32 32 32 23 26 26 29 29 23 26 32 35 32 32 32 19 23 23 26 23
0 0 0 0 3 0 3 19 39 55 55 58 61 61 55 52 52 45 45 35 42 42 39 32 32 29 35 26 26 23 23 23 19 19 26 23 26 23 23 23 29 29 26 26 23 19 26 26 23
0 0 0 0 3 3 10 16 39 55 61 58 58 61 52 55 45 35 35 35 35 29 32 32 29 26 23 29 26 19 13 16 13 16 19 19 16 13 19 23 26 23 23 19 16 16 19 16 16
0 0 0 3 3 3 6 13 42 48 61 58 58 61 52 48 35 35 29 32 35 29 29 29 26 23 23 19 13 13 16 13 13 6 10 10 13 13 6 16 19 19 23 19 13 13 16 16 10
0 0 0 0 3 0 3 6 32 42 39 52 55 61 55 58 39 29 32 32 32 29 26 26 23 23 23 16 10 10 13 10 6 6 10 10 6 6 10 10 10 13 13 16 13 13 10 10 6
0 0 0 0 0 0 0 0 13 32 35 39 48 58 58 55 45 39 29 32 26 26 26 26 19 19 16 13 10 10 13 6 10 10 10 6 6 6 6 6 10 13 13 13 10 6 10 3 3
0 3 3 3 3 3 3 0 0 32 32 32 42 52 52 52 42 45 29 29 23 23 23 19 19 16 16 16 19 16 16 10 6 6 6 6 6 6 6 6 6 6 10 10 10 10 6 3 3
0 3 3 3 0 0 0 0 3 23 26 29 32 39 39 42 42 42 29 29 26 23 23 19 19 19 16 13 13 16 13 13 13 10 6 6 6 6 6 6 6 6 6 6 6 6 3 3 3
0 0 0 0 0 0 0 0 0 10 16 23 23 32 29 26 32 39 26 29 29 23 19 19 19 19 16 13 10 10 13 13 6 6 6 3 6 10 6 6 6 6 6 6 6 3 3 0 0
0 0 0 0 0 0 0 3 3 19 16 23 19 32 23 26 23 26 26 26 23 19 19 19 19 19 16 16 16 13 10 13 6 3 3 6 6 3 6 6 6 6 6 0 0 3 0 0 3
0 0 0 0 0 0 0 0 6 10 16 23 29 29 19 19 23 29 26 26 19 19 19 19 19 19 16 13 16 16 13 13 3 6 3 3 3 3 6 6 6 3 3 3 0 0 0 3 6
0 0 0 0 0 0 0 0 0 10 19 19 35 29 23 23 26 19 23 19 19 19 19 16 19 16 16 13 13 13 13 10 6 3 3 6 6 3 6 3 3 3 3 0 0 0 3 3 3
0 0 0 0 0 0 0 0 0 19 39 35 29 29 19 19 19 13 10 10 13 13 16 13 13 13 13 13 13 13 10 10 6 6 6 6 6 6 6 3 3 3 3 0 0 0 0 0 0
0 0 0 0 0 0 0 0 10 16 26 32 29 13 23 13 10 10 10 10 10 13 13 10 10 10 10 10 10 6 6 6 6 6 6 6 6 3 3 3 3 0 0 0 0 0 0 0 0

GEFSSGP_con_cape1000_168.txt.gz
Probability
0 0 0 0 0 0 0 0 3 3 6 6 10 23 45 61 71 77 35 42 52 42 55 97 100 100 100 100 100 100 100 100 100 97 97 100 100 100 87 87 90 84 81 77 71 74 68 74 74
0 0 0 0 0 0 0 3 6 10 6 6 16 42 61 52 58 48 42 58 65 55 58 77 100 100 100 100 100 100 100 100 97 100 97 87 87 87 90 81 77 74 81 68 68 71 71 68 77
0 0 0 0 0 0 0 3 6 6 10 16 42 52 55 52 52 45 52 55 61 55 77 100 100 100 100 100 97 97 97 97 97 90 84 87 84 84 81 84 77 74 81 74 71 77 77 68 68
0 0 0 0 0 0 3 3 13 16 16 32 45 61 65 58 55 61 55 58 68 65 74 94 97 97 97 94 94 94 90 84 84 87 84 77 77 74 74 71 71 71 68 71 65 68 71 68 65
0 0 0 0 0 0 0 3 6 19 19 35 48 61 77 65 61 58 52 61 61 58 65 90 97 97 97 94 94 94 87 81 81 81 84 84 74 74 68 71 74 71 71 71 71 71 77 71 71
0 0 0 0 0 0 13 6 13 23 16 32 55 65 74 65 58 61 58 52 58 61 65 90 97 97 97 94 94 94 90 84 87 87 77 74 77 68 71 74 77 77 71 68 61 65 74 74 74
0 0 0 0 3 3 6 10 16 23 19 29 55 71 74 68 68 71 61 58 55 48 68 71 81 94 94 90 87 81 84 84 84 74 68 71 71 74 74 77 74 71 74 77 68 61 55 71 74
0 0 0 0 0 6 6 16 10 29 32 35 48 65 71 81 71 77 65 58 61 55 55 61 65 77 77 81 81 81 81 77 81 68 68 71 74 71 77 81 71 68 71 65 68 71 71 77 77
0 0 0 0 0 3 6 16 23 29 35 45 48 68 74 77 77 77 68 61 52 55 65 65 68 68 68 68 68 74 74 71 71 68 71 68 71 65 74 65 74 61 61 65 61 65 74 77 84
0 0 0 0 0 3 6 16 32 26 48 52 58 68 68 71 77 71 65 58 55 55 58 55 55 61 65 58 74 71 68 74 74 71 68 74 71 68 58 52 65 65 68 65 68 68 71 68 58
0 0 0 0 6 10 10 23 32 29 32 48 55 65 65 74 71 68 61 58 65 61 61 55 58 65 55 68 71 71 71 68 65 65 68 65 68 65 65 68 71 71 55 55 52 58 55 55 58
0 3 3 10 10 16 16 26 19 32 35 48 45 61 68 71 68 61 61 61 58 61 61 61 68 65 71 71 71 71 68 68 68 61 65 71 68 68 71 74 65 58 58 55 55 58 52 55 45
0 3 3 13 10 13 13 16 32 35 35 39 45 52 55 65 61 61 65 68 71 58 65 68 71 65 71 71 68 71 71 65 65 65 61 65 68 65 68 61 61 55 55 52 48 42 42 42 39
3 3 6 13 10 10 16 16 29 35 39 39 52 52 45 52 55 55 68 74 74 74 71 74 71 71 71 71 71 71 68 68 58 58 55 55 52 55 55 52 55 55 55 42 45 39 35 35 39
3 3 6 10 6 10 16 16 23 32 42 45 48 48 45 52 52 61 71 74 77 77 77 74 68 71 71 68 65 65 61 58 52 52 52 45 45 45 48 45 42 48 45 42 42 39 39 32 29
3 3 3 3 3 10 10 16 26 32 35 42 45 52 52 55 58 68 74 77 77 71 74 71 55 58 65 61 65 55 55 55 52 48 48 29 32 35 39 32 35 39 32 32 35 35 23 23 23
0 3 3 3 3 3 3 16 26 35 39 35 42 52 58 65 65 61 74 71 71 71 68 61 61 58 55 61 58 61 58 52 48 45 42 35 26 26 32 39 39 39 32 29 29 32 26 23 23
0 0 0 3 0 3 6 23 32 35 29 29 42 45 61 58 61 68 65 65 68 68 61 61 55 58 61 61 58 52 45 35 35 39 39 26 23 23 26 35 32 35 32 35 29 23 26 23 23
0 0 0 0 3 6 10 32 26 32 32 32 42 45 61 61 55 52 58 65 58 58 58 61 58 58 61 55 52 48 39 35 35 35 26 16 19 23 32 29 42 35 26 29 19 19 16 19 16
0 0 0 0 0 6 10 19 26 29 29 32 42 42 45 58 48 48 55 55 58 61 58 58 52 52 48 48 52 52 35 35 29 26 19 13 16 16 10 23 26 29 26 26 19 13 13 13 13
0 0 0 0 0 0 3 16 26 26 29 29 42 42 39 42 55 45 52 55 48 45 48 42 39 39 42 35 32 26 29 29 23 19 16 16 16 13 13 13 16 16 19 16 13 6 6 6 10
0 0 0 0 0 0 0 6 16 23 29 35 39 42 45 48 45 42 48 48 45 39 39 39 42 39 32 29 29 26 23 23 16 10 10 10 6 6 13 13 10 10 10 13 6 6 6 6 6
0 0 0 0 0 0 0 0 3 13 19 32 42 39 45 39 29 39 42 45 45 39 32 32 29 29 26 26 23 23 23 23 16 13 10 10 6 6 3 10 6 6 13 10 10 6 6 6 6
0 0 0 0 0 0 0 0 0 0 13 35 35 32 48 45 39 32 39 45 42 32 29 26 26 32 26 23 19 23 19 16 13 13 13 10 10 6 6 10 6 10 10 6 10 10 6 6 6
0 0 0 0 0 0 0 3 0 3 13 23 35 32 39 42 39 35 42 42 39 32 23 26 32 29 26 23 19 23 19 16 16 10 10 10 6 6 6 3 6 6 6 6 6 10 6 6 6
0 0 0 0 0 0 0 0 10 6 16 26 32 32 39 35 35 42 39 35 32 26 26 26 26 23 23 19 26 23 16 16 16 13 10 6 6 6 6 10 6 6 6 6 6 6 6 6 6
0 0 0 0 0 0 0 6 10 16 23 23 26 29 35 35 42 35 32 29 26 23 19 23 26 23 29 19 23 19 19 19 16 16 6 6 10 3 3 6 6 6 6 6 6 6 3 3 3
0 0 0 0 0 0 0 0 16 19 26 23 32 19 29 29 29 23 32 23 23 19 23 23 23 23 19 19 19 19 19 19 16 16 10 10 10 6 6 6 6 6 6 10 6 3 3 3 3
0 0 0 0 0 0 0 0 6 26 35 35 29 29 29 23 32 23 26 23 23 19 19 23 23 23 19 19 19 19 16 13 13 10 10 10 6 13 13 10 6 6 6 6 3 3 3 3 3
0 0 0 0 0 0 0 10 6 19 29 39 39 32 39 32 32 19 16 16 16 16 16 23 19 19 16 16 16 16 13 13 13 10 10 10 10 10 10 10 10 6 3 3 3 3 0 0 0

GEFSSGP_con_cape1000_174.txt.gz
Probability
0 0 0 0 0 0 0 0 0 3 10 23 23 16 16 16 6 6 3 6 35 68 97 100 100 100 100 100 100 100 100 100 100 100 100 97 97 94 94 90 84 87 81 71 61 65 65 58 61
0 0 0 0 0 0 0 0 6 10 13 19 23 23 29 32 23 19 6 19 42 71 94 97 100 100 100 100 100 100 100 100 97 97 97 97 94 90 90 81 81 81 68 58 52 48 55 58 58
0 0 0 0 0 0 0 3 6 13 23 29 32 39 35 42 35 32 10 19 35 65 84 97 100 100 100 94 94 94 94 97 94 87 87 87 90 84 77 71 68 68 68 68 68 61 61 61 65
0 0 0 0 0 0 3 3 16 16 23 35 29 35 42 45 55 26 23 26 35 68 87 97 97 97 94 94 94 94 90 90 84 84 87 84 77 77 74 68 61 58 58 65 55 58 61 65 61
0 0 0 0 0 0 0 0 13 10 23 39 32 42 48 42 45 39 32 32 42 68 87 94 97 97 94 94 94 94 87 87 87 81 77 77 71 77 74 71 68 65 61 58 61 68 68 65 65
0 0 0 0 0 3 3 3 6 19 26 29 42 42 45 45 52 45 42 35 48 71 77 94 94 94 94 94 94 94 90 87 90 84 81 74 77 71 68 65 71 65 52 58 61 68 61 65 61
0 0 0 0 0 3 0 0 3 16 23 32 35 39 42 42 35 42 45 39 48 61 74 81 87 94 94 90 90 87 87 87 81 81 77 77 74 71 71 71 65 68 61 61 61 58 58 65 74
0 0 0 0 0 6 3 3 13 16 26 29 42 39 42 42 42 39 35 39 48 55 71 74 77 74 77 84 84 84 84 81 81 81 77 74 71 65 77 74 71 61 55 52 52 55 68 71 77
0 0 0 0 0 10 16 6 19 29 29 35 39 39 35 35 35 35 42 29 39 48 55 71 68 71 71 68 74 74 74 74 71 68 65 68 55 55 55 58 68 52 45 45 52 55 71 71 71
0 0 0 0 3 3 13 10 16 19 29 39 39 42 42 32 32 29 35 35 39 39 39 48 55 58 58 61 61 58 58 52 52 52 55 48 45 35 48 45 52 52 45 45 48 52 48 42 29
0 0 0 6 3 3 3 6 13 23 23 32 35 32 35 35 29 26 29 32 26 32 32 23 26 35 39 45 45 45 45 48 42 42 39 35 32 32 32 26 35 39 42 42 32 26 19 13 16
0 0 3 6 6 6 3 6 13 19 19 26 39 39 35 35 39 32 23 26 29 23 26 23 29 32 32 35 42 42 42 39 35 39 42 32 23 23 19 16 10 16 16 10 16 16 13 13 16
0 3 6 6 13 10 13 16 19 26 23 35 42 42 32 42 32 32 26 23 32 35 39 32 35 35 26 29 32 35 35 35 32 26 29 23 19 10 10 13 10 6 6 6 6 3 3 10 13
3 10 6 3 10 13 13 16 23 26 29 35 35 42 39 42 39 42 35 32 29 35 32 39 35 32 32 35 35 35 32 32 19 16 19 10 10 13 10 6 3 3 3 3 3 3 3 0 3
6 6 3 3 10 10 13 13 23 26 32 32 32 39 45 45 42 45 39 29 29 23 29 32 35 29 32 32 35 29 29 29 13 13 10 13 13 13 6 6 0 0 0 3 3 0 3 3 0
3 0 0 0 6 3 3 10 19 23 19 19 26 35 35 29 42 42 39 29 29 26 29 29 35 32 29 26 23 16 19 16 6 10 10 10 10 6 3 0 0 0 3 3 3 0 0 3 0
0 0 0 0 0 0 3 10 16 23 29 26 29 29 39 35 48 45 45 35 26 29 32 32 26 26 23 23 23 23 16 10 10 13 6 6 6 10 0 0 0 3 0 0 0 0 0 3 0
0 0 0 0 0 0 10 10 19 26 29 26 26 29 35 45 39 42 45 42 29 29 23 26 26 26 23 19 19 19 16 13 6 6 10 10 6 10 3 0 3 0 0 0 0 0 0 0 3
0 0 0 0 0 3 10 13 16 19 29 26 29 26 29 35 32 32 32 39 29 19 19 26 26 19 19 19 16 16 13 10 6 6 3 6 6 6 3 0 0 0 0 0 0 0 0 0 0
0 0 0 0 0 6 3 6 10 16 23 26 29 29 32 29 26 29 32 32 29 23 19 16 23 23 19 19 16 13 6 6 0 0 0 0 0 0 3 0 0 0 0 0 0 0 0 0 0
0 0 0 3 3 3 10 13 13 6 19 19 19 23 26 26 23 29 35 35 32 26 16 16 19 19 19 19 13 13 6 0 0 0 0 0 0 0 0 0 0 0 0 0 0 0 0 0 0
0 0 0 3 0 0 0 0 6 10 16 16 19 26 32 29 32 29 35 35 29 26 19 16 16 19 19 19 16 13 6 3 0 0 0 0 0 0 0 0 0 0 0 0 0 0 0 0 0
0 0 0 0 0 0 0 0 0 3 10 13 19 29 29 29 32 29 29 32 29 23 19 16 16 16 19 19 16 10 3 0 0 0 0 0 0 0 0 0 0 0 0 0 0 0 0 0 0
0 0 0 0 0 0 0 0 0 3 6 6 16 26 29 29 32 19 23 23 16 13 10 16 13 16 16 16 10 3 0 0 0 0 0 0 0 0 0 0 0 0 0 0 0 0 0 0 0
0 0 0 0 0 0 0 0 0 3 6 6 10 16 19 29 29 23 13 13 13 13 10 16 13 13 13 10 13 3 0 0 0 0 0 0 0 0 0 0 0 0 0 0 0 0 0 0 0
0 0 0 0 0 0 0 3 3 0 0 0 0 3 13 32 23 13 10 10 13 10 13 16 13 13 10 6 6 3 0 0 0 0 0 0 0 0 0 0 0 0 0 0 0 0 0 0 0
0 0 0 0 0 0 0 3 0 10 3 6 6 10 16 16 23 16 10 10 6 10 13 16 13 10 10 6 6 3 3 0 0 3 0 0 0 0 0 0 0 0 0 0 0 0 0 0 0
0 0 0 0 0 0 0 0 6 6 13 10 10 10 19 23 16 13 10 10 10 10 10 13 10 10 10 6 3 3 3 3 3 3 3 0 0 0 0 0 0 0 0 0 0 0 0 0 0
0 0 0 0 0 0 0 0 3 6 10 13 10 13 16 16 13 10 13 6 3 6 6 10 6 6 6 6 6 3 3 3 0 0 0 0 0 0 0 0 0 0 0 0 0 0 0 0 0
0 0 0 0 0 0 0 3 3 6 10 6 13 13 13 10 6 6 6 6 6 10 10 10 10 6 3 3 3 3 3 0 3 3 0 0 0 0 0 0 0 0 0 0 0 0 0 0 0

GEFSSGP_con_cape1000_180.txt.gz
Probability
0 0 0 0 0 0 0 0 0 3 10 10 3 0 0 0 0 0 0 6 19 58 87 94 97 97 100 100 100 97 100 100 97 97 94 94 90 90 90 87 87 87 77 71 61 55 58 45 48
0 0 0 0 0 0 0 0 0 3 13 6 16 19 19 19 10 10 13 19 45 74 90 94 97 97 100 97 97 97 94 94 94 90 90 87 87 87 87 71 71 68 65 61 52 52 48 48 55
0 0 0 0 0 0 0 3 6 10 16 13 19 19 29 23 16 6 16 42 65 77 81 87 97 97 97 97 97 94 90 90 87 87 81 81 77 74 74 61 65 65 55 52 48 45 52 52 52
0 0 0 0 0 0 0 3 10 16 3 10 19 26 32 32 19 16 32 61 71 77 81 94 97 97 97 94 94 90 90 90 87 84 84 81 74 81 71 65 58 61 55 55 55 52 58 58 48
0 0 0 0 0 0 0 3 19 16 16 13 19 29 35 29 19 19 45 61 71 77 77 94 97 97 94 90 90 90 90 87 84 84 81 74 77 77 74 71 61 58 58 58 65 61 65 61 52
0 0 0 0 0 0 0 3 3 23 13 19 26 26 26 26 10 19 29 52 61 74 77 87 97 97 90 90 90 90 87 87 81 77 74 71 77 71 68 68 61 52 48 55 65 58 55 65 58
0 0 0 0 0 3 3 0 10 13 10 6 23 32 29 29 19 19 29 39 58 71 74 77 87 90 94 94 90 87 81 77 81 77 71 71 71 71 74 71 71 58 55 52 48 48 48 58 65
0 0 0 0 0 3 3 0 16 13 16 10 35 29 26 26 29 29 26 39 58 68 65 68 71 74 77 74 81 77 74 74 74 71 68 61 65 58 61 65 65 55 55 45 35 42 42 65 68
0 0 0 0 0 3 0 10 6 19 16 19 26 26 35 35 45 32 32 35 52 58 52 61 61 58 58 68 74 68 71 71 65 65 61 58 55 48 48 55 55 48 45 39 42 39 42 45 48
0 0 0 0 0 3 6 10 10 16 19 23 35 42 39 39 39 32 32 35 42 45 52 55 58 55 61 61 55 55 55 55 52 48 48 48 39 29 48 48 52 52 45 45 42 42 42 32 29
0 0 3 6 6 6 0 0 10 19 16 19 32 42 42 42 42 32 29 29 29 32 39 42 45 58 55 52 52 48 45 42 42 42 39 32 32 26 29 26 32 29 29 32 32 29 23 19 16
0 3 3 0 0 0 0 3 13 16 13 23 29 39 39 42 39 32 32 23 23 19 29 42 42 45 52 48 52 45 45 42 42 39 29 26 26 19 19 13 13 13 10 10 3 6 10 10 10
3 6 6 0 3 3 3 13 13 10 19 29 32 35 35 35 42 35 29 26 26 26 19 32 45 42 35 29 29 42 35 42 32 26 23 26 19 16 13 10 3 3 3 0 3 3 0 3 6
0 6 6 3 3 3 10 13 16 19 26 29 29 32 35 39 35 26 23 23 23 23 26 26 29 29 29 19 19 23 23 19 16 16 16 16 10 3 0 0 0 0 0 3 0 0 0 0 0
0 3 3 0 0 6 10 19 19 23 19 35 39 42 32 39 39 29 29 16 10 13 16 16 16 23 16 16 13 6 6 6 3 3 3 6 10 3 0 0 0 0 0 0 0 0 0 0 0
0 0 0 0 0 3 3 13 16 19 26 39 39 35 32 32 26 23 26 10 13 10 10 13 16 10 3 3 6 6 3 3 3 3 3 3 6 3 0 0 0 0 0 0 0 0 0 0 0
0 0 0 0 0 0 0 13 13 16 26 32 39 32 26 32 29 23 19 19 10 3 10 6 10 6 3 6 3 3 3 3 3 3 3 3 3 0 0 0 0 0 0 0 0 0 0 0 0
0 0 0 0 0 0 6 10 13 10 19 29 26 32 39 35 26 26 26 19 13 3 3 6 6 10 10 6 3 3 3 3 0 0 3 3 3 3 0 0 0 0 0 0 0 0 0 0 0
0 0 0 0 0 3 6 6 10 13 16 19 23 29 35 39 29 29 23 16 10 13 13 10 10 10 6 10 6 3 3 3 0 0 0 3 3 3 3 0 0 0 0 0 0 0 0 0 0
0 0 0 0 0 0 10 6 10 13 13 19 19 32 35 35 23 16 26 19 16 13 10 10 10 10 10 10 3 3 3 0 0 0 0 0 3 3 3 0 0 0 0 0 0 0 0 0 0
0 0 0 0 0 6 3 10 16 13 6 16 19 29 23 26 19 23 19 19 26 16 10 10 10 10 6 6 3 0 0 0 0 0 0 0 0 0 0 0 0 0 0 0 0 0 0 0 0
0 0 0 0 0 0 0 0 6 13 10 13 16 16 13 10 13 13 13 13 10 13 13 10 10 10 10 3 0 0 0 0 0 0 0 0 0 0 0 0 0 0 0 0 0 0 0 0 0
0 0 0 0 0 0 0 0 0 3 13 13 10 13 16 6 6 10 16 13 10 13 6 10 10 10 10 6 3 0 0 0 0 0 0 0 0 0 0 0 0 0 0 0 0 0 0 0 0
0 0 0 0 0 0 0 0 0 0 0 0 3 16 19 6 6 10 16 10 6 10 6 6 6 6 6 10 3 0 0 0 0 0 0 0 0 0 0 0 0 0 0 0 0 0 0 0 0
0 0 0 0 0 0 0 0 0 0 0 0 0 13 10 10 10 10 10 10 6 10 6 6 6 6 6 10 6 0 0 0 0 0 0 0 0 0 0 0 0 0 0 0 0 0 0 0 0
0 0 0 0 0 0 0 0 0 0 3 3 0 6 10 10 6 6 13 10 6 13 6 6 6 6 6 10 6 0 0 0 0 0 0 0 0 0 0 0 0 0 0 0 0 0 0 0 0
0 0 0 0 0 0 0 0 0 0 3 3 3 3 6 3 3 10 13 6 6 6 3 6 6 6 10 10 6 0 0 0 0 0 0 0 0 0 0 0 0 0 0 0 0 0 0 0 0
0 0 0 0 0 0 0 0 0 3 3 3 3 6 10 6 10 13 13 6 3 0 3 3 3 6 10 6 3 3 0 0 0 0 0 0 0 0 0 0 0 0 0 0 0 0 0 0 0
0 0 0 0 0 0 0 0 3 3 6 0 0 3 13 10 10 6 6 3 0 3 3 3 3 3 6 6 3 3 0 0 0 0 0 0 0 0 0 0 0 0 0 0 0 0 0 0 0
0 0 0 0 0 0 0 0 3 0 3 3 0 6 3 10 6 6 3 3 0 0 0 3 3 3 3 3 3 3 0 0 0 0 0 0 0 0 0 0 0 0 0 0 0 0 0 0 0

GEFSSGP_con_cape1000_186.txt.gz
Probability
0 0 0 0 0 0 0 0 0 3 10 13 3 6 6 10 3 42 52 19 16 35 71 71 94 97 97 97 97 100 97 94 94 94 87 87 84 84 81 77 77 74 71 58 55 55 45 48 52
0 0 0 0 0 0 0 0 0 6 13 13 13 16 10 23 35 55 52 35 23 65 77 65 94 94 97 97 97 97 94 94 90 84 84 84 84 77 74 71 68 68 61 48 45 42 45 48 52
0 0 0 0 0 0 0 3 6 16 16 23 26 29 32 35 45 52 55 35 42 61 77 94 94 94 97 97 97 94 94 94 84 84 84 81 81 74 65 61 65 65 55 48 48 45 52 52 52
0 0 0 0 0 0 0 0 10 13 16 26 32 29 32 55 58 61 52 42 52 61 71 84 90 90 90 94 94 94 94 87 87 87 84 84 71 65 65 61 58 55 55 48 45 48 52 52 42
0 0 0 0 0 3 3 3 16 19 16 23 26 26 32 61 65 61 45 39 55 55 58 74 90 90 90 90 90 94 90 84 84 84 81 74 77 65 58 55 55 45 45 48 48 48 45 42 39
0 0 0 0 0 3 6 10 16 26 26 26 16 26 42 61 61 61 52 48 42 48 58 77 90 90 90 90 87 84 87 84 84 81 81 71 71 68 61 68 61 55 55 48 52 58 48 52 45
0 0 0 0 0 3 13 10 13 29 26 23 19 26 39 61 58 61 61 55 45 48 61 71 77 84 87 87 84 84 84 74 74 71 68 61 61 61 58 58 52 48 48 48 48 39 35 39 45
0 0 0 0 0 3 10 13 19 19 26 32 35 35 39 58 65 58 61 58 45 48 58 74 74 74 65 68 77 74 71 71 68 68 65 65 68 65 55 55 52 45 45 42 39 39 35 32 42
0 0 0 0 0 3 19 23 26 29 32 35 35 45 52 61 65 68 61 58 48 48 52 61 65 65 68 68 68 68 71 68 68 65 61 65 58 39 52 42 55 48 45 45 45 39 35 35 45
0 0 0 0 6 10 29 29 23 39 39 35 32 39 65 65 71 65 58 58 52 58 61 71 68 65 68 61 71 71 61 68 65 61 58 61 61 61 35 48 52 52 48 48 42 42 42 35 32
0 0 6 10 16 29 29 29 26 39 35 39 45 48 61 68 65 65 58 58 52 61 71 71 74 71 68 71 71 65 71 68 65 61 68 65 61 52 35 45 52 55 48 52 42 39 35 35 39
0 10 13 10 23 29 29 32 32 29 39 42 45 48 55 68 65 71 71 68 65 61 71 74 71 71 71 71 71 68 68 68 61 68 61 58 55 42 39 45 48 42 45 42 42 42 26 32 35
3 10 10 16 32 32 26 26 32 32 35 42 45 52 55 61 65 71 74 71 71 68 71 71 74 74 77 81 71 55 61 55 55 58 52 52 52 48 45 45 45 42 39 39 42 29 26 26 23
6 13 13 13 26 29 26 26 29 23 39 42 45 52 48 55 68 74 74 74 65 65 68 65 68 77 81 81 77 58 58 58 48 48 45 48 45 48 45 42 45 45 45 35 35 29 35 26 23
13 16 16 16 16 16 16 26 29 23 39 42 45 42 39 48 58 61 65 71 68 68 68 61 65 74 77 77 65 55 52 52 48 48 45 45 45 45 45 42 45 39 35 39 35 29 26 26 16
0 0 0 6 13 10 10 6 16 29 39 42 42 39 39 48 58 58 61 71 68 68 68 61 55 65 71 68 55 52 48 45 45 42 35 35 35 39 39 39 35 32 32 26 29 26 19 19 16
0 0 0 3 3 10 6 10 19 26 29 39 39 42 42 48 55 61 65 74 74 71 68 68 65 65 55 52 52 45 42 42 39 32 32 32 32 29 35 35 35 26 23 26 23 16 19 16 10
0 0 0 3 3 6 6 13 19 26 23 19 32 35 45 45 58 58 65 71 71 65 65 58 58 58 52 48 39 35 42 39 32 29 32 32 32 32 32 29 26 23 19 19 23 13 13 16 13
0 0 0 3 6 6 10 10 13 26 23 19 39 32 42 42 52 55 65 61 61 61 55 58 58 55 55 45 39 39 35 39 29 29 32 32 32 29 29 23 23 23 19 19 10 13 6 10 6
0 0 3 6 6 10 10 6 13 23 23 23 39 42 45 42 55 45 45 48 52 55 61 58 61 58 55 52 52 42 32 32 26 29 32 29 26 23 19 19 19 19 16 16 13 10 6 3 6
0 0 3 10 3 10 6 6 13 19 26 19 26 39 39 42 48 45 45 48 48 52 55 45 58 58 55 52 39 32 32 32 26 29 29 26 19 19 19 19 19 13 13 16 13 10 6 6 3
0 0 0 0 0 3 0 6 0 6 16 23 29 29 29 29 35 45 42 42 45 45 52 52 55 55 48 45 35 26 32 29 29 26 26 19 23 23 19 19 6 10 10 16 10 6 10 10 0
3 3 3 0 0 0 3 3 10 6 6 10 19 23 32 35 39 35 45 45 35 35 45 45 39 39 48 45 42 35 35 29 19 23 19 23 19 23 16 16 10 13 10 13 6 10 10 6 6
0 0 0 0 0 0 3 3 10 10 10 10 19 29 42 39 35 35 39 39 35 32 32 42 35 35 45 39 35 39 35 26 23 23 19 16 13 13 16 10 13 13 10 13 10 10 10 6 6
0 0 0 0 0 0 0 3 10 6 3 10 19 26 35 35 35 32 35 29 32 29 26 29 35 32 35 32 29 32 29 29 26 16 13 13 13 13 16 13 13 13 13 13 13 10 10 6 6
0 0 0 0 0 0 0 3 6 6 13 13 16 26 29 29 29 32 26 29 29 26 26 23 19 19 26 23 23 23 26 23 16 16 13 16 16 10 10 10 10 10 6 10 13 6 6 6 6
0 0 0 0 0 0 0 3 3 10 16 16 23 26 29 26 29 29 23 23 19 26 26 19 23 23 19 19 23 19 16 16 16 13 13 13 13 6 6 6 10 10 6 10 10 10 6 6 6
0 0 0 0 0 0 0 0 3 3 13 13 16 19 26 29 32 29 23 26 26 26 26 19 13 16 19 19 19 19 10 10 6 10 10 6 6 6 3 3 6 10 6 10 10 6 6 10 6
0 0 0 0 0 0 0 3 3 3 10 13 10 13 16 23 29 23 23 23 19 19 19 19 19 19 19 19 19 10 13 6 3 10 6 6 6 6 3 3 6 6 6 10 6 6 6 6 6
0 0 0 0 0 0 0 3 3 10 10 10 10 6 13 23 23 19 16 19 16 16 13 16 19 16 13 16 19 13 6 6 6 6 6 3 3 3 3 3 6 10 3 3 0 3 3 3 3

GEFSSGP_con_cape1000_192.txt.gz
Probability
0 0 0 0 0 0 0 0 0 0 0 3 6 10 23 29 26 65 42 29 65 55 61 87 100 100 100 100 94 94 94 94 94 77 81 77 81 77 68 61 52 58 48 35 39 42 35 45 48
0 0 0 0 0 0 0 0 0 0 3 13 16 19 23 26 29 32 42 55 71 61 55 71 100 100 97 97 97 87 94 87 84 81 81 74 68 65 65 55 55 58 52 42 35 32 39 35 48
0 0 0 0 0 0 0 0 3 6 6 10 19 26 32 32 29 42 42 55 71 55 65 94 97 97 94 90 87 84 84 81 81 71 68 61 52 52 48 48 52 42 45 39 32 35 35 39 45
0 0 0 0 0 0 0 3 0 3 6 10 19 29 45 52 42 42 42 48 65 58 58 87 94 94 87 87 87 81 84 77 77 74 65 58 52 42 52 48 39 42 45 48 42 45 42 39 39
0 0 0 0 0 0 0 3 3 3 10 16 19 32 48 58 52 39 55 52 61 61 65 68 90 90 84 84 84 84 84 81 74 65 61 55 52 52 48 52 48 45 42 39 35 35 39 35 39
0 0 0 0 0 0 0 0 0 0 16 19 26 32 52 65 48 42 45 55 55 61 61 68 87 90 84 84 87 84 84 77 71 68 61 61 55 52 52 48 48 45 39 39 42 39 35 32 35
0 0 0 0 3 0 0 0 0 6 16 23 23 35 55 65 42 39 42 42 39 55 68 71 74 87 87 87 84 84 77 74 71 65 65 68 61 58 55 52 48 52 42 39 42 39 42 39 35
0 0 0 0 3 3 3 3 10 13 16 26 26 42 61 58 55 39 35 39 39 58 61 61 65 74 77 81 84 81 77 74 71 65 71 68 65 58 58 61 52 48 48 42 39 42 42 39 42
0 0 0 0 3 3 3 10 10 10 16 26 35 45 65 58 48 39 39 35 42 45 58 55 61 68 68 58 68 77 71 71 71 65 65 68 65 61 61 52 58 48 48 48 48 45 45 48 45
0 0 0 0 3 3 10 10 10 13 19 32 35 52 58 58 48 39 35 32 35 45 52 52 58 68 61 61 74 71 61 68 68 68 65 68 65 71 48 48 55 52 52 55 52 48 45 45 39
0 0 0 3 3 6 10 10 16 13 26 23 42 48 58 58 61 55 42 45 52 55 65 55 68 74 74 74 74 74 68 74 71 68 71 74 68 65 55 58 58 58 55 52 48 45 42 39 29
0 0 0 6 6 6 10 16 23 32 29 35 42 52 52 52 55 52 48 42 55 61 61 68 68 71 74 74 74 68 71 74 68 74 71 61 71 71 61 61 55 55 52 48 45 48 39 35 35
0 0 3 6 6 10 16 19 16 29 35 42 39 48 55 55 55 58 55 61 65 71 61 68 71 71 81 81 81 71 77 77 77 74 65 68 61 58 52 52 55 45 48 39 45 42 35 32 32
0 6 6 10 10 13 19 23 19 29 32 29 29 42 35 48 48 45 65 74 65 71 71 71 71 77 77 77 81 77 77 77 68 71 58 55 55 55 55 52 52 42 39 35 32 29 29 29 26
3 3 10 13 16 13 16 19 26 26 26 23 26 29 32 39 42 45 55 68 68 77 74 77 74 77 77 77 74 68 68 55 55 52 55 52 52 48 48 48 45 35 35 35 32 29 32 26 29
0 0 3 6 10 6 6 16 23 26 16 19 26 35 39 39 42 52 55 68 68 71 74 77 68 74 71 71 71 65 61 61 58 55 52 45 45 48 48 48 39 35 35 35 35 29 35 35 26
0 0 0 6 6 6 6 13 16 19 23 26 26 35 35 42 39 42 52 55 61 68 65 71 71 71 71 71 68 65 65 68 48 52 42 42 39 35 42 42 35 32 35 35 29 32 26 19 16
0 0 0 3 6 6 10 23 16 16 13 26 35 32 35 39 39 45 45 55 55 65 65 65 68 68 71 65 68 61 55 48 45 39 42 42 39 39 39 35 35 35 32 32 29 23 19 16 13
0 0 0 0 0 6 10 13 19 26 16 19 23 23 35 35 42 48 48 55 61 61 61 58 61 65 65 61 61 52 52 55 45 39 39 39 39 39 35 35 35 35 32 23 19 16 13 10 16
0 0 0 0 3 6 6 10 6 16 13 16 23 26 26 35 42 45 52 55 61 58 58 58 58 58 61 58 55 52 55 45 42 39 35 35 35 32 32 35 26 29 29 23 16 19 19 16 10
0 0 0 0 0 3 6 3 6 16 13 10 13 19 32 32 39 52 52 58 58 58 58 58 58 58 55 55 48 52 48 35 42 42 35 35 32 29 29 29 29 29 26 16 16 13 16 10 10
0 0 0 0 0 0 0 6 10 13 13 13 10 19 23 39 39 45 45 52 48 48 55 58 55 55 55 48 45 48 42 39 39 35 35 35 26 29 29 29 29 29 19 19 16 13 13 10 6
0 0 0 0 0 0 0 0 6 13 13 10 16 13 19 32 35 39 45 39 39 42 52 52 55 55 55 52 48 42 39 39 35 35 29 29 29 26 29 29 26 26 19 19 13 13 13 13 16
0 0 0 0 0 0 0 0 0 6 6 13 13 13 16 26 32 42 39 42 39 45 42 48 52 55 52 52 48 42 39 39 32 26 23 19 23 29 26 23 19 16 13 16 13 16 16 16 10
0 0 0 0 0 0 0 0 0 0 6 10 16 13 29 29 29 29 32 35 45 42 39 39 39 45 45 42 42 42 39 35 32 26 19 19 19 13 19 16 13 13 16 13 13 16 16 10 10
0 0 0 0 0 0 0 0 0 13 10 10 16 26 26 29 26 29 23 32 42 39 45 39 39 45 42 39 42 42 39 32 26 26 19 16 16 13 16 16 16 16 16 10 13 13 13 10 10
0 0 0 0 0 0 0 0 0 3 6 16 23 26 16 23 23 19 23 26 32 39 39 42 45 39 45 45 42 42 32 23 23 23 19 16 16 13 10 13 13 16 16 13 13 13 10 10 10
0 0 0 0 0 0 0 0 0 6 10 19 16 16 13 16 23 26 23 29 29 29 29 35 32 26 29 29 32 26 26 26 23 16 16 10 13 10 13 13 13 16 16 13 13 13 10 10 6
0 0 0 0 0 0 0 0 3 10 10 16 10 10 16 19 29 23 23 23 26 23 23 23 23 26 23 23 26 23 23 26 16 10 6 10 10 10 13 13 13 13 13 13 13 13 6 10 10
0 0 0 0 0 0 3 0 3 6 16 19 13 10 23 19 23 29 26 26 26 23 23 23 23 23 23 23 23 23 19 23 19 10 6 10 10 13 10 6 10 13 6 10 10 6 6 10 3

GEFSSGP_con_cape1000_198.txt.gz
Probability
0 0 0 0 0 0 0 0 0 0 0 3 6 6 0 6 6 13 23 23 23 52 81 97 100 100 100 100 100 97 94 90 87 90 84 81 81 74 68 65 61 58 55 42 35 32 32 39 39
0 0 0 0 0 0 0 0 0 0 0 6 10 13 19 35 35 35 29 26 32 48 74 90 100 100 97 97 94 90 87 90 84 81 81 81 71 65 65 58 58 55 45 39 35 32 32 35 39
0 0 0 0 0 0 0 0 0 0 3 10 16 19 32 35 42 35 42 32 26 39 55 87 100 97 97 94 90 87 84 81 81 81 81 74 65 65 65 58 55 55 45 39 32 32 39 32 35
0 0 0 0 0 0 0 0 3 3 10 10 16 23 32 35 42 39 42 29 26 35 58 90 97 97 97 90 87 87 84 81 77 77 77 68 61 58 61 61 52 48 45 42 39 35 35 32 29
0 0 0 0 0 0 0 3 3 6 10 10 16 39 35 32 39 39 39 32 29 39 61 84 97 94 90 90 90 87 81 77 77 74 71 61 61 65 55 48 45 42 42 42 39 35 35 35 29
0 0 0 0 0 0 0 0 3 10 6 6 19 39 32 35 42 39 32 29 29 42 58 74 94 90 90 90 87 84 81 77 77 74 71 65 61 58 52 52 45 48 39 39 35 35 35 32 29
0 0 0 0 0 0 0 0 3 6 10 13 26 32 29 35 32 39 32 29 29 42 61 71 74 81 87 87 87 84 84 77 74 65 58 58 61 61 58 52 52 48 42 39 35 35 35 35 35
0 0 0 0 0 0 0 0 3 6 10 26 26 32 32 32 29 39 35 32 32 48 55 61 65 65 74 84 87 84 84 68 65 65 61 65 65 68 58 58 55 48 48 42 45 45 52 42 42
0 0 0 0 0 0 0 3 13 16 26 35 48 45 29 35 26 29 35 32 29 32 42 48 58 55 58 61 77 77 74 71 68 61 65 61 52 45 55 55 58 52 52 48 52 52 52 45 42
0 0 0 0 0 0 0 3 13 19 42 45 52 39 19 26 26 26 26 32 35 32 32 39 42 52 52 58 61 55 58 58 58 58 58 58 35 35 48 58 58 58 55 52 55 52 48 39 35
0 0 0 0 0 3 10 13 16 16 26 39 42 29 19 23 23 26 29 26 35 32 32 32 39 42 42 39 45 48 48 48 45 48 45 35 29 26 32 35 45 45 42 42 42 45 35 32 16
0 3 6 3 3 0 3 6 16 16 26 29 32 29 26 23 16 19 23 29 32 42 42 39 42 42 35 35 35 35 29 32 35 35 35 29 26 19 23 23 26 26 26 26 23 23 23 23 13
3 3 0 0 0 0 3 10 19 19 26 42 35 32 29 23 19 23 23 19 26 35 35 39 29 35 29 26 29 32 29 32 29 35 39 23 19 19 13 16 13 10 10 13 16 10 13 13 10
3 0 0 0 0 0 6 10 19 23 26 35 42 35 29 23 23 26 26 23 32 35 39 42 48 32 29 29 29 32 26 26 26 29 26 32 19 16 10 13 13 3 6 6 10 6 3 3 3
3 0 0 0 0 6 3 10 10 16 29 35 39 32 29 26 29 32 29 32 29 26 39 48 52 39 39 29 35 29 32 35 29 23 26 23 16 13 10 13 13 3 3 3 0 0 0 0 3
0 0 0 3 0 0 0 0 0 3 13 32 29 32 32 29 29 32 29 29 32 32 45 52 55 39 32 23 29 29 32 29 23 23 26 23 13 10 10 6 10 6 3 3 0 0 0 0 0
0 0 0 0 0 0 0 0 0 0 10 13 16 16 26 26 26 35 42 29 32 35 42 48 39 29 29 23 26 26 23 23 23 23 23 19 19 13 6 3 10 10 6 6 0 0 0 0 0
0 0 0 0 0 0 0 0 0 0 0 3 16 19 23 23 23 23 35 39 35 35 39 42 39 35 29 26 19 19 19 16 19 19 16 16 16 10 6 6 10 10 6 3 0 0 0 0 0
0 0 0 0 0 0 0 0 0 0 6 6 13 16 26 26 26 19 39 39 35 32 35 35 32 32 32 29 23 19 16 16 16 13 13 13 13 10 3 3 3 3 0 0 3 0 0 0 0
0 0 0 0 0 3 0 0 0 0 0 3 6 13 19 23 26 32 39 35 32 35 35 32 32 32 29 23 19 13 13 16 16 10 16 6 6 6 6 3 0 3 0 0 0 3 0 0 0
0 0 0 0 0 0 0 0 3 3 3 3 10 16 19 19 19 29 35 35 39 39 32 29 35 29 26 23 19 13 6 3 6 6 6 6 6 3 3 0 0 0 0 0 0 0 0 0 0
0 0 0 0 0 0 0 0 0 3 6 10 10 10 13 16 19 23 29 39 35 35 35 32 32 29 23 19 19 13 10 10 6 6 6 6 3 3 3 0 0 0 0 0 0 0 0 0 0
0 0 0 0 0 0 0 0 0 0 0 0 0 6 13 16 19 16 23 26 29 32 29 29 32 29 23 26 23 16 10 6 6 10 6 3 3 3 3 0 0 0 0 0 0 0 0 0 0
0 0 0 0 0 0 0 0 0 0 0 0 0 0 10 10 6 13 19 26 23 26 26 26 26 26 19 26 19 19 10 10 6 6 6 6 3 3 3 0 0 0 0 0 0 0 0 0 0
0 0 0 0 0 0 0 0 0 0 3 3 3 3 10 10 10 16 16 23 16 19 23 26 26 23 13 19 26 19 10 10 10 6 3 3 0 0 3 3 0 0 0 0 0 0 0 0 0
0 0 0 0 0 0 0 0 0 0 3 3 3 6 3 0 6 13 19 16 10 13 13 23 23 23 16 16 16 13 10 10 10 6 3 0 0 0 0 0 0 0 0 0 0 0 0 0 0
0 0 0 0 0 0 0 0 0 0 0 3 3 6 3 3 6 6 10 13 10 16 16 19 23 19 16 16 13 10 6 10 10 6 3 3 0 0 0 0 0 0 0 0 0 0 0 0 0
0 0 0 0 0 0 0 0 0 0 0 0 3 3 3 3 3 3 6 6 6 13 16 16 13 13 10 10 10 10 6 6 6 6 6 3 0 0 0 0 0 0 0 0 0 0 0 0 0
0 0 0 0 0 0 0 0 0 0 0 0 0 3 3 0 0 3 6 6 6 13 16 13 16 13 10 6 6 6 3 0 3 3 3 3 0 0 0 0 0 0 0 0 0 0 0 0 0
0 0 0 0 0 0 0 0 0 0 0 0 0 0 6 0 0 6 6 6 10 13 13 13 13 13 10 6 6 3 0 0 0 0 0 3 0 0 0 0 0 0 0 0 0 0 0 0 0

GEFSSGP_con_cape1000_204.txt.gz
Probability
0 0 0 0 0 0 0 0 0 0 0 0 0 0 3 6 0 0 3 10 16 52 77 97 97 100 97 94 94 94 97 94 90 87 87 84 84 77 77 74 68 68 68 58 58 55 42 42 39
0 0 0 0 0 0 0 0 0 0 0 0 0 6 10 13 16 16 13 19 32 58 74 90 97 100 97 97 97 90 90 90 87 84 81 81 81 81 68 68 68 65 61 52 35 39 35 42 35
0 0 0 0 0 0 0 0 0 0 0 0 10 13 13 19 35 35 19 26 35 58 74 87 97 100 97 90 87 84 90 87 84 81 81 81 77 71 68 65 61 58 55 45 39 39 39 32 39
0 0 0 0 0 0 0 0 0 0 3 3 13 16 16 29 42 32 29 32 42 45 68 84 97 97 94 84 84 84 81 81 74 74 81 77 74 71 61 61 65 55 52 45 42 42 32 32 32
0 0 0 0 0 0 0 0 0 3 6 6 10 13 13 29 26 26 32 35 42 39 52 77 97 94 90 81 84 84 84 77 74 74 74 71 68 68 68 65 58 48 48 45 45 42 39 35 35
0 0 0 0 0 0 0 0 3 6 10 6 6 6 13 26 26 29 32 39 42 39 48 68 90 87 87 84 81 81 77 77 74 74 71 65 65 68 65 68 65 52 48 45 45 42 39 35 35
0 0 0 0 0 0 0 0 3 0 6 10 10 16 16 19 29 26 32 32 35 39 45 61 77 81 81 81 81 81 77 74 74 74 65 61 65 65 68 68 61 55 52 45 45 42 45 39 39
0 0 0 0 0 0 0 3 3 3 10 16 19 19 16 26 26 26 29 26 29 35 39 45 61 74 81 77 81 81 77 74 71 65 61 61 65 65 65 68 68 55 48 52 45 45 48 45 42
0 0 0 0 0 0 0 3 6 16 19 19 26 19 19 29 32 26 23 23 26 35 32 35 45 48 52 58 77 74 71 68 61 61 61 65 55 52 58 61 65 58 52 52 52 48 45 39 45
0 0 0 0 0 0 0 6 10 13 19 26 32 32 29 29 35 29 26 26 19 26 29 32 29 35 42 52 55 55 58 55 52 52 55 52 45 42 55 55 55 55 52 52 52 48 48 42 35
0 0 0 0 0 0 3 10 13 13 16 16 26 42 32 32 29 32 29 26 19 19 26 35 32 35 39 42 35 45 48 48 48 45 45 42 32 35 39 39 39 45 45 48 48 42 32 35 35
3 0 0 3 6 0 3 6 13 19 16 23 26 32 35 35 32 26 32 23 26 19 23 29 32 35 35 32 32 32 35 39 39 35 35 32 26 26 23 29 29 32 26 23 23 19 23 23 19
0 0 0 0 3 3 3 3 6 13 29 19 23 26 29 26 29 29 26 29 26 26 26 26 26 29 29 29 29 29 32 29 29 29 29 29 26 23 13 13 16 16 13 6 13 13 16 13 10
0 0 0 0 0 3 6 6 6 19 16 16 26 23 19 23 26 23 23 29 29 26 23 26 26 29 29 29 26 29 26 29 26 23 19 16 19 13 10 3 3 3 13 6 6 10 6 10 13
0 0 0 0 0 0 3 3 6 16 10 29 23 23 26 26 26 29 26 26 29 29 23 19 26 29 26 19 23 23 23 23 19 19 13 16 16 3 3 3 3 3 0 0 3 6 3 3 6
0 0 0 0 0 0 0 0 0 13 16 26 26 29 32 32 26 23 23 19 23 29 26 26 32 26 16 16 19 19 16 16 13 13 13 13 13 3 3 3 3 3 0 0 0 3 3 0 0
0 0 0 0 0 0 0 0 0 6 10 16 23 26 29 26 23 16 16 16 19 23 29 23 19 23 19 19 13 16 16 16 16 13 13 13 10 6 3 3 3 0 0 0 0 0 0 0 0
0 0 0 0 0 0 0 0 6 10 3 10 16 19 26 19 19 16 16 19 16 16 26 26 16 23 19 19 13 16 13 13 16 16 13 13 13 6 6 3 0 0 0 0 0 0 0 0 0
0 0 0 0 0 0 0 0 3 10 13 6 16 19 19 16 16 16 16 10 13 10 16 23 16 16 16 13 13 10 13 13 13 6 10 3 6 3 3 3 0 0 0 0 0 0 0 0 0
0 0 0 0 0 0 0 0 0 3 10 13 10 10 6 13 10 16 16 13 10 10 13 19 16 16 13 13 10 13 13 10 10 13 6 3 3 3 3 0 0 0 0 0 0 0 0 0 0
0 0 0 0 0 0 0 0 0 3 3 3 0 6 6 13 16 16 13 10 6 6 10 19 16 16 16 10 13 13 13 13 13 10 6 6 6 3 3 3 0 0 0 0 0 0 0 0 0
0 0 0 0 0 0 0 0 0 0 0 0 0 3 3 6 13 13 10 3 3 3 10 13 13 10 6 10 10 10 10 10 10 10 6 3 3 3 3 3 3 0 0 0 0 0 0 0 0
0 0 0 0 0 0 0 0 0 0 0 0 3 3 6 6 13 6 3 3 6 10 10 10 10 3 3 10 10 6 6 6 3 0 0 3 3 3 3 3 3 0 0 0 0 0 0 0 0
0 0 0 0 0 0 0 0 0 0 0 0 0 0 3 6 6 3 3 6 10 10 6 10 13 10 6 3 6 6 10 6 3 3 0 0 3 3 3 3 3 0 0 0 0 0 0 0 0
0 0 0 0 0 0 0 0 0 0 0 0 0 0 0 3 6 6 6 6 6 10 10 6 10 10 6 10 6 10 10 6 6 3 0 3 0 0 0 3 3 0 0 0 0 0 0 0 0
0 0 0 0 0 0 0 0 0 0 0 0 0 0 0 0 3 6 6 3 3 6 10 6 10 10 3 6 10 6 0 3 0 0 0 3 3 0 0 0 0 0 0 0 0 0 0 0 0
0 0 0 0 0 0 0 0 0 0 0 0 0 0 0 0 3 3 6 6 3 3 6 10 10 6 3 6 10 10 0 0 0 0 0 0 0 0 0 0 0 0 0 0 0 0 0 0 0
0 0 0 0 0 0 0 0 0 0 0 0 0 3 3 0 3 3 6 6 3 3 3 6 6 6 0 3 3 6 3 3 0 0 0 0 0 0 0 0 0 0 0 0 0 0 0 0 0
0 0 0 0 0 0 0 0 0 0 0 0 0 0 3 3 3 3 6 6 6 3 3 6 6 3 6 3 3 3 3 0 0 0 0 0 0 0 0 0 0 0 0 0 0 0 0 0 0
0 0 0 0 0 0 0 0 0 0 0 0 0 0 3 3 3 6 6 3 6 3 3 6 3 3 6 3 3 3 3 0 0 0 0 0 0 0 0 0 0 0 0 0 0 0 0 0 0